[[{"header":{"parameterUnit":"m.s-1","parameterCategory":1,"la1":31.0,"la2":29.5877,"lo1":-88.7671,"lo2":-86.6584,"dy":0.0162,"dx":0.0185,"nx":115,"ny":88,"refTime":"2024-07-18T18:00:00:Z","depth":0,"parameterNumber":2,"parameterNumberName":"U-component_of_WINDS"},"data":[0.0,0.0,0.0,0.0,0.0,0.0,0.0,0.0,0.0,0.0,0.0,0.0,0.0,0.0,0.0,0.0,0.0,0.0,0.0,0.0,0.0,0.0,0.0,0.0,0.0,0.0,0.0,0.0,0.0,0.0,0.0,0.0,0.0,0.0,0.0,0.0,0.0,0.0,0.0,0.0,0.0,0.0,0.0,0.0,0.0,0.0,0.0,0.0,0.0,0.0,0.0,0.0,0.0,0.0,0.0,0.0,0.0,0.0,0.0,0.0,0.0,0.0,0.0,0.0,0.0,0.0,0.0,0.0,0.0,0.0,0.0,0.0,0.0,0.0,0.0,0.0,0.0,0.0,0.0,0.0,0.0,0.0,0.0,0.0,0.0,0.0,0.0,0.0,0.0,0.0,0.0,0.0,0.0,0.0,0.0,0.0,0.0,0.0,0.0,0.0,0.0,0.0,0.0,0.0,0.0,0.0,0.0,0.0,0.0,0.0,0.0,0.0,0.0,0.0,0.0,0.0,0.0,0.0,0.0,0.0,0.0,0.0,0.0,0.0,0.0,0.0,0.0,0.0,0.0,0.0,0.0,0.0,0.0,0.0,0.0,0.0,0.0,0.0,0.0,0.0,0.0,0.0,0.0,0.0,0.0,0.0,0.0,0.0,0.0,0.0,0.0,0.0,0.0,0.0,0.0,0.0,0.0,0.0,0.0,0.0,0.0,0.0,0.0,0.0,0.0,0.0,0.0,0.0,0.0,0.0,0.0,0.0,0.0,0.0,0.0,0.0,0.0,0.0,0.0,0.0,0.0,0.0,0.0,0.0,0.0,0.0,0.0,0.0,0.0,0.0,0.0,0.0,0.0,0.0,0.0,0.0,0.0,0.0,0.0,0.0,0.0,0.0,0.0,0.0,0.0,0.0,0.0,0.0,0.0,0.0,0.0,0.0,0.0,0.0,0.0,0.0,0.0,0.0,0.0,0.0,0.0,0.0,0.0,0.0,0.0,0.0,0.0,0.0,0.0,0.0,0.0,0.0,0.0,0.0,0.0,0.0,0.0,0.0,0.0,0.0,0.0,0.0,0.0,0.0,0.0,0.0,0.0,0.0,0.0,0.0,0.0,0.0,0.0,0.0,0.0,0.0,0.0,0.0,0.0,0.0,0.0,0.0,0.0,0.0,0.0,0.0,0.0,0.0,0.0,0.0,0.0,0.0,0.0,0.0,0.0,0.0,0.0,0.0,0.0,0.0,0.0,0.0,0.0,0.0,0.0,0.0,0.0,0.0,0.0,0.0,0.0,0.0,0.0,0.0,0.0,0.0,0.0,0.0,0.0,0.0,0.0,0.0,0.0,0.0,0.0,0.0,0.0,0.0,0.0,0.0,0.0,0.0,0.0,0.0,0.0,0.0,0.0,0.0,0.0,0.0,0.0,0.0,0.0,0.0,0.0,0.0,0.0,0.0,0.0,0.0,0.0,0.0,0.0,0.0,0.0,0.0,0.0,0.0,0.0,0.0,0.0,0.0,0.0,0.0,0.0,0.0,0.0,0.0,0.0,0.0,0.0,0.0,0.0,0.0,0.0,0.0,0.0,0.0,0.0,0.0,0.0,0.0,0.0,0.0,0.0,0.0,0.0,0.0,0.0,0.0,0.0,0.0,0.0,0.0,0.0,0.0,0.0,0.0,0.0,0.0,0.0,0.0,0.0,0.0,0.0,0.0,0.0,0.0,0.0,0.0,0.0,0.0,0.0,0.0,0.0,0.0,0.0,0.0,0.0,0.0,0.0,0.0,0.0,0.0,0.0,0.0,0.0,0.0,0.0,0.0,0.0,0.0,0.0,0.0,0.0,0.0,0.0,0.0,0.0,0.0,0.0,0.0,0.0,0.0,0.0,0.0,0.0,0.0,0.0,0.0,0.0,0.0,0.0,0.0,0.0,0.0,0.0,0.0,0.0,0.0,0.0,0.0,0.0,0.0,0.0,0.0,0.0,0.0,0.0,0.0,0.0,0.0,0.0,0.0,0.0,0.0,0.0,0.0,0.0,0.0,0.0,0.0,0.0,0.0,0.0,0.0,0.0,0.0,0.0,0.0,0.0,0.0,0.0,0.0,0.0,0.0,0.0,0.0,0.0,0.0,0.0,0.0,0.0,0.0,0.0,0.0,0.0,0.0,0.0,0.0,0.0,0.0,0.0,0.0,0.0,0.0,0.0,0.0,0.0,0.0,0.0,0.0,0.0,0.0,0.0,0.0,0.0,0.0,0.0,0.0,0.0,0.0,0.0,0.0,0.0,0.0,0.0,0.0,0.0,0.0,0.0,0.0,0.0,0.0,0.0,0.0,0.0,0.0,0.0,0.0,0.0,0.0,0.0,0.0,0.0,0.0,0.0,0.0,0.0,0.0,0.0,0.0,0.0,0.0,0.0,0.0,0.0,0.0,0.0,0.0,0.0,0.0,0.0,0.0,0.0,0.0,0.0,0.0,0.0,0.0,0.0,0.0,0.0,0.0,0.0,0.0,0.0,0.0,0.0,0.0,0.0,0.0,0.0,0.0,0.0,0.0,0.0,0.0,0.0,0.0,0.0,0.0,0.0,0.0,0.0,0.0,0.0,0.0,0.0,0.0,0.0,0.0,0.0,0.0,0.0,0.0,0.0,0.0,0.0,0.0,0.0,0.0,0.0,0.0,0.0,0.0,0.0,0.0,0.0,0.0,0.0,0.0,0.0,0.0,0.0,0.0,0.0,0.0,0.0,0.0,0.0,0.0,0.0,0.0,0.0,0.0,0.0,0.0,0.0,0.0,0.0,0.0,0.0,0.0,0.0,0.0,0.0,0.0,0.0,0.0,0.0,0.0,0.0,0.0,0.0,0.0,0.0,0.0,0.0,0.0,0.0,0.0,0.0,0.0,0.0,0.0,0.0,0.0,0.0,0.0,0.0,0.0,0.0,0.0,0.0,0.0,0.0,0.0,0.0,0.0,0.0,0.0,0.0,0.0,0.0,0.0,0.0,0.0,0.0,0.0,0.0,0.0,0.0,0.0,0.0,0.0,0.0,0.0,0.0,0.0,0.0,0.0,0.0,0.0,0.0,0.0,0.0,0.0,0.0,0.0,0.0,0.0,0.0,0.0,0.0,0.0,0.0,0.0,0.0,0.0,0.0,0.0,0.0,0.0,0.0,0.0,0.0,0.0,0.0,0.0,0.0,0.0,0.0,0.0,0.0,0.0,0.0,0.0,0.0,0.0,0.0,0.0,0.0,0.0,0.0,0.0,0.0,0.0,0.0,0.0,0.0,0.0,0.0,0.0,0.0,0.0,0.0,0.0,0.0,0.0,0.0,0.0,0.0,0.0,0.0,0.0,0.0,0.0,0.0,0.0,0.0,0.0,0.0,0.0,0.0,0.0,0.0,0.0,0.0,0.0,0.0,0.0,0.0,0.0,0.0,0.0,0.0,0.0,0.0,0.0,0.0,0.0,0.0,0.0,0.0,0.0,0.0,0.0,0.0,0.0,0.0,0.0,0.0,0.0,0.0,0.0,0.0,0.0,0.0,0.0,0.0,0.0,0.0,0.0,0.0,0.0,0.0,0.0,0.0,0.0,0.0,0.0,0.0,0.0,0.0,0.0,0.0,0.0,0.0,0.0,0.0,0.0,0.0,0.0,0.0,0.0,0.0,0.0,0.0,0.0,0.0,0.0,0.0,0.0,0.0,0.0,0.0,0.0,0.0,0.0,0.0,0.0,0.0,0.0,0.0,0.0,0.0,0.0,0.0,0.0,0.0,0.0,0.0,0.0,0.0,0.0,0.0,0.0,0.0,0.0,0.0,0.0,0.0,0.0,0.0,0.0,0.0,0.0,0.0,0.0,0.0,0.0,0.0,0.0,0.0,0.0,0.0,0.0,0.0,0.0,0.0,0.0,0.0,0.0,0.0,0.0,0.0,0.0,0.0,0.0,0.0,0.0,0.0,0.0,0.0,0.0,0.0,0.0,0.0,0.0,0.0,0.0,0.0,0.0,0.0,0.0,0.0,0.0,0.0,0.0,0.0,0.0,0.0,0.0,0.0,0.0,0.0,0.0,0.0,0.0,0.0,0.0,0.0,0.0,0.0,0.0,0.0,0.0,0.0,0.0,0.0,0.0,0.0,0.0,0.0,0.0,0.0,0.0,0.0,0.0,0.0,0.0,0.0,0.0,0.0,0.0,0.0,0.0,0.0,0.0,0.0,0.0,0.0,0.0,0.0,0.0,0.0,0.0,0.0,0.0,0.0,0.0,0.0,0.0,0.0,0.0,-1.7865,0.0,0.0,0.0,0.0,0.0,0.0,0.0,0.0,0.0,0.0,0.0,0.0,0.0,0.0,0.0,0.0,0.0,0.0,0.0,0.0,0.0,0.0,0.0,0.0,0.0,0.0,0.0,0.0,0.0,0.0,0.0,0.0,0.0,0.0,0.0,0.0,0.0,0.0,0.0,0.0,0.0,0.0,0.0,0.0,0.0,0.0,0.0,0.0,0.0,0.0,0.0,0.0,0.0,0.0,0.0,0.0,0.0,0.0,0.0,0.0,0.0,0.0,0.0,0.0,0.0,0.0,0.0,0.0,0.0,0.0,0.0,0.0,0.0,0.0,0.0,0.0,0.0,0.0,0.0,0.0,0.0,0.0,0.0,0.0,0.0,0.0,0.0,0.0,0.0,0.0,0.0,0.0,0.0,0.0,0.0,0.0,0.0,0.0,0.0,0.0,0.0,0.0,0.0,0.0,0.0,0.0,0.0,0.0,0.0,0.0,-2.0503,-2.0527,-2.0194,-1.9353,-1.8008,0.0,0.0,0.0,0.0,0.0,0.0,0.0,0.0,0.0,0.0,0.0,0.0,0.0,0.0,0.0,0.0,0.0,0.0,0.0,0.0,0.0,0.0,0.0,0.0,0.0,0.0,0.0,0.0,0.0,0.0,0.0,0.0,0.0,0.0,0.0,0.0,0.0,0.0,0.0,0.0,0.0,0.0,0.0,0.0,0.0,0.0,0.0,0.0,0.0,0.0,0.0,0.0,0.0,0.0,0.0,0.0,0.0,0.0,0.0,0.0,0.0,0.0,0.0,0.0,0.0,0.0,0.0,0.0,0.0,0.0,0.0,0.0,0.0,0.0,0.0,0.0,0.0,0.0,0.0,0.0,0.0,0.0,0.0,0.0,0.0,0.0,0.0,0.0,0.0,0.0,0.0,0.0,0.0,0.0,0.0,0.0,0.0,0.0,0.0,0.0,0.0,0.0,0.0,0.0,0.0,0.0,0.0,0.0,0.0,0.0,0.0,0.0,-2.0566,-1.9746,-1.8,0.0,0.0,0.0,0.0,0.0,0.0,0.0,0.0,0.0,0.0,0.0,0.0,0.0,0.0,0.0,0.0,0.0,0.0,0.0,0.0,0.0,0.0,0.0,0.0,0.0,0.0,0.0,0.0,0.0,0.0,0.0,0.0,0.0,0.0,0.0,0.0,0.0,0.0,0.0,0.0,0.0,0.0,0.0,0.0,0.0,0.0,0.0,0.0,0.0,0.0,0.0,0.0,0.0,0.0,0.0,0.0,0.0,0.0,0.0,0.0,0.0,0.0,0.0,0.0,0.0,0.0,0.0,0.0,0.0,0.0,0.0,0.0,0.0,0.0,0.0,0.0,0.0,0.0,0.0,0.0,0.0,0.0,0.0,0.0,0.0,0.0,0.0,0.0,0.0,0.0,0.0,0.0,0.0,0.0,0.0,0.0,0.0,0.0,0.0,0.0,0.0,0.0,0.0,0.0,0.0,0.0,0.0,0.0,0.0,0.0,-2.0467,-2.0581,-2.0537,0.0,-1.8077,0.0,0.0,0.0,0.0,0.0,0.0,0.0,0.0,0.0,0.0,0.0,0.0,0.0,0.0,0.0,0.0,0.0,0.0,0.0,0.0,0.0,0.0,0.0,0.0,0.0,0.0,0.0,0.0,0.0,0.0,0.0,0.0,0.0,0.0,0.0,0.0,0.0,0.0,0.0,0.0,0.0,0.0,0.0,0.0,0.0,0.0,0.0,0.0,0.0,0.0,0.0,0.0,0.0,0.0,0.0,0.0,0.0,0.0,0.0,0.0,0.0,0.0,0.0,0.0,0.0,0.0,0.0,0.0,0.0,0.0,0.0,0.0,0.0,0.0,0.0,0.0,0.0,0.0,0.0,0.0,0.0,0.0,0.0,0.0,0.0,0.0,0.0,0.0,0.0,0.0,0.0,0.0,0.0,0.0,0.0,0.0,0.0,0.0,0.0,0.0,0.0,0.0,0.0,0.0,0.0,0.0,0.0,0.0,0.0,0.0,-2.0366,-2.049,-1.9453,-1.8574,0.0,0.0,0.0,0.0,0.0,0.0,0.0,0.0,0.0,0.0,0.0,0.0,0.0,0.0,0.0,0.0,0.0,0.0,0.0,0.0,0.0,0.0,0.0,0.0,0.0,0.0,0.0,0.0,0.0,0.0,0.0,0.0,0.0,0.0,0.0,0.0,0.0,0.0,0.0,0.0,0.0,0.0,0.0,0.0,0.0,0.0,0.0,0.0,0.0,0.0,0.0,0.0,0.0,0.0,0.0,0.0,0.0,0.0,0.0,0.0,0.0,0.0,0.0,0.0,0.0,0.0,0.0,0.0,0.0,0.0,0.0,0.0,0.0,0.0,0.0,0.0,0.0,0.0,0.0,0.0,0.0,0.0,0.0,0.0,0.0,0.0,0.0,0.0,0.0,0.0,0.0,0.0,0.0,0.0,0.0,0.0,0.0,0.0,0.0,0.0,0.0,0.0,0.0,0.0,0.0,0.0,0.0,0.0,0.0,0.0,-2.0296,-2.0328,-2.0301,-1.917,-1.8304,-1.7823,0.0,0.0,0.0,0.0,0.0,0.0,0.0,0.0,0.0,0.0,0.0,0.0,0.0,0.0,0.0,0.0,0.0,0.0,0.0,0.0,0.0,0.0,0.0,0.0,0.0,0.0,0.0,0.0,0.0,0.0,0.0,0.0,0.0,0.0,0.0,0.0,0.0,0.0,0.0,0.0,0.0,0.0,0.0,0.0,0.0,0.0,0.0,0.0,0.0,0.0,0.0,0.0,0.0,0.0,0.0,0.0,0.0,0.0,0.0,0.0,0.0,0.0,0.0,0.0,0.0,0.0,0.0,0.0,0.0,0.0,0.0,0.0,0.0,0.0,0.0,0.0,0.0,0.0,0.0,0.0,0.0,0.0,0.0,0.0,0.0,0.0,0.0,0.0,0.0,0.0,0.0,0.0,0.0,0.0,0.0,0.0,0.0,0.0,0.0,0.0,0.0,0.0,0.0,0.0,0.0,0.0,0.0,0.0,-2.0302,-2.0286,-2.0289,-2.0302,-2.0282,-1.9512,0.0,0.0,0.0,0.0,0.0,0.0,0.0,0.0,0.0,0.0,0.0,0.0,0.0,0.0,0.0,0.0,0.0,0.0,0.0,0.0,0.0,0.0,0.0,0.0,0.0,0.0,0.0,0.0,0.0,0.0,0.0,0.0,0.0,0.0,0.0,0.0,0.0,0.0,0.0,0.0,0.0,0.0,0.0,0.0,0.0,0.0,0.0,0.0,0.0,0.0,0.0,0.0,0.0,0.0,0.0,0.0,0.0,0.0,0.0,0.0,0.0,0.0,0.0,0.0,0.0,0.0,0.0,0.0,0.0,0.0,0.0,0.0,0.0,0.0,0.0,0.0,0.0,0.0,0.0,0.0,0.0,0.0,0.0,0.0,0.0,0.0,0.0,0.0,0.0,0.0,0.0,0.0,0.0,0.0,0.0,0.0,0.0,0.0,0.0,0.0,0.0,0.0,0.0,0.0,0.0,0.0,0.0,0.0,0.0,-2.023,-2.0227,-2.0242,-2.0204,-1.9228,-1.8377,0.0,0.0,0.0,0.0,0.0,0.0,0.0,0.0,0.0,0.0,0.0,0.0,0.0,0.0,0.0,0.0,0.0,0.0,0.0,0.0,0.0,0.0,0.0,0.0,0.0,0.0,0.0,0.0,0.0,0.0,0.0,0.0,0.0,0.0,0.0,0.0,0.0,0.0,0.0,0.0,0.0,0.0,0.0,0.0,0.0,0.0,0.0,0.0,0.0,0.0,0.0,0.0,0.0,0.0,0.0,0.0,0.0,0.0,0.0,0.0,0.0,0.0,0.0,0.0,0.0,0.0,0.0,0.0,0.0,0.0,0.0,0.0,0.0,0.0,0.0,0.0,0.0,0.0,0.0,0.0,0.0,0.0,0.0,0.0,0.0,0.0,0.0,0.0,0.0,0.0,0.0,0.0,0.0,0.0,0.0,0.0,0.0,0.0,0.0,0.0,0.0,0.0,0.0,0.0,0.0,0.0,0.0,0.0,0.0,-2.0551,0.0,-2.0331,0.0,-1.9269,-1.8259,0.0,0.0,0.0,0.0,0.0,0.0,0.0,0.0,0.0,0.0,0.0,0.0,0.0,0.0,0.0,0.0,0.0,0.0,0.0,0.0,0.0,0.0,0.0,0.0,0.0,0.0,0.0,0.0,0.0,0.0,0.0,0.0,0.0,0.0,0.0,0.0,0.0,0.0,0.0,0.0,0.0,0.0,0.0,0.0,0.0,0.0,0.0,0.0,0.0,0.0,0.0,0.0,0.0,0.0,0.0,0.0,0.0,0.0,0.0,0.0,0.0,0.0,0.0,0.0,0.0,0.0,0.0,0.0,0.0,0.0,0.0,0.0,0.0,0.0,0.0,0.0,0.0,0.0,0.0,0.0,0.0,0.0,0.0,0.0,0.0,0.0,0.0,0.0,0.0,0.0,0.0,0.0,0.0,0.0,0.0,0.0,0.0,0.0,0.0,0.0,0.0,0.0,0.0,0.0,0.0,0.0,0.0,0.0,-2.0523,-2.1311,-2.0635,-2.0668,-2.1449,-2.0572,-1.9368,0.0,0.0,0.0,0.0,0.0,0.0,0.0,0.0,0.0,0.0,0.0,0.0,0.0,0.0,0.0,0.0,0.0,0.0,0.0,0.0,0.0,0.0,0.0,0.0,0.0,0.0,0.0,0.0,0.0,0.0,0.0,0.0,0.0,0.0,0.0,0.0,0.0,0.0,0.0,0.0,0.0,0.0,0.0,0.0,0.0,0.0,0.0,0.0,0.0,0.0,0.0,0.0,0.0,0.0,0.0,0.0,0.0,0.0,0.0,0.0,0.0,0.0,0.0,0.0,0.0,0.0,0.0,0.0,0.0,0.0,0.0,0.0,0.0,0.0,0.0,0.0,0.0,0.0,0.0,0.0,0.0,0.0,0.0,0.0,0.0,0.0,0.0,0.0,0.0,0.0,0.0,0.0,0.0,0.0,0.0,0.0,0.0,0.0,0.0,0.0,0.0,0.0,0.0,0.0,0.0,0.0,0.0,0.0,0.0,-2.1373,-2.1178,-2.1436,-2.2211,-2.0354,-1.9343,0.0,0.0,0.0,0.0,0.0,0.0,0.0,0.0,0.0,0.0,0.0,0.0,0.0,0.0,0.0,0.0,0.0,0.0,0.0,0.0,0.0,0.0,0.0,0.0,0.0,0.0,0.0,0.0,0.0,0.0,0.0,0.0,0.0,0.0,0.0,0.0,0.0,0.0,0.0,0.0,0.0,0.0,0.0,0.0,0.0,0.0,0.0,0.0,0.0,0.0,0.0,0.0,0.0,0.0,0.0,0.0,0.0,0.0,0.0,0.0,0.0,0.0,0.0,0.0,0.0,0.0,0.0,0.0,0.0,0.0,0.0,0.0,0.0,0.0,0.0,0.0,0.0,0.0,0.0,0.0,0.0,0.0,0.0,0.0,0.0,0.0,0.0,0.0,0.0,0.0,0.0,0.0,0.0,0.0,0.0,0.0,0.0,0.0,0.0,0.0,0.0,0.0,0.0,0.0,0.0,0.0,0.0,0.0,0.0,-2.2338,-2.2338,-2.275,-2.3588,-2.1455,-2.0236,-2.0134,0.0,0.0,0.0,0.0,0.0,0.0,0.0,0.0,0.0,0.0,0.0,0.0,0.0,0.0,0.0,0.0,0.0,0.0,0.0,0.0,0.0,0.0,0.0,0.0,0.0,0.0,0.0,0.0,0.0,0.0,0.0,0.0,0.0,0.0,0.0,0.0,0.0,0.0,0.0,0.0,0.0,0.0,0.0,0.0,0.0,0.0,0.0,0.0,0.0,0.0,0.0,0.0,0.0,0.0,0.0,0.0,0.0,0.0,0.0,0.0,0.0,0.0,0.0,0.0,0.0,0.0,0.0,0.0,0.0,0.0,0.0,0.0,0.0,0.0,0.0,0.0,0.0,0.0,0.0,0.0,0.0,0.0,0.0,0.0,0.0,0.0,0.0,0.0,0.0,0.0,0.0,0.0,0.0,0.0,0.0,0.0,0.0,0.0,0.0,0.0,0.0,0.0,0.0,0.0,0.0,0.0,0.0,0.0,-2.4104,-2.42,-2.4626,-2.5306,-2.3542,-2.1894,0.0,0.0,0.0,0.0,0.0,0.0,0.0,0.0,0.0,0.0,0.0,0.0,0.0,0.0,0.0,0.0,0.0,0.0,0.0,0.0,0.0,0.0,0.0,0.0,0.0,0.0,0.0,0.0,0.0,0.0,0.0,0.0,0.0,0.0,0.0,0.0,0.0,0.0,0.0,0.0,0.0,0.0,0.0,0.0,0.0,0.0,0.0,0.0,0.0,0.0,0.0,0.0,0.0,0.0,0.0,0.0,0.0,0.0,0.0,0.0,0.0,0.0,0.0,0.0,0.0,0.0,0.0,0.0,0.0,0.0,0.0,0.0,0.0,0.0,0.0,0.0,0.0,0.0,0.0,0.0,0.0,0.0,0.0,0.0,0.0,0.0,0.0,0.0,0.0,0.0,0.0,0.0,0.0,0.0,0.0,0.0,0.0,0.0,0.0,0.0,0.0,0.0,0.0,0.0,0.0,0.0,0.0,0.0,0.0,-2.6644,-2.7912,-2.8064,-2.7033,-2.4173,-2.2715,0.0,0.0,0.0,0.0,0.0,0.0,0.0,0.0,0.0,0.0,0.0,0.0,0.0,0.0,0.0,0.0,0.0,0.0,0.0,0.0,0.0,0.0,0.0,0.0,0.0,0.0,0.0,0.0,0.0,0.0,0.0,0.0,0.0,0.0,0.0,0.0,0.0,0.0,0.0,0.0,0.0,0.0,0.0,0.0,0.0,0.0,0.0,0.0,0.0,0.0,0.0,0.0,0.0,0.0,0.0,0.0,0.0,0.0,0.0,0.0,0.0,0.0,0.0,0.0,0.0,0.0,0.0,0.0,0.0,0.0,0.0,0.0,0.0,0.0,0.0,0.0,0.0,0.0,0.0,0.0,0.0,0.0,0.0,0.0,0.0,0.0,0.0,0.0,0.0,0.0,0.0,0.0,0.0,0.0,0.0,0.0,0.0,0.0,0.0,0.0,0.0,0.0,0.0,0.0,0.0,0.0,0.0,0.0,-2.5647,-2.7147,-2.949,-3.0261,-2.9325,-2.6683,-2.4983,0.0,0.0,0.0,0.0,0.0,0.0,0.0,0.0,0.0,0.0,0.0,0.0,0.0,0.0,0.0,0.0,0.0,0.0,0.0,0.0,0.0,0.0,0.0,0.0,0.0,0.0,0.0,0.0,0.0,0.0,0.0,0.0,0.0,0.0,0.0,0.0,0.0,0.0,0.0,0.0,0.0,0.0,0.0,0.0,0.0,0.0,0.0,0.0,0.0,0.0,0.0,0.0,0.0,0.0,0.0,0.0,0.0,0.0,0.0,0.0,0.0,0.0,0.0,0.0,0.0,0.0,0.0,0.0,0.0,0.0,0.0,0.0,0.0,0.0,0.0,0.0,0.0,0.0,0.0,0.0,0.0,0.0,0.0,0.0,0.0,0.0,0.0,0.0,0.0,0.0,0.0,0.0,0.0,0.0,0.0,0.0,0.0,0.0,0.0,0.0,0.0,0.0,0.0,0.0,0.0,0.0,0.0,0.0,-2.66,-2.6708,-2.9865,-3.1572,-3.156,-2.97,-2.7599,0.0,0.0,0.0,0.0,0.0,0.0,0.0,0.0,0.0,0.0,0.0,0.0,0.0,0.0,0.0,0.0,0.0,0.0,0.0,0.0,0.0,0.0,0.0,0.0,0.0,0.0,0.0,0.0,0.0,0.0,0.0,0.0,0.0,0.0,0.0,0.0,0.0,0.0,0.0,0.0,0.0,0.0,0.0,0.0,0.0,0.0,0.0,0.0,0.0,0.0,0.0,0.0,0.0,0.0,0.0,0.0,0.0,0.0,0.0,0.0,0.0,0.0,0.0,0.0,0.0,0.0,0.0,0.0,0.0,0.0,0.0,0.0,0.0,0.0,0.0,0.0,0.0,0.0,0.0,0.0,0.0,0.0,0.0,0.0,0.0,0.0,0.0,0.0,0.0,0.0,0.0,0.0,0.0,0.0,0.0,0.0,0.0,0.0,0.0,0.0,0.0,0.0,0.0,0.0,0.0,0.0,0.0,0.0,-2.8303,-2.8427,-3.103,-3.2432,-3.2432,-2.8867,-2.6689,0.0,0.0,0.0,0.0,0.0,0.0,0.0,0.0,0.0,0.0,0.0,0.0,0.0,0.0,0.0,0.0,0.0,0.0,0.0,0.0,0.0,0.0,0.0,0.0,0.0,0.0,0.0,0.0,0.0,0.0,0.0,0.0,0.0,0.0,0.0,0.0,0.0,0.0,0.0,0.0,0.0,0.0,0.0,0.0,0.0,0.0,0.0,0.0,-2.236,0.0,0.0,0.0,0.0,0.0,0.0,0.0,0.0,0.0,0.0,0.0,0.0,0.0,0.0,0.0,0.0,0.0,0.0,0.0,0.0,0.0,0.0,0.0,0.0,0.0,0.0,0.0,0.0,0.0,0.0,0.0,0.0,0.0,0.0,0.0,0.0,0.0,0.0,0.0,0.0,0.0,0.0,0.0,0.0,0.0,0.0,0.0,0.0,0.0,0.0,0.0,0.0,0.0,0.0,0.0,0.0,0.0,0.0,0.0,-2.9024,-2.9499,-3.1176,-3.247,-3.3127,-2.9593,-2.7396,0.0,0.0,0.0,0.0,0.0,0.0,0.0,0.0,0.0,0.0,0.0,0.0,0.0,0.0,0.0,0.0,0.0,0.0,0.0,0.0,0.0,0.0,0.0,0.0,0.0,0.0,0.0,0.0,0.0,0.0,0.0,0.0,0.0,0.0,0.0,0.0,0.0,0.0,0.0,0.0,0.0,0.0,0.0,0.0,0.0,0.0,0.0,0.0,0.0,0.0,0.0,0.0,0.0,0.0,0.0,0.0,0.0,0.0,0.0,0.0,0.0,0.0,0.0,0.0,0.0,0.0,0.0,0.0,0.0,0.0,0.0,0.0,0.0,0.0,0.0,0.0,0.0,0.0,0.0,0.0,0.0,0.0,0.0,0.0,0.0,0.0,0.0,0.0,0.0,0.0,0.0,0.0,0.0,0.0,0.0,0.0,0.0,0.0,0.0,0.0,0.0,0.0,0.0,0.0,0.0,0.0,0.0,-2.7611,-2.9607,-3.0472,-3.1352,-3.2458,-3.37,-3.0866,-2.8726,-2.7523,0.0,0.0,0.0,0.0,0.0,0.0,0.0,0.0,0.0,0.0,0.0,0.0,0.0,0.0,0.0,0.0,0.0,0.0,0.0,0.0,0.0,0.0,0.0,0.0,0.0,0.0,0.0,0.0,0.0,0.0,0.0,0.0,0.0,0.0,0.0,0.0,0.0,0.0,-2.0751,-2.1524,0.0,0.0,0.0,0.0,0.0,0.0,0.0,0.0,-2.2786,0.0,0.0,0.0,0.0,0.0,0.0,0.0,0.0,0.0,0.0,0.0,0.0,0.0,0.0,0.0,0.0,0.0,0.0,0.0,0.0,0.0,0.0,0.0,0.0,0.0,0.0,0.0,0.0,0.0,0.0,0.0,0.0,0.0,0.0,0.0,0.0,0.0,0.0,0.0,0.0,0.0,0.0,0.0,0.0,0.0,0.0,0.0,0.0,0.0,0.0,0.0,0.0,0.0,0.0,0.0,0.0,-2.7929,-2.9882,-3.1321,-3.2183,-3.3104,-3.3356,-3.2909,-3.1706,-2.9669,-2.6765,0.0,0.0,0.0,0.0,0.0,0.0,0.0,0.0,0.0,0.0,0.0,0.0,0.0,0.0,0.0,0.0,0.0,0.0,0.0,0.0,0.0,0.0,0.0,0.0,0.0,0.0,0.0,0.0,0.0,0.0,0.0,0.0,0.0,0.0,0.0,0.0,0.0,0.0,0.0,-2.2257,-2.2753,0.0,0.0,0.0,0.0,0.0,0.0,0.0,0.0,-2.436,0.0,0.0,0.0,0.0,0.0,0.0,0.0,0.0,0.0,0.0,0.0,0.0,0.0,0.0,0.0,0.0,0.0,0.0,0.0,0.0,0.0,0.0,0.0,0.0,0.0,0.0,0.0,0.0,0.0,0.0,0.0,0.0,0.0,0.0,0.0,0.0,0.0,0.0,0.0,0.0,0.0,0.0,0.0,0.0,0.0,0.0,0.0,0.0,0.0,0.0,0.0,0.0,0.0,0.0,0.0,-2.7459,-2.9988,-3.1911,-3.3157,-3.284,-3.2898,-3.3299,-3.1286,-2.9185,0.0,0.0,0.0,0.0,0.0,0.0,0.0,0.0,0.0,0.0,0.0,0.0,0.0,0.0,0.0,0.0,0.0,0.0,0.0,0.0,0.0,0.0,0.0,0.0,0.0,0.0,0.0,0.0,0.0,0.0,0.0,0.0,0.0,0.0,0.0,0.0,0.0,0.0,0.0,0.0,-2.3065,-2.3733,-2.4183,0.0,0.0,0.0,0.0,0.0,0.0,-2.5098,-2.5091,0.0,0.0,0.0,0.0,0.0,0.0,0.0,0.0,0.0,0.0,0.0,0.0,0.0,0.0,0.0,0.0,0.0,0.0,0.0,0.0,0.0,0.0,0.0,0.0,0.0,0.0,0.0,0.0,0.0,0.0,0.0,0.0,0.0,0.0,0.0,0.0,0.0,0.0,0.0,0.0,0.0,0.0,0.0,0.0,0.0,0.0,0.0,0.0,0.0,0.0,0.0,0.0,0.0,0.0,0.0,-2.6766,-2.9737,-3.22,-3.3902,-3.2653,-3.2577,-3.3872,-3.0846,-2.8707,0.0,0.0,0.0,0.0,0.0,0.0,0.0,0.0,0.0,0.0,0.0,0.0,0.0,0.0,0.0,0.0,0.0,0.0,0.0,0.0,0.0,0.0,0.0,0.0,0.0,0.0,0.0,0.0,0.0,0.0,0.0,0.0,0.0,0.0,0.0,0.0,0.0,0.0,0.0,0.0,0.0,-2.529,-2.5584,-2.5635,0.0,0.0,0.0,0.0,-2.5879,-2.6296,0.0,0.0,0.0,0.0,0.0,0.0,0.0,0.0,0.0,0.0,0.0,0.0,0.0,0.0,0.0,0.0,0.0,0.0,0.0,0.0,0.0,0.0,0.0,0.0,0.0,0.0,0.0,0.0,0.0,0.0,0.0,0.0,0.0,0.0,0.0,0.0,0.0,0.0,0.0,0.0,0.0,0.0,0.0,0.0,0.0,0.0,0.0,0.0,0.0,0.0,0.0,0.0,0.0,0.0,0.0,0.0,-2.8343,-3.0314,-3.2471,-3.475,-3.4058,-3.3745,-3.3956,-3.1427,-2.9306,0.0,0.0,0.0,0.0,0.0,0.0,0.0,0.0,0.0,0.0,0.0,0.0,0.0,0.0,0.0,0.0,0.0,0.0,0.0,0.0,0.0,0.0,0.0,0.0,0.0,0.0,0.0,0.0,0.0,0.0,0.0,0.0,0.0,0.0,0.0,0.0,0.0,0.0,0.0,0.0,0.0,-2.7959,-2.6646,-2.6448,-2.6428,0.0,0.0,-2.7516,-2.7516,-2.9345,0.0,0.0,0.0,0.0,0.0,0.0,0.0,0.0,0.0,0.0,0.0,0.0,0.0,0.0,0.0,0.0,0.0,0.0,0.0,0.0,0.0,0.0,0.0,0.0,0.0,0.0,0.0,0.0,0.0,0.0,0.0,0.0,0.0,0.0,0.0,0.0,0.0,0.0,0.0,0.0,0.0,0.0,0.0,0.0,0.0,0.0,0.0,0.0,0.0,0.0,0.0,0.0,0.0,0.0,0.0,-2.5457,-2.7827,-3.0119,-3.2069,-3.3597,-3.2931,-3.2768,-3.3261,-3.0357,-2.8657,0.0,0.0,0.0,0.0,0.0,0.0,0.0,0.0,0.0,0.0,0.0,0.0,0.0,0.0,0.0,0.0,0.0,0.0,0.0,0.0,0.0,0.0,0.0,0.0,0.0,0.0,0.0,0.0,0.0,0.0,0.0,0.0,0.0,0.0,0.0,0.0,0.0,0.0,0.0,0.0,0.0,0.0,-2.8592,-2.8222,0.0,0.0,0.0,-2.8402,-2.8421,0.0,0.0,0.0,0.0,0.0,0.0,0.0,0.0,0.0,0.0,0.0,0.0,0.0,0.0,0.0,0.0,0.0,0.0,0.0,0.0,0.0,0.0,0.0,0.0,0.0,0.0,0.0,0.0,0.0,0.0,0.0,0.0,0.0,0.0,0.0,0.0,0.0,0.0,0.0,0.0,0.0,0.0,0.0,0.0,0.0,0.0,0.0,0.0,0.0,0.0,0.0,0.0,0.0,0.0,0.0,0.0,0.0,-2.7175,-2.9836,-3.1737,-3.2741,-3.1908,-3.2046,-3.3218,-2.9891,0.0,0.0,0.0,0.0,0.0,0.0,0.0,0.0,0.0,0.0,0.0,0.0,0.0,0.0,0.0,0.0,0.0,0.0,0.0,0.0,0.0,0.0,0.0,0.0,0.0,0.0,0.0,-1.6274,0.0,0.0,0.0,0.0,0.0,0.0,0.0,0.0,0.0,0.0,0.0,0.0,0.0,0.0,-2.9097,-3.0319,-2.9949,-2.9853,0.0,0.0,-2.9624,-2.9815,-3.0751,-3.0682,0.0,0.0,0.0,0.0,0.0,0.0,0.0,0.0,0.0,0.0,0.0,0.0,0.0,0.0,0.0,0.0,0.0,0.0,0.0,0.0,0.0,0.0,0.0,0.0,0.0,0.0,0.0,0.0,0.0,0.0,0.0,0.0,0.0,0.0,0.0,0.0,0.0,0.0,0.0,0.0,0.0,0.0,0.0,0.0,0.0,0.0,0.0,0.0,0.0,0.0,0.0,0.0,0.0,0.0,-2.532,-2.7114,-2.9626,-3.1704,-3.3232,-3.2024,-3.2502,-3.4857,-3.0996,-2.9223,0.0,0.0,0.0,0.0,0.0,0.0,0.0,0.0,0.0,0.0,0.0,0.0,0.0,0.0,0.0,0.0,0.0,0.0,0.0,0.0,0.0,0.0,0.0,0.0,0.0,0.0,0.0,0.0,0.0,0.0,0.0,0.0,0.0,0.0,0.0,0.0,0.0,0.0,0.0,0.0,0.0,-3.1255,-3.1324,-3.1331,-3.1618,0.0,-3.1859,-3.158,-3.2336,-3.3788,-3.3482,-2.9471,0.0,0.0,0.0,0.0,0.0,0.0,0.0,0.0,0.0,0.0,0.0,0.0,0.0,0.0,0.0,0.0,0.0,0.0,0.0,0.0,0.0,0.0,0.0,0.0,0.0,0.0,0.0,0.0,0.0,0.0,0.0,0.0,0.0,0.0,0.0,0.0,0.0,0.0,0.0,0.0,0.0,0.0,0.0,0.0,0.0,0.0,0.0,0.0,0.0,0.0,0.0,0.0,0.0,-2.518,-2.7026,-2.8923,-3.0885,-3.2756,-3.1248,-3.1409,-3.3611,-3.0572,-2.907,0.0,0.0,0.0,0.0,0.0,0.0,0.0,0.0,0.0,0.0,0.0,0.0,0.0,0.0,0.0,0.0,0.0,0.0,0.0,0.0,0.0,0.0,0.0,0.0,0.0,0.0,0.0,0.0,-2.0542,-2.0919,-2.0835,0.0,0.0,0.0,0.0,0.0,0.0,0.0,0.0,0.0,0.0,-3.2604,-3.3597,-3.3757,0.0,0.0,-3.4331,-3.3891,-3.4189,-3.3902,-3.2928,-3.0789,-2.9459,0.0,0.0,0.0,0.0,0.0,0.0,0.0,0.0,0.0,0.0,0.0,0.0,0.0,0.0,0.0,0.0,0.0,0.0,0.0,0.0,0.0,0.0,0.0,0.0,0.0,0.0,0.0,0.0,0.0,0.0,0.0,0.0,0.0,0.0,0.0,0.0,0.0,0.0,0.0,0.0,0.0,0.0,0.0,0.0,0.0,0.0,0.0,0.0,0.0,0.0,0.0,0.0,-2.5121,-2.6488,-2.8971,-3.1059,-3.2675,-3.1495,-3.1528,-3.2792,-3.1032,-2.9768,0.0,0.0,0.0,0.0,0.0,0.0,0.0,0.0,0.0,0.0,0.0,0.0,0.0,0.0,0.0,0.0,0.0,0.0,0.0,0.0,0.0,0.0,0.0,0.0,0.0,0.0,0.0,0.0,-2.1159,-2.1244,-2.1145,0.0,0.0,0.0,0.0,0.0,0.0,0.0,0.0,0.0,0.0,-3.3756,-3.4954,-3.5107,-3.5361,-3.6014,-3.5312,-3.4742,-3.4838,-3.3996,-3.2983,-3.1851,0.0,0.0,0.0,0.0,0.0,0.0,0.0,0.0,0.0,0.0,0.0,0.0,0.0,0.0,0.0,0.0,0.0,0.0,0.0,0.0,0.0,0.0,0.0,0.0,0.0,0.0,0.0,-1.482,0.0,0.0,-1.3873,0.0,0.0,0.0,0.0,0.0,0.0,0.0,0.0,0.0,0.0,0.0,0.0,0.0,0.0,0.0,0.0,0.0,0.0,0.0,0.0,0.0,0.0,-2.5135,-2.5423,-3.0008,-3.2594,-3.301,-3.32,-3.3277,-3.3316,-3.2851,-3.1699,-2.9761,0.0,0.0,0.0,0.0,0.0,0.0,0.0,0.0,0.0,0.0,0.0,0.0,0.0,0.0,0.0,0.0,0.0,0.0,0.0,0.0,0.0,0.0,0.0,0.0,0.0,0.0,-2.0034,-2.0582,-2.101,0.0,0.0,0.0,0.0,0.0,0.0,0.0,0.0,0.0,-2.9383,-3.2572,-3.4784,-3.4908,-3.4936,-3.5115,-3.5302,-3.4438,-3.3796,-3.4119,-3.4485,-3.4273,0.0,0.0,0.0,0.0,0.0,0.0,0.0,0.0,0.0,0.0,0.0,0.0,0.0,0.0,0.0,0.0,0.0,0.0,0.0,0.0,0.0,0.0,0.0,0.0,0.0,0.0,0.0,-1.7711,-1.7077,0.0,0.0,0.0,0.0,0.0,0.0,0.0,0.0,0.0,0.0,0.0,-2.4617,-2.5135,0.0,0.0,0.0,0.0,0.0,0.0,0.0,0.0,0.0,0.0,0.0,0.0,-2.6438,-2.7831,-3.0724,-3.3033,-3.4512,-3.3467,-3.2791,-3.26,-3.1935,-3.0495,-2.8215,0.0,0.0,0.0,0.0,0.0,0.0,0.0,0.0,0.0,0.0,0.0,0.0,0.0,0.0,0.0,0.0,0.0,0.0,0.0,0.0,0.0,0.0,0.0,0.0,0.0,-2.0872,0.0,0.0,0.0,0.0,0.0,0.0,0.0,0.0,0.0,0.0,-2.7205,-2.9397,-3.1686,-3.3496,-3.484,-3.5415,-3.6451,-3.7181,0.0,0.0,0.0,0.0,0.0,0.0,0.0,0.0,0.0,0.0,0.0,0.0,0.0,0.0,-3.3529,-2.9788,-2.8867,-2.8913,-2.9641,0.0,0.0,0.0,0.0,0.0,0.0,0.0,0.0,0.0,0.0,0.0,0.0,0.0,0.0,-2.023,-1.9792,-1.9289,0.0,0.0,0.0,0.0,0.0,0.0,0.0,0.0,-2.5989,-2.7073,-2.7471,-2.8015,-2.8413,-2.863,-2.8395,-2.6675,0.0,0.0,0.0,0.0,0.0,0.0,0.0,0.0,-2.8058,-2.9338,-3.231,-3.4469,-3.5578,-3.4487,-3.35,-3.2786,-3.1432,-3.0068,-2.8661,-2.642,-2.4787,0.0,0.0,0.0,0.0,0.0,0.0,0.0,0.0,0.0,0.0,0.0,0.0,0.0,0.0,0.0,0.0,0.0,0.0,0.0,0.0,0.0,0.0,0.0,-2.0984,0.0,0.0,0.0,0.0,0.0,0.0,0.0,0.0,0.0,-2.7756,-2.951,-3.1663,-3.3906,-3.5018,-3.5829,-3.6414,0.0,0.0,0.0,0.0,0.0,0.0,0.0,-3.5219,-3.626,-3.5063,-3.4562,-3.6365,-3.7475,-3.8155,-3.8284,0.0,0.0,-3.3421,-3.2241,-3.2091,-3.2822,-3.3598,-3.411,-3.3913,-3.4539,-3.4918,0.0,0.0,0.0,0.0,-1.9912,0.0,0.0,0.0,-2.3072,-2.3054,0.0,-2.1479,0.0,0.0,0.0,0.0,-2.2911,-2.628,0.0,0.0,-3.1861,-3.2803,-3.0102,-3.1446,-3.1804,-3.1143,-3.1799,-3.131,-2.9567,-2.5925,0.0,0.0,0.0,0.0,0.0,0.0,-2.9839,-3.0092,-3.4459,-3.663,-3.6135,-3.6138,-3.5395,-3.3784,-3.1501,-3.053,-3.092,-2.7929,-2.6499,-2.7193,-2.2804,0.0,0.0,0.0,0.0,0.0,0.0,0.0,0.0,0.0,0.0,0.0,0.0,0.0,0.0,0.0,0.0,0.0,0.0,0.0,0.0,-2.0775,0.0,0.0,0.0,0.0,0.0,0.0,0.0,0.0,0.0,-3.0857,-2.9509,-3.1897,-3.4383,-3.5967,0.0,0.0,0.0,0.0,-3.7583,-3.7137,-3.6876,-3.6613,-3.6058,-3.6994,-3.7821,-3.7891,0.0,0.0,-3.8946,-3.8854,-3.8927,-3.8872,-3.953,-3.9626,-3.8458,-3.6911,-3.593,-3.5953,-3.659,-3.6873,-3.6482,-3.7026,-3.7361,-2.7121,0.0,0.0,0.0,0.0,-2.453,-2.4862,-2.5325,-2.637,-2.594,-2.4514,-2.4098,0.0,0.0,0.0,0.0,0.0,0.0,-2.7985,-2.9565,-3.0532,-3.1283,-3.1913,-3.2882,-3.3113,-3.2741,-3.294,-3.2234,-3.0654,-2.95,-2.7671,-2.5251,0.0,0.0,0.0,0.0,-3.0654,-3.2379,-3.4298,-3.5214,-3.5072,-3.5633,-3.5224,-3.382,-3.2247,-3.1377,-3.1303,-2.9877,-2.8602,-2.7586,-2.504,0.0,0.0,0.0,0.0,0.0,0.0,0.0,0.0,0.0,0.0,0.0,0.0,0.0,0.0,0.0,0.0,0.0,0.0,0.0,-2.143,-2.2472,-2.3226,0.0,0.0,0.0,0.0,0.0,0.0,0.0,0.0,0.0,-3.4811,-3.5626,-3.6635,0.0,0.0,-3.8162,-3.7484,-3.8477,-3.9182,-3.8936,-3.9418,0.0,-3.9567,-3.891,-3.8847,-3.9958,-4.096,-4.1534,-4.1313,-4.1735,-4.2121,-4.2103,-4.1846,-4.1489,-4.1172,-4.0459,-3.9913,-4.0081,-4.032,-4.0427,-4.0309,-4.0434,-4.0503,-3.117,-2.9956,-2.7158,-2.6402,-2.7081,-2.7379,-2.7791,-2.8403,-2.9301,-2.9089,-2.8116,-2.7551,-2.6424,-2.4946,-2.4813,0.0,0.0,0.0,-3.013,-3.224,-3.2272,-3.2806,-3.3723,-3.4163,-3.4428,-3.4521,-3.4503,-3.4292,-3.3861,-3.3861,-3.2723,-3.0477,0.0,-2.883,-2.8866,-3.0423,-3.1944,-3.3375,-3.4501,-3.5077,-3.508,-3.5566,-3.4951,-3.3237,-3.2728,-3.2318,-3.1925,-3.082,-3.0072,-2.9664,-2.7141,-2.5246,0.0,0.0,0.0,0.0,0.0,0.0,0.0,0.0,0.0,0.0,0.0,-2.1395,-2.0489,0.0,0.0,0.0,-2.1732,-2.2539,-2.3996,-2.4719,0.0,0.0,0.0,0.0,0.0,0.0,0.0,-3.3473,-3.6255,-3.8211,-3.8489,-3.8895,-3.9327,-3.9736,-3.936,-3.9061,-3.9092,0.0,-4.0229,-4.0145,-4.0615,-4.0978,-4.0978,-4.048,-4.0549,-4.1846,-4.2451,-4.2763,-4.2782,-4.3185,-4.3479,-4.3424,-4.3094,-4.2782,-4.2782,-4.2507,-4.2091,-4.1698,-4.1853,-4.1975,-4.1792,-4.2006,-4.2165,-3.3889,-3.3541,-2.9586,-2.8276,-2.8873,-2.9499,-3.0472,-3.1664,-3.1747,-3.21,-3.252,-3.1184,-3.0286,-2.9669,-2.8408,0.0,-3.0812,-3.1968,-3.3196,-3.4572,-3.5745,-3.5885,-3.5176,-3.5194,-3.5539,-3.6114,-3.6167,-3.6862,-3.7993,-3.8118,-3.7792,-3.6904,-3.3317,-3.1433,-3.1473,-3.2777,-3.352,-3.361,-3.4987,-3.5731,-3.5786,-3.5731,-3.4627,-3.2488,-3.2977,-3.3075,-3.2641,-3.098,-3.0815,-3.2243,-2.8933,-2.6733,-2.622,0.0,0.0,0.0,0.0,0.0,0.0,0.0,0.0,0.0,0.0,0.0,0.0,0.0,0.0,0.0,-2.3985,0.0,-2.7675,-2.7372,0.0,0.0,0.0,-3.1122,-3.2698,-3.4845,-3.6471,-3.7214,0.0,0.0,-4.0688,-4.1522,-4.2049,-4.2014,-4.0774,-4.0423,-4.1792,-4.1392,-4.0991,-4.1045,-4.1026,-4.1008,-4.1225,-4.1732,-4.2421,-4.3204,-4.3479,-4.3442,-4.3442,-4.3478,-4.3479,-4.3479,-4.3479,-4.3461,-4.3479,-4.3404,-4.3057,-4.1642,-4.1936,-4.2274,-4.19,-4.2294,-4.263,-3.4634,-3.4551,-3.3508,-3.2884,-3.2514,-3.268,-3.2646,-3.2497,-3.3027,-3.2746,-3.1846,-3.1482,-3.125,-3.1144,-3.1364,-3.2006,-3.305,-3.3334,-3.3651,-3.4007,-3.4309,-3.4221,-3.3888,-3.4434,-3.4906,-3.5297,-3.5901,-3.6576,-3.7305,-3.7901,-3.7792,-3.6995,-3.6035,-3.5276,-3.4679,-3.4443,-3.4624,-3.5225,-3.4989,-3.517,-3.575,-3.5188,-3.4609,-3.403,-3.3031,-3.244,-3.2301,-3.0761,-3.0051,-3.0423,-2.901,-2.7852,-2.7127,-2.4012,0.0,0.0,0.0,0.0,0.0,0.0,0.0,0.0,0.0,-2.2504,-2.0805,0.0,-2.4325,0.0,-2.7011,-2.8846,-2.9393,-3.0339,0.0,0.0,-3.353,-3.4495,-3.6726,-3.752,-3.8161,-3.8869,-4.0393,-4.1413,-4.147,-4.2177,-4.2722,-4.2814,-4.2631,-4.2374,-4.2049,-4.2359,-4.2613,-4.2595,-4.2558,-4.2667,-4.2737,-4.2989,-4.3242,-4.3461,-4.3479,-4.3479,-4.3479,-4.3479,-4.3479,-4.3479,-4.3479,-4.3479,-4.3479,-4.3479,-4.3386,-4.3002,-4.3075,-4.3183,-4.3048,-4.3174,-4.3264,-3.5876,-3.5876,-3.5876,-3.5446,-3.475,-3.4435,-3.4078,-3.3707,-3.4104,-3.3839,-3.3055,-3.3077,-3.3253,-3.3551,-3.3988,-3.4591,-3.5247,-3.5263,-3.5263,-3.5263,-3.4932,-3.4865,-3.5048,-3.5148,-3.5545,-3.6316,-3.7018,-3.7637,-3.8187,-3.9246,-3.9532,-3.9097,-3.9477,-3.9043,-3.7849,-3.6057,-3.5351,-3.5786,-3.5351,-3.517,-3.5276,-3.553,-3.4987,-3.3592,-3.3375,-3.2759,-3.1709,-3.0473,-2.9784,-2.9766,-2.8703,-2.7876,-2.7369,-2.4758,-2.3234,0.0,0.0,0.0,0.0,0.0,0.0,0.0,0.0,0.0,0.0,0.0,-2.6066,-2.7162,-2.9852,-3.1842,-3.2556,-3.3738,-3.5139,-3.6721,-3.6853,-3.7669,-3.9721,-4.0008,-4.0301,-4.1015,-4.1958,-4.2504,-4.2414,-4.2759,-4.305,-4.3142,-4.3215,-4.3069,-4.2614,-4.2887,-4.316,-4.3087,-4.3123,-4.3215,-4.3376,-4.3429,-4.3481,-4.3497,-4.3479,-4.3479,-4.3479,-4.3479,-4.3479,-4.3479,-4.3479,-4.3479,-4.3479,-4.3479,-4.3479,-4.3479,-4.3479,-4.3479,-4.3479,-4.3479,-4.3479,-3.7119,-3.7119,-3.7119,-3.6738,-3.6092,-3.5446,-3.5065,-3.4899,-3.4899,-3.4949,-3.5048,-3.5131,-3.5545,-3.6141,-3.6141,-3.6489,-3.7102,-3.7119,-3.7119,-3.7069,-3.6456,-3.6489,-3.7085,-3.6456,-3.679,-3.8029,-3.8666,-3.9266,-3.9905,-4.1211,-4.1795,-4.1741,-4.2393,-4.1977,-4.0438,-3.7759,-3.6293,-3.6127,-3.6109,-3.5713,-3.495,-3.618,-3.5419,-3.2578,-3.361,-3.3266,-3.1107,-3.0219,-2.9784,-2.9748,-2.8449,-2.7695,-2.7671,-2.5624,-2.4375,0.0,-2.2998,0.0,0.0,0.0,0.0,0.0,0.0,0.0,0.0,-2.7435,-2.8312,-3.0603,-3.29,-3.4839,-3.624,-3.7124,-3.8212,-3.9615,-3.9781,-4.0398,-4.185,-4.2068,-4.2341,-4.3032,-4.3142,-4.3196,-4.3124,-4.316,-4.316,-4.3196,-4.3142,-4.3142,-4.3105,-4.316,-4.3142,-4.2975,-4.3031,-4.3178,-4.3323,-4.3358,-4.3394,-4.3445,-4.348,-4.348,-4.348,-4.3497,-4.3479,-4.3479,-4.3479,-4.3479,-4.3479,-4.3479,-4.3479,-4.3479,-4.3479,-4.3479,-4.3479,-4.3479,-4.3479,-3.7119,-3.7119,-3.7119,-3.7019,-3.6887,-3.6738,-3.5992,-3.4899,-3.4899,-3.5247,-3.5827,-3.6439,-3.6771,-3.6903,-3.6903,-3.6953,-3.7119,-3.7119,-3.7119,-3.7085,-3.697,-3.697,-3.7085,-3.697,-3.7501,-3.8641,-3.9407,-4.0323,-4.1303,-4.221,-4.2339,-4.1723,-4.185,-4.1451,-4.051,0.0,0.0,0.0,-3.7757,-3.7375,-3.6578,-3.62,-3.5113,-3.3248,-3.2832,0.0,-3.1053,-3.0219,-2.9784,-2.9784,-2.9513,0.0,0.0,0.0,0.0,0.0,0.0,0.0,0.0,0.0,0.0,0.0,-2.9096,-2.8413,-2.8455,-3.122,-3.377,-3.5525,-3.7265,-3.8425,-3.8698,-3.944,-4.0291,-4.1288,-4.1343,-4.1724,-4.2796,-4.2941,-4.3014,-4.3068,-4.3142,-4.3123,-4.3013,-4.2957,-4.3031,-4.316,-4.3196,-4.3233,-4.3323,-4.3215,-4.3178,-4.3269,-4.3215,-4.3215,-4.3251,-4.3251,-4.3269,-4.3286,-4.3358,-4.3411,-4.3429,-4.3463,-4.3479,-4.3479,-4.3479,-4.3479,-4.3479,-4.3479,-4.3479,-4.3479,-4.3479,-4.3479,-4.3479,-4.3479,-4.3479,-3.8179,-3.8195,-3.8179,-3.798,0.0,-3.7623,-3.7019,-3.5992,-3.5992,-3.6191,-3.6589,-3.7308,-3.7665,-3.7623,-3.7623,-3.7649,-3.7632,-3.7268,-3.7301,-3.7615,-3.7268,-3.75,-3.8188,-3.8121,-3.8597,-3.9525,-4.0517,-4.1268,-4.1864,-4.2551,-4.2683,-4.2303,-4.2285,-4.2085,-4.1705,-4.1687,-4.0908,-3.9351,-3.9333,-3.8771,-3.7647,-3.7594,-3.6254,-3.3556,-3.3791,0.0,0.0,0.0,0.0,0.0,0.0,0.0,0.0,0.0,0.0,-3.0314,-2.9989,-2.9952,-3.0319,-3.0351,-3.1224,-3.3212,-3.4099,-3.3698,-3.1731,-3.4878,-3.7305,-3.8119,-3.9604,-4.0528,-4.0564,-4.1234,-4.1886,-4.2341,-4.2322,-4.2503,-4.2959,-4.305,-4.3031,-4.3012,-4.3123,-4.316,-4.3087,-4.3123,-4.316,-4.3196,-4.3214,-4.3251,-4.3251,-4.3196,-4.3196,-4.3251,-4.3215,-4.3178,-4.3178,-4.3269,-4.3286,-4.3323,-4.3394,-4.3446,-4.3446,-4.348,-4.3479,-4.3479,-4.3479,-4.3479,-4.3479,-4.3479,-4.3479,-4.3479,-4.3479,-4.3479,-4.3479,-4.3479,-4.3479,-3.9315,-3.9315,-3.9315,-3.8967,-3.8411,-3.8394,-3.8046,-3.75,-3.7367,0.0,0.0,-3.8063,-3.8411,-3.8394,-3.8394,-3.8411,-3.8361,-3.7765,-3.7814,-3.8361,-3.7781,-3.8129,-3.9259,-3.9186,-3.951,-4.0243,-4.1296,-4.1895,-4.2038,-4.2616,-4.2919,-4.2919,-4.2919,-4.2919,-4.2919,-4.2919,-4.2248,-4.0981,-4.0782,-4.0039,-3.8663,-3.8971,-3.754,-3.4117,-3.5041,-3.4573,-3.2506,-3.2415,-3.2035,-3.127,-3.1216,-3.1202,-3.1216,-3.1216,-3.1799,-3.3031,-3.2705,-3.2886,-3.3936,-3.4027,-3.4787,-3.651,-3.859,-3.8699,-3.6037,-3.8282,-3.9858,-4.0003,-4.118,-4.1886,-4.1904,-4.2484,-4.2919,-4.2938,-4.2826,-4.2769,-4.2825,-4.2749,-4.2725,-4.2872,-4.3136,-4.3322,-4.3448,-4.367,-4.3707,-4.3634,-4.3743,-4.3597,-4.3524,-4.3415,-4.3214,-4.3215,-4.3196,-4.3178,-4.3233,-4.3287,-4.3358,-4.334,-4.3429,-4.348,-4.348,-4.3479,-4.3479,-4.3479,-4.3479,-4.3479,-4.3479,-4.3479,-4.3479,-4.3479,-4.3479,-4.3479,-4.3479,-4.3479,-4.3479,-3.9315,-3.9315,-3.9315,-3.9232,-3.9166,-3.9149,-3.9083,-3.895,-3.8311,-3.8063,-3.8112,-3.8808,-3.9149,-3.9149,-3.9166,-3.9149,-3.9149,-3.9033,-3.9067,-3.9149,-3.905,-3.91,-3.9299,-3.9289,-3.9578,-4.0218,-4.092,-4.149,-4.2018,-4.2598,-4.2919,-4.2919,-4.2919,-4.2919,-4.2919,-4.2919,-4.2792,-4.2557,-4.1886,-4.1089,-4.0184,-3.9007,-3.7792,-3.6542,-3.5385,-3.4317,-3.3284,-3.3266,-3.2868,-3.2071,-3.2035,-3.2035,-3.2035,-3.2125,-3.2144,-3.2379,-3.2904,-3.419,-3.6325,-3.6488,-3.7449,-3.9623,-4.0782,-4.1162,-4.0764,-4.1107,-4.1669,-4.2303,-4.2575,-4.2719,-4.2719,-4.2829,-4.2938,-4.2994,-4.2613,-4.2398,-4.2577,-4.2254,-4.2271,-4.2874,-4.3236,-4.3791,-4.4258,-4.4682,-4.4976,-4.5123,-4.4943,-4.5125,-4.491,-4.4163,-4.3468,-4.3359,-4.3359,-4.3359,-4.3414,-4.3287,-4.3269,-4.3233,-4.334,-4.3429,-4.3429,-4.3463,-4.3479,-4.3479,-4.3479,-4.3479,-4.3479,-4.3479,-4.3479,-4.3479,-4.3479,-4.3479,-4.3479,-4.3479,-4.3479,-3.9315,-3.9315,-3.9315,-3.9315,-3.9315,-3.9315,-3.9315,-3.9282,-3.895,-3.8791,-3.8825,-3.9166,-3.9315,-3.9265,-3.8874,-3.8692,-3.8676,-3.8295,-3.8328,-3.8692,-3.8692,-3.8907,-3.9309,-3.9627,-3.9927,-4.0243,-4.1155,-4.1746,-4.2021,-4.2616,-4.2919,-4.2919,-4.2919,-4.2919,-4.2919,-4.2919,-4.2919,-4.2882,-4.2538,-4.1959,-4.1162,-4.0438,-3.9514,-3.8354,-3.754,-3.6816,-3.6037,-3.6417,-3.6272,-3.5476,-3.6254,-3.6526,-3.6127,-3.649,-3.6707,-3.6725,-3.7035,-3.7739,-3.8826,-3.9315,-3.9822,-4.0492,-4.1651,-4.2357,-4.2357,-4.2339,-4.2502,-4.2883,-4.2919,-4.2919,-4.2919,-4.2919,-4.2919,-4.2975,-4.2729,-4.2796,-4.3251,-4.3244,-4.3407,-4.4145,-4.4572,-4.4914,-4.518,-4.5432,-4.5622,-4.5659,-4.562,-4.562,-4.5716,-4.5187,-4.4675,-4.4583,-4.4236,-4.3962,-4.3926,-4.356,-4.3341,-4.3323,-4.3394,-4.3446,-4.3464,-4.3497,-4.3479,-4.3479,-4.3479,-4.3479,-4.3479,-4.3479,-4.3479,-4.3479,-4.3479,-4.3479,-4.3479,-4.3479,-4.3479,-3.9547,-3.9547,-3.9547,-3.9547,-3.9531,-3.9381,-3.9315,-3.9315,-3.9299,-3.9315,-3.9315,-3.9315,-3.9315,-3.9249,-3.8692,-3.846,-3.8377,-3.7847,-3.7914,-3.8411,-3.846,-3.8758,-3.9302,-3.9808,-4.0061,-4.0292,-4.1291,-4.1874,-4.2041,-4.2596,-4.2919,-4.2919,-4.2919,-4.2919,-4.2919,-4.2919,-4.2919,-4.2919,-4.2919,-4.2592,-4.2013,-4.1795,-4.1126,-4.0039,-3.9713,-3.9278,-3.8571,-3.9061,-3.9007,-3.8336,-3.9351,-3.9731,-3.9188,-3.9659,-3.9985,-3.9985,-3.9985,-4.0148,-4.051,-4.1415,-4.1705,-4.1144,-4.2176,-4.2919,-4.2919,-4.2919,-4.2919,-4.2919,-4.2919,-4.2919,-4.2919,-4.2919,-4.2863,-4.2768,-4.2833,-4.2999,-4.3555,-4.3824,-4.4317,-4.5119,-4.5506,-4.5718,-4.6058,-4.6265,-4.6376,-4.6356,-4.6227,-4.6227,-4.6302,-4.6358,-4.6303,-4.6045,-4.5387,-4.4803,-4.4711,-4.4364,-4.3997,-4.3777,-4.3757,-4.3719,-4.3626,-4.3479,-4.3479,-4.3479,-4.3479,-4.3479,-4.3479,-4.3479,-4.3479,-4.3479,-4.3479,-4.3479,-4.3479,-4.3479,-4.3479,-4.0293,-4.031,-4.0293,-4.0293,-4.0243,-3.963,-3.9365,-3.9348,-3.9315,-3.9315,-3.9348,-3.9315,-3.9315,-3.9299,-3.9216,-3.9166,-3.9166,-3.9133,-3.9116,-3.9166,-3.9199,-3.9249,-3.9299,-3.9379,-3.967,-4.0218,-4.0938,-4.1547,-4.2,-4.2616,-4.2919,-4.2919,-4.2919,-4.2919,-4.2919,-4.2919,-4.2919,-4.2919,-4.2919,-4.2865,-4.2755,-4.2067,-4.1632,-4.1488,-4.0764,-4.0075,-3.9369,-3.9368,-3.906,-3.8299,-3.8444,-3.8462,-3.8426,-3.8444,-3.848,-3.8518,-3.85,-3.8989,-4.0438,-4.1922,-4.272,-4.2683,-4.2774,-4.2919,-4.2919,-4.2919,-4.2919,-4.2919,-4.2919,-4.2919,-4.2919,-4.2937,-4.284,-4.2544,-4.2753,-4.2682,-4.2683,-4.2652,-4.3395,-4.4541,-4.5336,-4.5703,-4.684,-4.7332,-4.7622,-4.7577,-4.7599,-4.7675,-4.7731,-4.7771,-4.7809,-4.7662,-4.6782,-4.5902,-4.5737,-4.5718,-4.5223,-4.4709,-4.4581,-4.436,-4.3975,-4.3663,-4.3497,-4.3736,-4.3497,-4.3497,-4.3479,-4.3479,-4.3479,-4.3479,-4.3479,-4.3479,-4.3479,-4.3479,-4.3479,-4.0994,-4.0994,-4.0978,-4.0978,-4.0945,-4.0663,-4.0531,-4.0514,-4.0111,-3.9962,-3.9895,-3.9497,-3.9315,-3.9315,-3.9315,-3.9315,-3.9315,-3.9315,-3.9315,-3.9315,-3.9315,-3.9315,-3.9315,-3.9315,-3.9618,-4.0262,-4.1283,-4.188,-4.2071,-4.2616,-4.2919,-4.2919,-4.2919,-4.2919,-4.2919,-4.2919,-4.2919,-4.2919,-4.2919,-4.2919,-4.2864,-4.2574,-4.2411,-4.2339,-4.1632,-4.1071,-4.08,-4.0763,-4.06,-4.0329,-4.0727,-4.0963,-4.0963,-4.0981,-4.0999,-4.0981,-4.0981,-4.1252,-4.1886,-4.2538,-4.2919,-4.2919,-4.2919,-4.2919,-4.2919,-4.2919,-4.2919,-4.2919,-4.2919,-4.2919,-4.2936,-4.3299,-4.3549,-4.3444,-4.3896,-4.4357,-4.4688,-4.4916,-4.5503,-4.6466,-4.6827,-4.7105,-4.7661,-4.7949,-4.8087,-4.8128,-4.8207,-4.8265,-4.8285,-4.8286,-4.8305,-4.8233,-4.7682,-4.7168,-4.6728,-4.6159,-4.581,-4.5535,-4.5424,-4.5186,-4.4947,-4.4433,-4.4213,-4.4213,-4.3846,-4.3571,-4.3479,-4.3479,-4.3479,-4.3479,-4.3479,-4.3479,-4.3479,-4.3479,-4.3479,-4.1695,-4.1662,-4.148,-4.1496,-4.1662,-4.1463,-4.1397,-4.1359,-4.0878,-4.0663,-4.0597,-4.01,-3.9879,-3.9862,-3.9696,-3.9514,-3.9348,-3.9514,-3.9481,-3.9365,-3.9497,-3.9597,-3.9613,-3.9812,-4.0194,-4.0908,-4.2026,-4.2708,-4.29,-4.3322,-4.3444,-4.3281,-4.3245,-4.3118,-4.2937,-4.2919,-4.2919,-4.2919,-4.2919,-4.2919,-4.2919,-4.2919,-4.2919,-4.2846,-4.2339,-4.2031,-4.2031,-4.2031,-4.2012,-4.2049,-4.2592,-4.2919,-4.2919,-4.2919,-4.2919,-4.2919,-4.2919,-4.2919,-4.2919,-4.2919,-4.2919,-4.2919,-4.2919,-4.2919,-4.2919,-4.2938,-4.3084,-4.3301,-4.3284,-4.3339,-4.3356,-4.397,-4.4366,-4.4359,-4.4989,-4.5647,-4.5777,-4.6277,-4.6801,-4.7515,-4.7473,-4.799,-4.8108,-4.8168,-4.8206,-4.8226,-4.8267,-4.8324,-4.8324,-4.8324,-4.8324,-4.8324,-4.8288,-4.8067,-4.7498,-4.7095,-4.6562,-4.625,-4.6232,-4.614,-4.5975,-4.5314,-4.5039,-4.4966,-4.4287,-4.3883,-4.392,-4.3828,-4.3571,-4.3516,-4.3516,-4.3534,-4.3479,-4.3479,-4.3479,-4.244,-4.234,-4.1723,-4.1844,-4.239,-4.1761,-4.1475,-4.1529,-4.1409,-4.1347,-4.1375,-4.1276,-4.1293,-4.121,-4.063,-3.9995,-3.9497,-4.0078,-4.0028,-3.9547,-4.0061,-4.0359,-4.0409,-4.0994,-4.1604,-4.2132,-4.2871,-4.386,-4.4949,-4.509,-4.4802,-4.4059,-4.4041,-4.3661,-4.31,-4.3064,-4.2937,-4.2937,-4.2973,-4.2937,-4.2919,-4.2919,-4.2919,-4.2901,-4.2846,-4.2792,-4.281,-4.2847,-4.281,-4.281,-4.2865,-4.2919,-4.2919,-4.2919,-4.2919,-4.2919,-4.2919,-4.2919,-4.2919,-4.2919,-4.2919,-4.2919,-4.2919,-4.2919,-4.2919,-4.3066,-4.343,-4.4122,-4.4288,-4.438,-4.4395,-4.4841,-4.508,-4.489,-4.543,-4.548,-4.4768,-4.6023,-4.6495,-4.6776,-4.7133,-4.7542,-4.7972,-4.8148,-4.8226,-4.8267,-4.8287,-4.8324,-4.8324,-4.8324,-4.8324,-4.8324,-4.8324,-4.8288,-4.8213,-4.7902,-4.7627,-4.7314,-4.6984,-4.6856,-4.6287,-4.5847,-4.5847,-4.5681,-4.5094,-4.469,-4.4525,-4.425,-4.3901,-4.3754,-4.3736,-4.3699,-4.3791,-4.3571,-4.3497,-4.3184,-4.3168,-4.292,-4.2969,-4.3151,-4.2903,-4.2804,-4.2754,-4.2319,-4.2092,-4.1993,-4.1595,-4.1397,-4.1397,-4.1657,-4.1359,-4.0696,-4.0928,-4.0895,-4.068,-4.0928,-4.1044,-4.1077,-4.1309,-4.1755,-4.2419,-4.3168,-4.4182,-4.5297,-4.5343,-4.5164,-4.4947,-4.4856,-4.4458,-4.3878,-4.4186,-4.3951,-4.3063,-4.339,-4.3445,-4.301,-4.2919,-4.2919,-4.2919,-4.2919,-4.2919,-4.2919,-4.2919,-4.2919,-4.2919,-4.2919,-4.2919,-4.2919,-4.2919,-4.2919,-4.2919,-4.2919,-4.2919,-4.2919,-4.2919,-4.2919,-4.2919,-4.2919,-4.2937,-4.301,-4.3391,-4.3883,-4.4376,-4.536,-4.5873,-4.5967,-4.5929,-4.5786,-4.571,-4.6038,-4.6344,-4.6374,-4.6743,-4.7191,-4.75,-4.7728,-4.7891,-4.803,-4.8168,-4.8207,-4.8246,-4.8286,-4.8287,-4.8324,-4.8324,-4.8324,-4.8324,-4.8324,-4.8324,-4.8324,-4.8306,-4.8177,-4.8031,-4.7847,-4.7773,-4.7407,-4.6838,-4.6709,-4.6562,-4.5993,-4.5461,-4.5278,-4.5149,-4.4727,-4.4727,-4.4654,-4.4287,-4.4268,-4.4121,-4.3791,-4.3234,-4.3218,-4.2969,-4.3019,-4.3234,-4.3251,-4.3367,-4.3515,-4.3069,-4.2837,-4.2738,-4.2307,-4.2092,-4.2175,-4.2622,-4.2605,-4.2092,-4.186,-4.164,-4.143,-4.1674,-4.1744,-4.1823,-4.2021,-4.2332,-4.284,-4.3545,-4.4706,-4.6007,-4.5911,-4.574,-4.5687,-4.5689,-4.5273,-4.4711,-4.5055,-4.4711,-4.3951,-4.4222,-4.4186,-4.3734,-4.3679,-4.3661,-4.3661,-4.368,-4.3408,-4.2955,-4.2919,-4.2919,-4.2919,-4.2919,-4.2919,-4.2919,-4.2919,-4.2919,-4.2937,-4.3136,-4.3155,-4.2992,-4.3137,-4.3191,-4.2955,-4.3155,-4.33,-4.3354,-4.4062,-4.4646,-4.5231,-4.6018,-4.6917,-4.7135,-4.6871,-4.6624,-4.6759,-4.6934,-4.7084,-4.7244,-4.7396,-4.7705,-4.799,-4.807,-4.811,-4.8187,-4.8187,-4.8189,-4.8208,-4.8286,-4.8305,-4.8324,-4.8324,-4.8324,-4.8324,-4.8324,-4.8324,-4.8324,-4.8324,-4.8324,-4.8214,-4.8159,-4.8269,-4.8233,-4.7718,-4.7424,-4.7296,-4.6948,-4.6361,-4.6049,-4.5957,-4.592,-4.592,-4.5553,-4.5094,-4.4947,-4.4727,-4.4433,-4.2555,-4.2522,-4.1773,-4.2059,-4.2655,-4.2704,-4.2986,-4.3515,-4.3482,-4.335,-4.3267,-4.3367,-4.3102,-4.335,-4.3135,-4.3383,-4.3085,-4.2601,-4.2137,-4.1695,-4.2237,-4.2506,-4.2539,-4.3102,-4.3396,-4.3543,-4.4255,-4.5594,-4.7198,-4.6852,-4.6617,-4.653,-4.6522,-4.6106,-4.5309,-4.5454,-4.5399,-4.5164,-4.52,-4.5254,-4.5273,-4.511,-4.5055,-4.5128,-4.511,-4.4458,-4.3118,-4.301,-4.2992,-4.2919,-4.2919,-4.2919,-4.2991,-4.3081,-4.3009,-4.3226,-4.3715,-4.3679,-4.3155,-4.3679,-4.3771,-4.3281,-4.3661,-4.4095,-4.4224,-4.4917,-4.572,-4.6323,-4.6805,-4.7269,-4.7773,-4.7684,-4.7604,-4.8052,-4.7793,-4.7545,-4.7424,-4.7692,-4.7992,-4.805,-4.8052,-4.8052,-4.8149,-4.8189,-4.8228,-4.8267,-4.8287,-4.8324,-4.8324,-4.8324,-4.8324,-4.8324,-4.8324,-4.8324,-4.8324,-4.8324,-4.8324,-4.8306,-4.8288,-4.8324,-4.8324,-4.8012,-4.7976,-4.7847,-4.759,-4.704,-4.6764,-4.6654,-4.6526,-4.6452,-4.6104,-4.5938,-4.5773,-4.5571,-4.5223,-4.3251,-4.3234,-4.3002,-4.3035,-4.3234,-4.3251,-4.34,-4.3515,-4.3085,-4.2837,-4.2738,-4.2307,-4.2075,-4.2092,-4.2075,-4.2121,-4.2137,-4.2456,-4.2754,-4.2883,-4.3118,-4.3218,-4.3284,-4.3482,-4.3615,-4.3802,-4.4804,-4.5656,-4.6382,-4.7039,-4.737,-4.7331,-4.7319,-4.6902,-4.6196,-4.6613,-4.6504,-4.5472,-4.5852,-4.587,-4.5363,-4.5309,-4.5309,-4.5291,-4.5291,-4.5019,-4.4566,-4.4023,-4.3462,-4.2992,-4.2919,-4.3137,-4.3679,-4.424,-4.453,-4.4584,-4.4765,-4.4566,-4.3951,-4.4421,-4.4566,-4.4059,-4.4476,-4.4874,-4.5001,-4.5691,-4.6313,-4.6755,-4.7236,-4.7749,-4.7937,-4.803,-4.7949,-4.7726,-4.7436,-4.7417,-4.7548,-4.7897,-4.817,-4.8209,-4.8209,-4.8229,-4.8248,-4.8248,-4.8286,-4.8287,-4.8324,-4.8324,-4.8324,-4.8324,-4.8324,-4.8324,-4.8324,-4.8324,-4.8324,-4.8324,-4.8324,-4.8324,-4.8324,-4.8324,-4.8324,-4.8324,-4.8324,-4.8251,-4.7994,-4.7774,-4.7517,-4.737,-4.7241,-4.7186,-4.7076,-4.6911,-4.6728,-4.6434,-4.6104,-4.3184,-4.3168,-4.2886,-4.2936,-4.3168,-4.3184,-4.335,-4.3499,-4.3118,-4.2903,-4.2771,-4.2142,-4.1823,-4.1773,-4.1631,-4.1498,-4.1576,-4.2171,-4.2591,-4.3003,-4.3555,-4.3641,-4.3645,-4.3615,-4.3977,-4.4384,-4.4993,-4.5707,-4.6472,-4.6999,-4.7428,-4.7657,-4.7699,-4.7464,-4.7011,-4.7409,-4.712,-4.6377,-4.6703,-4.6703,-4.6305,-4.6196,-4.6196,-4.6196,-4.6196,-4.6051,-4.5743,-4.5236,-4.4621,-4.3951,-4.3769,-4.4041,-4.4548,-4.5001,-4.5291,-4.5345,-4.5526,-4.5381,-4.4747,-4.5291,-4.5399,-4.4874,-4.5273,-4.5725,-4.5888,-4.6486,-4.698,-4.7166,-4.7554,-4.7902,-4.7909,-4.8012,-4.7949,-4.7699,-4.7582,-4.7545,-4.7856,-4.8094,-4.8066,-4.7993,-4.8085,-4.8122,-4.7957,-4.8196,-4.8288,-4.8324,-4.8324,-4.8324,-4.8324,-4.8324,-4.8324,-4.8324,-4.8324,-4.8324,-4.8324,-4.8324,-4.8324,-4.8324,-4.8324,-4.8324,-4.8324,-4.8324,-4.8324,-4.8324,-4.8141,-4.8122,-4.7902,-4.8012,-4.7976,-4.7957,-4.7828,-4.7718,-4.7498,-4.7333,-4.7021,-4.2555,-4.2485,-4.1827,-4.2121,-4.2638,-4.2688,-4.3052,-4.3515,-4.3449,-4.3396,-4.328,-4.2481,-4.2216,-4.2211,-4.1577,-4.1333,-4.1583,-4.1627,-4.1694,-4.2054,-4.2903,-4.3543,-4.3595,-4.3615,-4.4145,-4.4993,-4.4922,-4.5715,-4.7062,-4.7022,-4.7084,-4.7657,-4.7699,-4.7699,-4.7609,-4.7699,-4.7663,-4.75,-4.7609,-4.7572,-4.7554,-4.7591,-4.7591,-4.7554,-4.7518,-4.721,-4.6649,-4.6468,-4.6069,-4.5399,-4.5182,-4.5273,-4.5363,-4.5399,-4.5599,-4.5689,-4.6196,-4.6051,-4.5743,-4.6124,-4.6214,-4.5562,-4.6087,-4.6558,-4.6667,-4.7156,-4.7554,-4.7593,-4.7765,-4.784,-4.7801,-4.7868,-4.7929,-4.7984,-4.801,-4.817,-4.8267,-4.8287,-4.8048,-4.7626,-4.7829,-4.8067,-4.7498,-4.7976,-4.8233,-4.8324,-4.8324,-4.8324,-4.8324,-4.8324,-4.8324,-4.8324,-4.8324,-4.8324,-4.8324,-4.8324,-4.8324,-4.8324,-4.8324,-4.8324,-4.8324,-4.8324,-4.8324,-4.8324,-4.8324,-4.8324,-4.8324,-4.8324,-4.8324,-4.8177,-4.8177,-4.8306,-4.8177,-4.7902,-4.7719,-4.33,-4.3284,-4.3085,-4.3118,-4.3284,-4.33,-4.34,-4.3515,-4.3019,-4.302,-4.2762,-4.166,-4.1316,-4.1176,-4.0585,-4.021,-4.0438,-4.0903,-4.1057,-4.1061,-4.1927,-4.2915,-4.3475,-4.3582,-4.3798,-4.4277,-4.5014,-4.5681,-4.6286,-4.7062,-4.749,-4.7678,-4.7699,-4.7699,-4.7699,-4.7699,-4.7699,-4.7699,-4.7699,-4.7699,-4.7699,-4.7699,-4.7699,-4.7699,-4.7699,-4.7591,-4.7391,-4.7391,-4.6703,-4.549,-4.5888,-4.6196,-4.6232,-4.6667,-4.692,-4.6993,-4.7156,-4.7029,-4.6522,-4.6902,-4.6957,-4.6377,-4.6884,-4.7391,-4.7391,-4.7572,-4.7699,-4.7699,-4.7738,-4.7738,-4.772,-4.7806,-4.7947,-4.8088,-4.8132,-4.8192,-4.8287,-4.8306,-4.8214,-4.8048,-4.8141,-4.8122,-4.8012,-4.8104,-4.8306,-4.8324,-4.8324,-4.8324,-4.8324,-4.8324,-4.8324,-4.8324,-4.8324,-4.8324,-4.8324,-4.8324,-4.8324,-4.8324,-4.8324,-4.8324,-4.8324,-4.8324,-4.8324,-4.8324,-4.8324,-4.8324,-4.8324,-4.8324,-4.8324,-4.8324,-4.8324,-4.8324,-4.8324,-4.8159,-4.8122,-4.3615,-4.3615,-4.3615,-4.3615,-4.3628,-4.3687,-4.3734,-4.3651,-4.3373,-4.3215,-4.3051,-4.2161,-4.147,-4.1218,-4.0577,-4.0066,-3.9882,-4.0296,-4.0445,-4.0438,-4.1053,-4.1821,-4.2539,-4.2915,-4.3401,-4.4099,-4.5103,-4.5921,-4.6589,-4.7363,-4.7657,-4.7699,-4.7699,-4.7699,-4.7699,-4.7699,-4.7699,-4.7699,-4.7699,-4.7699,-4.7699,-4.7699,-4.7699,-4.7699,-4.7699,-4.7699,-4.7699,-4.7699,-4.721,-4.6595,-4.6757,-4.7011,-4.7026,-4.7428,-4.7699,-4.7699,-4.7699,-4.7443,-4.721,-4.7461,-4.7464,-4.7174,-4.7518,-4.7645,-4.7681,-4.7699,-4.7699,-4.7699,-4.7699,-4.7699,-4.7645,-4.7529,-4.7636,-4.7941,-4.7875,-4.7879,-4.8232,-4.7975,-4.7847,-4.7865,-4.8067,-4.8141,-4.7901,-4.8067,-4.8269,-4.8324,-4.8324,-4.8324,-4.8324,-4.8324,-4.8324,-4.8324,-4.8324,-4.8324,-4.8324,-4.8324,-4.8324,-4.8324,-4.8324,-4.8324,-4.8324,-4.8324,-4.8324,-4.8324,-4.8324,-4.8324,-4.8324,-4.8324,-4.8324,-4.8324,-4.8324,-4.8324,-4.8324,-4.8324,-4.8324,-4.3628,-4.3628,-4.3628,-4.3611,-4.3687,-4.3852,-4.3927,-4.3939,-4.396,-4.403,-4.3875,-4.3305,-4.2462,-4.1925,-4.118,-4.06,-3.9926,-4.0019,-3.9951,-4.004,-4.0361,-4.0839,-4.1416,-4.2233,-4.3045,-4.4068,-4.5029,-4.6078,-4.6895,-4.7424,-4.7717,-4.7699,-4.7699,-4.7699,-4.7699,-4.7699,-4.7699,-4.7699,-4.7699,-4.7699,-4.7699,-4.7699,-4.7699,-4.7699,-4.7699,-4.7699,-4.7699,-4.7699,-4.7609,-4.7681,-4.7699,-4.7645,-4.7663,-4.7699,-4.7699,-4.7699,-4.7699,-4.7681,-4.7642,-4.7645,-4.7699,-4.7627,-4.7645,-4.7699,-4.7699,-4.7699,-4.7699,-4.7699,-4.7699,-4.7627,-4.7451,-4.7062,-4.7165,-4.7594,-4.7344,-4.7476,-4.7937,-4.7663,-4.7223,-4.7241,-4.792,-4.7865,-4.77,-4.7791,-4.8324,-4.8324,-4.8324,-4.8324,-4.8324,-4.8324,-4.8324,-4.8324,-4.8324,-4.8324,-4.8324,-4.8324,-4.8324,-4.8324,-4.8324,-4.8324,-4.8324,-4.8324,-4.8324,-4.8324,-4.8324,-4.8324,-4.8324,-4.8324,-4.8324,-4.8324,-4.8324,-4.8324,-4.8324,-4.8324,-4.8324,-4.3687,-4.3839,-4.3822,-4.391,-4.3981,-4.4039,-4.4039,-4.4039,-4.4114,-4.4184,-4.4056,-4.348,-4.2829,-4.2179,-4.1565,-4.0755,-4.0206,-4.0138,-3.9961,-3.9763,-3.9723,-3.9998,-4.0669,-4.1689,-4.2525,-4.3346,-4.473,-4.5632,-4.6181,-4.7111,-4.7699,-4.7663,-4.7681,-4.7699,-4.7699,-4.7699,-4.7699,-4.7699,-4.7699,-4.7699,-4.7699,-4.7699,-4.7699,-4.7699,-4.7699,-4.7699,-4.7699,-4.7699,-4.7699,-4.7699,-4.7699,-4.7699,-4.7699,-4.7699,-4.7699,-4.7699,-4.7699,-4.7699,-4.7699,-4.7699,-4.7699,-4.7699,-4.7699,-4.7699,-4.7699,-4.7663,-4.7681,-4.7699,-4.7699,-4.734,-4.7041,-4.6852,-4.7007,-4.7214,-4.7256,-4.7406,-4.8048,-4.8103,-4.7901,-4.8012,-4.8122,-4.8213,-4.8048,-4.8067,-4.8324,-4.8324,-4.8324,-4.8324,-4.8324,-4.8324,-4.8324,-4.8324,-4.8324,-4.8324,-4.8324,-4.8324,-4.8324,-4.8324,-4.8324,-4.8324,-4.8324,-4.8324,-4.8324,-4.8324,-4.8324,-4.8324,-4.8324,-4.8324,-4.8324,-4.8324,-4.8324,-4.8324,-4.8324,-4.8324,-4.8324,-4.3852,-4.3998,-4.3998,-4.4027,-4.4114,-4.4167,-4.4196,-4.4212,-4.4315,-4.4355,-4.4373,-4.4002,-4.3483,-4.2828,-4.2405,-4.1847,-4.1153,-4.0747,-4.0509,-4.026,-3.9955,-3.9807,-4.0054,-4.1077,-4.1891,-4.2797,-4.4121,-4.4939,-4.5626,-4.648,-4.7102,-4.721,-4.7461,-4.7699,-4.7699,-4.7663,-4.7699,-4.7699,-4.7699,-4.7699,-4.7699,-4.7699,-4.7699,-4.7699,-4.7699,-4.7699,-4.7699,-4.7699,-4.7699,-4.7699,-4.7699,-4.7699,-4.7699,-4.7699,-4.7699,-4.7699,-4.7699,-4.7699,-4.7699,-4.7699,-4.7699,-4.7699,-4.7699,-4.7699,-4.7572,-4.7409,-4.7156,-4.7047,-4.6812,-4.6509,-4.6648,-4.6387,-4.663,-4.7364,-4.7276,-4.748,-4.803,-4.7975,-4.792,-4.8159,-4.8288,-4.8306,-4.8306,-4.8324,-4.8324,-4.8324,-4.8324,-4.8324,-4.8324,-4.8324,-4.8324,-4.8324,-4.8324,-4.8324,-4.8324,-4.8324,-4.8324,-4.8324,-4.8324,-4.8324,-4.8324,-4.8324,-4.8324,-4.8324,-4.8324,-4.8324,-4.8324,-4.8324,-4.8324,-4.8324,-4.8324,-4.8324,-4.8324,-4.8324,-4.8324,-4.4015,-4.4126,-4.4126,-4.4155,-4.4184,-4.4298,-4.4355,-4.4384,-4.4542,-4.457,-4.4598,-4.4598,-4.4045,-4.3477,-4.3308,-4.2963,-4.2252,-4.1659,-4.1242,-4.1079,-4.043,-4.0255,-4.0358,-4.0774,-4.1545,-4.2978,-4.373,-4.4387,-4.5102,-4.587,-4.6305,-4.6432,-4.692,-4.7047,-4.7228,-4.7319,-4.7138,-4.7083,-4.7065,-4.7265,-4.7391,-4.7446,-4.7482,-4.7699,-4.7699,-4.7699,-4.7699,-4.7699,-4.7699,-4.7699,-4.7699,-4.7699,-4.7699,-4.7699,-4.7699,-4.7699,-4.7699,-4.7699,-4.7699,-4.7699,-4.7699,-4.7699,-4.7536,-4.75,-4.7337,-4.6975,-4.6721,-4.6432,-4.6235,-4.6134,-4.6579,-4.6481,-4.6815,-4.7512,-4.7478,-4.7663,-4.7976,-4.7663,-4.7828,-4.8122,-4.8324,-4.8324,-4.8324,-4.8324,-4.8324,-4.8324,-4.8324,-4.8324,-4.8324,-4.8324,-4.8324,-4.8324,-4.8324,-4.8324,-4.8324,-4.8324,-4.8324,-4.8324,-4.8324,-4.8324,-4.8324,-4.8324,-4.8324,-4.8324,-4.8324,-4.8324,-4.8324,-4.8324,-4.8324,-4.8324,-4.8324,-4.8324,-4.8324,-4.8324,-4.8324,-4.4056,-4.4253,-4.4281,-4.4355,-4.4485,-4.4542,-4.4525,-4.4542,-4.457,-4.4598,-4.4598,-4.4581,-4.4164,-4.3623,-4.3409,-4.3014,-4.253,-4.2156,-4.1974,-4.1812,-4.1233,-4.0949,-4.1188,-4.1011,-4.1487,-4.2289,-4.3158,-4.3896,-4.4381,-4.5073,-4.5454,-4.5526,-4.5743,-4.5852,-4.5888,-4.5725,-4.5943,-4.6015,-4.5997,-4.6214,-4.6576,-4.6739,-4.6957,-4.7373,-4.7409,-4.7518,-4.7645,-4.7681,-4.7699,-4.7699,-4.7699,-4.7699,-4.7627,-4.7627,-4.7645,-4.7699,-4.7699,-4.7699,-4.7591,-4.7627,-4.7681,-4.7554,-4.7156,-4.6794,-4.6721,-4.6613,-4.6468,-4.6379,-4.6424,-4.6542,-4.6903,-4.676,-4.689,-4.7368,-4.7791,-4.8067,-4.8214,-4.8159,-4.8012,-4.8288,-4.8324,-4.8324,-4.8324,-4.8324,-4.8324,-4.8324,-4.8324,-4.8324,-4.8324,-4.8324,-4.8324,-4.8324,-4.8324,-4.8324,-4.8324,-4.8324,-4.8324,-4.8324,-4.8324,-4.8324,-4.8324,-4.8324,-4.8324,-4.8324,-4.8324,-4.8324,-4.8324,-4.8324,-4.8324,-4.8324,-4.8324,-4.8324,-4.8324,-4.8324,-4.8324,-4.4241,-4.4457,-4.4457,-4.4514,-4.457,-4.4598,-4.4598,-4.4598,-4.4598,-4.4598,-4.4598,-4.4581,-4.4384,-4.4079,-4.4028,-4.3775,-4.3443,-4.2932,-4.2804,-4.2618,-4.2071,-4.1771,-4.1997,-4.1673,-4.1931,-4.2514,-4.3209,-4.3507,-4.3549,-4.4295,-4.4639,-4.4784,-4.5037,-4.5291,-4.5291,-4.5363,-4.5254,-4.5254,-4.5273,-4.5436,-4.5834,-4.5888,-4.6178,-4.6359,-4.654,-4.6667,-4.7047,-4.7083,-4.7301,-4.7609,-4.7699,-4.7464,-4.721,-4.712,-4.7283,-4.7572,-4.7645,-4.7464,-4.7174,-4.7065,-4.6884,-4.6504,-4.6413,-4.6504,-4.6504,-4.6504,-4.6359,-4.6074,-4.6066,-4.6366,-4.6829,-4.7017,-4.7258,-4.77,-4.8086,-4.8269,-4.8324,-4.8324,-4.8324,-4.8324,-4.8324,-4.8324,-4.8324,-4.8324,-4.8324,-4.8324,-4.8324,-4.8324,-4.8324,-4.8324,-4.8324,-4.8324,-4.8324,-4.8324,-4.8324,-4.8324,-4.8324,-4.8324,-4.8324,-4.8324,-4.8324,-4.8324,-4.8324,-4.8324,-4.8324,-4.8324,-4.8324,-4.8324,-4.8324,-4.8324,-4.8324,-4.8324,-4.8324,-4.8324,-4.8324,-4.4412,-4.4598,-4.4598,-4.4598,-4.4598,-4.4598,-4.4598,-4.4598,-4.4598,-4.4598,-4.4598,-4.4598,-4.4598,-4.4581,-4.4564,-4.4547,-4.4547,-4.3859,-4.3663,-4.3477,-4.2878,-4.2523,-4.2516,-4.2516,-4.259,-4.298,-4.3593,-4.3568,-4.3236,-4.3806,-4.3987,-4.4005,-4.4548,-4.4802,-4.4675,-4.4548,-4.482,-4.482,-4.4802,-4.4838,-4.5037,-4.5218,-4.5291,-4.5291,-4.5291,-4.5689,-4.6196,-4.6269,-4.6522,-4.6884,-4.7029,-4.6884,-4.6395,-4.6269,-4.6649,-4.7265,-4.7319,-4.6848,-4.6522,-4.654,-4.6413,-4.6033,-4.6232,-4.6432,-4.6504,-4.6486,-4.6361,-4.5932,-4.6106,-4.6554,-4.7196,-4.7294,-4.7626,-4.8012,-4.8251,-4.8324,-4.8324,-4.8324,-4.8324,-4.8324,-4.8324,-4.8324,-4.8324,-4.8324,-4.8324,-4.8324,-4.8324,-4.8324,-4.8324,-4.8324,-4.8324,-4.8324,-4.8324,-4.8324,-4.8324,-4.8324,-4.8324,-4.8324,-4.8324,-4.8324,-4.8324,-4.8324,-4.8324,-4.8324,-4.8324,-4.8324,-4.8324,-4.8324,-4.8324,-4.8324,-4.8324,-4.8324,-4.8324,-4.8324,-4.8324,-4.4315,-4.4598,-4.4598,-4.4598,-4.4598,-4.4598,-4.4598,-4.4598,-4.4598,-4.4598,-4.4598,-4.4598,-4.4598,-4.4598,-4.4598,-4.4598,-4.4547,-4.4479,-4.4327,-4.4192,-4.3623,-4.3295,-4.3274,-4.3066,-4.3398,-4.381,-4.4343,-4.3832,-4.351,-4.3914,-4.3806,-4.3553,-4.357,-4.3317,-4.386,-4.3932,-4.319,-4.3281,-4.3336,-4.3644,-4.4258,-4.4856,-4.5073,-4.5146,-4.5146,-4.5218,-4.5381,-4.5454,-4.5599,-4.5689,-4.5689,-4.558,-4.5454,-4.5436,-4.5888,-4.616,-4.6051,-4.5562,-4.5707,-4.616,-4.6377,-4.6124,-4.6377,-4.6486,-4.6631,-4.6685,-4.6894,-4.7715,-4.7627,-4.7614,-4.7823,-4.8047,-4.8214,-4.8251,-4.8324,-4.8324,-4.8324,-4.8324,-4.8324,-4.8324,-4.8324,-4.8324,-4.8324,-4.8324,-4.8324,-4.8324,-4.8324,-4.8324,-4.8324,-4.8324,-4.8324,-4.8324,-4.8324,-4.8324,-4.8324,-4.8324,-4.8324,-4.8324,-4.8324,-4.8324,-4.8324,-4.8324,-4.8324,-4.8324,-4.8324,-4.8324,-4.8324,-4.8324,-4.8324,-4.8324,-4.8324,-4.8324,-4.8324,-4.8324,-4.8324,-4.4355,-4.4598,-4.4598,-4.4598,-4.4598,-4.4598,-4.4598,-4.4598,-4.4598,-4.4598,-4.4598,-4.4598,-4.4598,-4.4598,-4.4598,-4.4598,-4.4598,-4.4598,-4.4598,-4.4598,-4.427,-4.4177,-4.4434,-4.4423,-4.456,-4.491,-4.5392,-4.5358,-4.4734,-4.4512,-4.453,-4.4277,-4.4204,-4.4403,-4.4077,-4.4204,-4.4295,-4.4242,-4.3952,-4.3788,-4.3987,-4.4023,-4.3987,-4.3987,-4.4041,-4.4295,-4.4603,-4.4603,-4.4892,-4.5128,-4.5291,-4.5291,-4.5309,-4.5327,-4.5526,-4.5689,-4.5544,-4.5562,-4.5979,-4.6323,-4.625,-4.6106,-4.625,-4.6721,-4.7011,-4.7174,-4.7267,-4.7733,-4.7913,-4.8034,-4.8151,-4.8229,-4.8287,-4.8324,-4.8324,-4.8324,-4.8324,-4.8324,-4.8324,-4.8324,-4.8324,-4.8324,-4.8324,-4.8324,-4.8324,-4.8324,-4.8324,-4.8324,-4.8324,-4.8324,-4.8324,-4.8324,-4.8324,-4.8324,-4.8324,-4.8324,-4.8324,-4.8324,-4.8324,-4.8324,-4.8324,-4.8324,-4.8324,-4.8324,-4.8324,-4.8324,-4.8324,-4.8324,-4.8324,-4.8324,-4.8324,-4.8324,-4.8324,-4.8324,-4.8324,-4.4412,-4.4598,-4.4598,-4.4598,-4.4598,-4.4598,-4.4598,-4.4598,-4.4598,-4.4598,-4.4598,-4.4598,-4.4598,-4.4598,-4.4598,-4.4598,-4.4598,-4.4598,-4.4598,-4.4626,-4.4776,-4.4947,-4.5173,-4.5381,-4.5778,-4.6034,-4.6623,-4.6536,-4.6145,-4.5888,-4.578,-4.5345,-4.5037,-4.5146,-4.5236,-4.5146,-4.5073,-4.5037,-4.4621,-4.444,-4.4385,-4.3932,-4.3733,-4.3625,-4.357,-4.3769,-4.4277,-4.4476,-4.4856,-4.5128,-4.5291,-4.5291,-4.5291,-4.5309,-4.5508,-4.5725,-4.5725,-4.6087,-4.645,-4.6649,-4.6196,-4.6069,-4.6287,-4.712,-4.75,-4.7699,-4.7762,-4.7806,-4.7911,-4.7994,-4.8073,-4.8229,-4.8286,-4.8324,-4.8324,-4.8324,-4.8324,-4.8324,-4.8324,-4.8324,-4.8324,-4.8324,-4.8324,-4.8324,-4.8324,-4.8324,-4.8324,-4.8324,-4.8324,-4.8324,-4.8324,-4.8324,-4.8324,-4.8324,-4.8324,-4.8324,-4.8324,-4.8324,-4.8324,-4.8324,-4.8324,-4.8324,-4.8324,-4.8324,-4.8324,-4.8324,-4.8324,-4.8324,-4.8324,-4.8324,-4.8324,-4.8324,-4.8324,-4.8324,-4.8324,-4.4412,-4.4598,-4.4598,-4.4598,-4.4598,-4.4598,-4.4598,-4.4598,-4.4598,-4.4598,-4.4598,-4.4598,-4.4598,-4.4598,-4.4598,-4.4598,-4.4598,-4.4598,-4.4637,-4.4797,-4.5035,-4.532,-4.5691,-4.6203,-4.6699,-4.6856,-4.7284,-4.7446,-4.7443,-4.7102,-4.6468,-4.5526,-4.5743,-4.5472,-4.549,-4.5725,-4.5689,-4.5635,-4.5327,-4.5218,-4.5182,-4.5001,-4.4928,-4.4965,-4.5037,-4.5164,-4.52,-4.511,-4.511,-4.5291,-4.5291,-4.5454,-4.549,-4.549,-4.578,-4.6287,-4.6413,-4.6776,-4.7174,-4.6993,-4.6576,-4.6667,-4.7029,-4.75,-4.7681,-4.7699,-4.7783,-4.7909,-4.797,-4.8072,-4.8172,-4.8268,-4.8324,-4.8324,-4.8324,-4.8324,-4.8324,-4.8324,-4.8324,-4.8324,-4.8324,-4.8324,-4.8324,-4.8324,-4.8324,-4.8324,-4.8324,-4.8324,-4.8324,-4.8324,-4.8324,-4.8324,-4.8324,-4.8324,-4.8324,-4.8324,-4.8324,-4.8324,-4.8324,-4.8324,-4.8324,-4.8324,-4.8324,-4.8324,-4.8324,-4.8324,-4.8324,-4.8324,-4.8324,-4.8324,-4.8324,-4.8324,-4.8324,-4.8324,-4.8324,-4.4542,-4.4598,-4.4598,-4.4598,-4.4598,-4.4598,-4.4598,-4.4598,-4.4598,-4.4598,-4.4598,-4.4598,-4.4598,-4.4598,-4.4598,-4.4598,-4.4637,-4.4944,-4.4998,-4.5205,-4.5511,-4.5943,-4.6358,-4.666,-4.7022,-4.7341,-4.7636,-4.7699,-4.7663,-4.7699,-4.7479,-4.6882,-4.6649,-4.6794,-4.6794,-4.6631,-4.6667,-4.6558,-4.6287,-4.6033,-4.5943,-4.549,-4.5291,-4.5291,-4.5291,-4.5291,-4.5273,-4.5291,-4.5291,-4.5345,-4.5381,-4.5653,-4.5979,-4.6033,-4.6432,-4.7047,-4.7138,-4.7355,-4.7551,-4.7409,-4.7265,-4.7244,-4.7518,-4.7699,-4.7699,-4.7699,-4.778,-4.7886,-4.799,-4.8092,-4.8189,-4.8286,-4.8324,-4.8324,-4.8324,-4.8324,-4.8324,-4.8324,-4.8324,-4.8324,-4.8324,-4.8324,-4.8324,-4.8324,-4.8324,-4.8324,-4.8324,-4.8324,-4.8324,-4.8324,-4.8324,-4.8324,-4.8324,-4.8324,-4.8324,-4.8324,-4.8324,-4.8324,-4.8324,-4.8324,-4.8324,-4.8324,-4.8324,-4.8324,-4.8324,-4.8324,-4.8324,-4.8324,-4.8324,-4.8324,-4.8324,-4.8324,-4.8324,-4.8324,-4.8324,-4.4598,-4.4598,-4.4598,-4.4598,-4.4598,-4.4598,-4.4598,-4.4598,-4.4598,-4.4598,-4.4598,-4.4598,-4.4598,-4.4598,-4.4598,-4.4731,-4.4879,-4.5142,-4.5372,-4.5691,-4.6116,-4.6543,-4.684,-4.7107,-4.7363,-4.7657,-4.7699,-4.7699,-4.7699,-4.7699,-4.7609,-4.7591,-4.7699,-4.7609,-4.7609,-4.7699,-4.7699,-4.7536,-4.7246,-4.6848,-4.6757,-4.6413,-4.6106,-4.6142,-4.6178,-4.6178,-4.6214,-4.625,-4.6214,-4.6196,-4.6214,-4.6395,-4.6667,-4.6957,-4.7174,-4.7482,-4.7699,-4.7699,-4.7699,-4.7699,-4.7699,-4.7627,-4.7645,-4.7699,-4.7699,-4.7738,-4.7842,-4.7945,-4.8028,-4.811,-4.8226,-4.8286,-4.8324,-4.8324,-4.8324,-4.8324,-4.8324,-4.8324,-4.8324,-4.8324,-4.8324,-4.8324,-4.8324,-4.8324,-4.8324,-4.8324,-4.8324,-4.8324,-4.8324,-4.8324,-4.8324,-4.8324,-4.8324,-4.8324,-4.8324,-4.8324,-4.8324,-4.8324,-4.8324,-4.8324,-4.8324,-4.8324,-4.8324,-4.8324,-4.8324,-4.8324,-4.8324,-4.8324,-4.8324,-4.8324,-4.8324,-4.8324,-4.8324,-4.8324,-4.8324,-4.4598,-4.4598,-4.4598,-4.4598,-4.4598,-4.4598,-4.4598,-4.4598,-4.4598,-4.4598,-4.4598,-4.4598,-4.4598,-4.4598,-4.4637,-4.4862,-4.5205,-4.5399,-4.5691,-4.6165,-4.6637,-4.6886,-4.7084,-4.7363,-4.7575,-4.7657,-4.7699,-4.7699,-4.7699,-4.7699,-4.7699,-4.7699,-4.7699,-4.7699,-4.7699,-4.7699,-4.7699,-4.7699,-4.7588,-4.7554,-4.75,-4.7355,-4.7283,-4.7246,-4.7228,-4.7174,-4.7174,-4.7174,-4.7156,-4.7174,-4.721,-4.7337,-4.7446,-4.75,-4.7591,-4.7663,-4.7699,-4.7699,-4.7699,-4.7699,-4.7699,-4.7699,-4.7699,-4.7699,-4.7738,-4.7801,-4.7904,-4.7968,-4.8108,-4.8189,-4.8267,-4.8324,-4.8324,-4.8324,-4.8324,-4.8324,-4.8324,-4.8324,-4.8324,-4.8324,-4.8324,-4.8324,-4.8324,-4.8324,-4.8324,-4.8324,-4.8324,-4.8324,-4.8324,-4.8324,-4.8324,-4.8324,-4.8324,-4.8324,-4.8324,-4.8324,-4.8324,-4.8324,-4.8324,-4.8324,-4.8324,-4.8324,-4.8324,-4.8324,-4.8324,-4.8324,-4.8324,-4.8324,-4.8363,-4.842,-4.8343,-4.8324,-4.8324,-4.8324,-4.8324,-4.4598,-4.4598,-4.4598,-4.4598,-4.4598,-4.4598,-4.4598,-4.4598,-4.4598,-4.4598,-4.4598,-4.4598,-4.4598,-4.4665,-4.4906,-4.5125,-4.5381,-4.6238,-4.6548,-4.666,-4.7129,-4.7363,-4.7511,-4.7554,-4.7699,-4.7699,-4.7699,-4.7699,-4.7699,-4.7699,-4.7699,-4.7699,-4.7699,-4.7699,-4.7699,-4.7699,-4.7699,-4.7699,-4.7699,-4.7699,-4.7699,-4.7699,-4.7699,-4.7699,-4.7699,-4.7699,-4.7699,-4.7699,-4.7699,-4.7699,-4.7699,-4.7699,-4.7699,-4.7699,-4.7699,-4.7699,-4.7699,-4.7699,-4.7699,-4.7699,-4.7699,-4.7699,-4.7699,-4.7699,-4.7699,-4.7801,-4.7907,-4.801,-4.813,-4.8228,-4.8286,-4.8305,-4.8324,-4.8324,-4.8324,-4.8324,-4.8324,-4.8324,-4.8324,-4.8324,-4.8324,-4.8324,-4.8324,-4.8324,-4.8324,-4.8324,-4.8324,-4.8324,-4.8324,-4.8324,-4.8324,-4.8324,-4.8324,-4.8324,-4.8324,-4.8324,-4.8324,-4.8324,-4.8324,-4.8324,-4.8324,-4.8324,-4.8324,-4.8324,-4.8324,-4.8324,-4.8324,-4.8325,-4.8476,-4.8495,-4.842,-4.8363,-4.8401,-4.8363,-4.8324,-4.4598,-4.4598,-4.4598,-4.4598,-4.4598,-4.4598,-4.4598,-4.4598,-4.4598,-4.4598,-4.4598,-4.4598,-4.4598,-4.4692,-4.4906,-4.5399,-4.5588,-4.6,-4.6976,-4.7039,-4.7258,-4.745,-4.7575,-4.7678,-4.7699,-4.7699,-4.7699,-4.7699,-4.7699,-4.7699,-4.7699,-4.7699,-4.7699,-4.7699,-4.7699,-4.7699,-4.7699,-4.7699,-4.7699,-4.7699,-4.7699,-4.7699,-4.7699,-4.7699,-4.7699,-4.7699,-4.7699,-4.7699,-4.7699,-4.7699,-4.7699,-4.7699,-4.7699,-4.7699,-4.7699,-4.7699,-4.7699,-4.7699,-4.7699,-4.7699,-4.7699,-4.7699,-4.7699,-4.7699,-4.772,-4.7845,-4.7929,-4.8012,-4.8149,-4.8228,-4.8287,-4.8324,-4.8324,-4.8324,-4.8324,-4.8324,-4.8324,-4.8324,-4.8324,-4.8324,-4.8324,-4.8324,-4.8324,-4.8324,-4.8324,-4.8324,-4.8324,-4.8324,-4.8324,-4.8324,-4.8324,-4.8324,-4.8324,-4.8324,-4.8324,-4.8324,-4.8324,-4.8324,-4.8324,-4.8324,-4.8324,-4.8324,-4.8324,-4.8324,-4.8324,-4.8324,-4.8324,-4.8363,-4.8476,-4.8495,-4.8458,-4.8439,-4.8476,-4.8383,-4.8324,-4.4598,-4.4598,-4.4598,-4.4598,-4.4598,-4.4598,-4.4598,-4.4598,-4.4598,-4.4598,-4.4598,-4.4598,-4.4598,-4.4598,-4.4654,-4.5142,-4.5792,-4.564,-4.6334,-4.7039,-4.7107,-4.7302,-4.7511,-4.7657,-4.7678,-4.7699,-4.7699,-4.7699,-4.7699,-4.7699,-4.7699,-4.7699,-4.7699,-4.7699,-4.7699,-4.7699,-4.7699,-4.7699,-4.7699,-4.7699,-4.7699,-4.7699,-4.7699,-4.7699,-4.7699,-4.7699,-4.7699,-4.7699,-4.7699,-4.7699,-4.7699,-4.7699,-4.7699,-4.7699,-4.7699,-4.7699,-4.7699,-4.7699,-4.7699,-4.7699,-4.7699,-4.7699,-4.7717,-4.7717,-4.7762,-4.7868,-4.7972,-4.8072,-4.817,-4.8247,-4.8324,-4.8324,-4.8324,-4.8324,-4.8324,-4.8324,-4.8324,-4.8324,-4.8324,-4.8324,-4.8324,-4.8324,-4.8324,-4.8324,-4.8324,-4.8324,-4.8324,-4.8324,-4.8324,-4.8324,-4.8324,-4.8324,-4.8324,-4.8324,-4.8324,-4.8324,-4.8324,-4.8324,-4.8324,-4.8324,-4.8324,-4.8324,-4.8324,-4.8324,-4.8324,-4.8324,-4.8324,-4.8363,-4.8439,-4.8458,-4.8514,-4.8532,-4.855,-4.8383,-4.8324,-4.4598,-4.4598,-4.4598,-4.4598,-4.4598,-4.4598,-4.4598,-4.4598,-4.4598,-4.4598,-4.4598,-4.4598,-4.4598,-4.4626,-4.4944,-4.5258,-4.5511,-4.5792,-4.6091,-4.6495,-4.6817,-4.6994,-4.7236,-4.7511,-4.7636,-4.7699,-4.7699,-4.7699,-4.7699,-4.7699,-4.7699,-4.7699,-4.7699,-4.7699,-4.7699,-4.7699,-4.7699,-4.7699,-4.7699,-4.7699,-4.7699,-4.7699,-4.7699,-4.7699,-4.7699,-4.7699,-4.7699,-4.7699,-4.7699,-4.7699,-4.7699,-4.7699,-4.7699,-4.7699,-4.7699,-4.7699,-4.7699,-4.7699,-4.7699,-4.7699,-4.7699,-4.7738,-4.7777,-4.784,-4.7863,-4.7929,-4.8032,-4.8149,-4.8209,-4.8286,-4.8324,-4.8324,-4.8324,-4.8324,-4.8324,-4.8324,-4.8324,-4.8324,-4.8324,-4.8324,-4.8324,-4.8324,-4.8324,-4.8324,-4.8324,-4.8324,-4.8324,-4.8324,-4.8324,-4.8324,-4.8324,-4.8324,-4.8324,-4.8324,-4.8324,-4.8324,-4.8324,-4.8324,-4.8324,-4.8324,-4.8324,-4.8324,-4.8324,-4.8324,-4.8324,-4.8324,-4.8324,-4.8382,-4.842,-4.8532,-4.8587,-4.8623,-4.8623,-4.8439,-4.8325,-4.4598,-4.4598,-4.4598,-4.4598,-4.4598,-4.4598,-4.4598,-4.4598,-4.4598,-4.4598,-4.4598,-4.4598,-4.4598,-4.4626,-4.4879,-4.5098,-4.5303,-4.5363,-4.5759,-4.6566,-4.6543,-4.6908,-4.7173,-4.749,-4.7657,-4.7699,-4.7699,-4.7699,-4.7699,-4.7699,-4.7699,-4.7699,-4.7699,-4.7699,-4.7699,-4.7699,-4.7699,-4.7699,-4.7699,-4.7699,-4.7699,-4.7699,-4.7699,-4.7699,-4.7699,-4.7699,-4.7699,-4.7699,-4.7699,-4.7699,-4.7699,-4.7699,-4.7699,-4.7699,-4.7699,-4.7699,-4.7699,-4.7699,-4.7699,-4.7699,-4.7699,-4.7738,-4.784,-4.7902,-4.7966,-4.8048,-4.8128,-4.8187,-4.8247,-4.8324,-4.8324,-4.8324,-4.8324,-4.8324,-4.8324,-4.8324,-4.8324,-4.8324,-4.8324,-4.8324,-4.8324,-4.8324,-4.8324,-4.8324,-4.8324,-4.8324,-4.8324,-4.8324,-4.8324,-4.8324,-4.8324,-4.8324,-4.8324,-4.8324,-4.8324,-4.8324,-4.8324,-4.8324,-4.8324,-4.8324,-4.8324,-4.8324,-4.8324,-4.8324,-4.8324,-4.8324,-4.8324,-4.8325,-4.8382,-4.8514,-4.8676,-4.8781,-4.871,-4.8532,-4.842,-4.4598,-4.4598,-4.4598,-4.4598,-4.4598,-4.4598,-4.4598,-4.4598,-4.4598,-4.4598,-4.4598,-4.4598,-4.4598,-4.4598,-4.4692,-4.4862,-4.4954,-4.4988,-4.5354,-4.6701,-4.6382,-4.6572,-4.7107,-4.7636,-4.7678,-4.7699,-4.7699,-4.7699,-4.7699,-4.7699,-4.7699,-4.7699,-4.7699,-4.7699,-4.7699,-4.7699,-4.7699,-4.7699,-4.7699,-4.7699,-4.7699,-4.7699,-4.7699,-4.7699,-4.7699,-4.7699,-4.7699,-4.7699,-4.7699,-4.7699,-4.7699,-4.7699,-4.7699,-4.7699,-4.7699,-4.7699,-4.7699,-4.7699,-4.7699,-4.7699,-4.7738,-4.7759,-4.7822,-4.7945,-4.8048,-4.8108,-4.8168,-4.8226,-4.8286,-4.8305,-4.8324,-4.8324,-4.8324,-4.8324,-4.8324,-4.8324,-4.8324,-4.8324,-4.8324,-4.8324,-4.8324,-4.8324,-4.8324,-4.8324,-4.8324,-4.8324,-4.8324,-4.8324,-4.8324,-4.8324,-4.8324,-4.8324,-4.8324,-4.8324,-4.8324,-4.8324,-4.8324,-4.8324,-4.8324,-4.8324,-4.8324,-4.8324,-4.8324,-4.8324,-4.8324,-4.8324,-4.8324,-4.8325,-4.8382,-4.8532,-4.8712,-4.8917,-4.883,-4.8676,-4.8586,-4.4598,-4.4598,-4.4598,-4.4598,-4.4598,-4.4598,-4.4598,-4.4598,-4.4598,-4.4598,-4.4598,-4.4598,-4.4598,-4.4598,-4.4598,-4.4703,-4.4692,-4.4748,-4.4841,-4.552,-4.5767,-4.6293,-4.6747,-4.7425,-4.7636,-4.7699,-4.7699,-4.7699,-4.7699,-4.7699,-4.7699,-4.7699,-4.7699,-4.7699,-4.7699,-4.7699,-4.7699,-4.7699,-4.7699,-4.7699,-4.7699,-4.7699,-4.7699,-4.7699,-4.7699,-4.7699,-4.7699,-4.7699,-4.7699,-4.7699,-4.7699,-4.7699,-4.7699,-4.7699,-4.7699,-4.7699,-4.7699,-4.7699,-4.7717,-4.7717,-4.7759,-4.7842,-4.7927,-4.8028,-4.811,-4.8168,-4.8208,-4.8267,-4.8287,-4.8305,-4.8324,-4.8324,-4.8324,-4.8324,-4.8324,-4.8324,-4.8324,-4.8324,-4.8324,-4.8324,-4.8324,-4.8324,-4.8324,-4.8324,-4.8324,-4.8324,-4.8324,-4.8324,-4.8324,-4.8324,-4.8324,-4.8324,-4.8324,-4.8324,-4.8324,-4.8324,-4.8324,-4.8324,-4.8324,-4.8324,-4.8324,-4.8324,-4.8324,-4.8324,-4.8324,-4.8324,-4.8324,-4.8324,-4.8401,-4.8532,-4.8746,-4.8949,-4.9015,-4.8883,-4.8832,-4.4598,-4.4598,-4.4598,-4.4598,-4.4598,-4.4598,-4.4598,-4.4598,-4.4598,-4.4598,-4.4598,-4.4598,-4.4598,-4.4598,-4.4598,-4.4598,-4.4598,-4.4598,-4.4852,-4.5169,-4.558,-4.6189,-4.673,-4.7236,-4.7554,-4.7699,-4.7699,-4.7699,-4.7699,-4.7699,-4.7699,-4.7699,-4.7699,-4.7699,-4.7699,-4.7699,-4.7699,-4.7699,-4.7699,-4.7699,-4.7699,-4.7699,-4.7699,-4.7699,-4.7699,-4.7699,-4.7699,-4.7699,-4.7699,-4.7699,-4.7699,-4.7699,-4.7699,-4.7699,-4.7699,-4.7699,-4.7699,-4.7699,-4.7717,-4.7759,-4.7801,-4.7904,-4.8028,-4.8148,-4.8168,-4.8226,-4.8247,-4.8305,-4.8305,-4.8324,-4.8324,-4.8324,-4.8324,-4.8324,-4.8324,-4.8324,-4.8324,-4.8324,-4.8324,-4.8324,-4.8324,-4.8324,-4.8324,-4.8324,-4.8324,-4.8324,-4.8324,-4.8324,-4.8324,-4.8324,-4.8324,-4.8324,-4.8324,-4.8324,-4.8324,-4.8324,-4.8324,-4.8324,-4.8324,-4.8324,-4.8324,-4.8324,-4.8324,-4.8324,-4.8324,-4.8324,-4.8324,-4.8324,-4.8324,-4.8401,-4.8693,-4.9015,-4.9048,-4.9064,-4.9015,-4.4598,-4.4598,-4.4598,-4.4598,-4.4598,-4.4598,-4.4598,-4.4598,-4.4598,-4.4598,-4.4598,-4.4598,-4.4598,-4.4598,-4.4598,-4.4598,-4.4598,-4.4598,-4.4852,-4.5169,-4.5665,-4.6074,-4.6619,-4.7258,-4.749,-4.7657,-4.7699,-4.7699,-4.7699,-4.7699,-4.7699,-4.7699,-4.7699,-4.7699,-4.7699,-4.7699,-4.7699,-4.7699,-4.7699,-4.7699,-4.7699,-4.7699,-4.7699,-4.7699,-4.7699,-4.7699,-4.7699,-4.7699,-4.7699,-4.7699,-4.7699,-4.7699,-4.7699,-4.7699,-4.7699,-4.7699,-4.7699,-4.7699,-4.7738,-4.7801,-4.7861,-4.7963,-4.8126,-4.8207,-4.8226,-4.8247,-4.8305,-4.8324,-4.8324,-4.8324,-4.8324,-4.8324,-4.8324,-4.8324,-4.8324,-4.8324,-4.8324,-4.8324,-4.8324,-4.8324,-4.8324,-4.8324,-4.8324,-4.8324,-4.8324,-4.8324,-4.8324,-4.8324,-4.8324,-4.8324,-4.8324,-4.8324,-4.8324,-4.8324,-4.8324,-4.8324,-4.8324,-4.8324,-4.8324,-4.8324,-4.8324,-4.8324,-4.8324,-4.8324,-4.8324,-4.8324,-4.8324,-4.8324,-4.8324,-4.8363,-4.8781,-4.911,-4.9142,-4.9177,-4.9142,-4.4598,-4.4598,-4.4598,-4.4598,-4.4598,-4.4598,-4.4598,-4.4598,-4.4598,-4.4598,-4.4598,-4.4598,-4.4598,-4.4598,-4.4598,-4.4598,-4.4598,-4.4598,-4.4598,-4.4786,-4.5346,-4.5817,-4.631,-4.6908,-4.728,-4.7511,-4.7657,-4.7699,-4.7699,-4.7699,-4.7699,-4.7699,-4.7699,-4.7699,-4.7699,-4.7699,-4.7699,-4.7699,-4.7699,-4.7699,-4.7699,-4.7699,-4.7699,-4.7699,-4.7699,-4.7699,-4.7699,-4.7699,-4.7699,-4.7699,-4.7699,-4.7699,-4.7699,-4.7699,-4.7699,-4.7699,-4.7699,-4.7699,-4.7759,-4.7842,-4.7904,-4.8008,-4.813,-4.8228,-4.8247,-4.8286,-4.8324,-4.8324,-4.8324,-4.8324,-4.8324,-4.8324,-4.8324,-4.8324,-4.8324,-4.8324,-4.8324,-4.8324,-4.8324,-4.8324,-4.8324,-4.8324,-4.8324,-4.8324,-4.8324,-4.8324,-4.8324,-4.8324,-4.8324,-4.8324,-4.8324,-4.8324,-4.8324,-4.8324,-4.8324,-4.8324,-4.8324,-4.8324,-4.8324,-4.8324,-4.8324,-4.8324,-4.8324,-4.8324,-4.8324,-4.8324,-4.8324,-4.8324,-4.8476,-4.8586,-4.8965,-4.9271,-4.9252,-4.9209,-4.9113]},{"header":{"parameterUnit":"m.s-1","parameterCategory":1,"la1":31.0,"la2":29.5877,"lo1":-88.7671,"lo2":-86.6584,"dy":0.0162,"dx":0.0185,"nx":115,"ny":88,"refTime":"2024-07-18T18:00:00:Z","depth":0,"parameterNumber":3,"parameterNumberName":"V-component_of_WINDS"},"data":[0.0,0.0,0.0,0.0,0.0,0.0,0.0,0.0,0.0,0.0,0.0,0.0,0.0,0.0,0.0,0.0,0.0,0.0,0.0,0.0,0.0,0.0,0.0,0.0,0.0,0.0,0.0,0.0,0.0,0.0,0.0,0.0,0.0,0.0,0.0,0.0,0.0,0.0,0.0,0.0,0.0,0.0,0.0,0.0,0.0,0.0,0.0,0.0,0.0,0.0,0.0,0.0,0.0,0.0,0.0,0.0,0.0,0.0,0.0,0.0,0.0,0.0,0.0,0.0,0.0,0.0,0.0,0.0,0.0,0.0,0.0,0.0,0.0,0.0,0.0,0.0,0.0,0.0,0.0,0.0,0.0,0.0,0.0,0.0,0.0,0.0,0.0,0.0,0.0,0.0,0.0,0.0,0.0,0.0,0.0,0.0,0.0,0.0,0.0,0.0,0.0,0.0,0.0,0.0,0.0,0.0,0.0,0.0,0.0,0.0,0.0,0.0,0.0,0.0,0.0,0.0,0.0,0.0,0.0,0.0,0.0,0.0,0.0,0.0,0.0,0.0,0.0,0.0,0.0,0.0,0.0,0.0,0.0,0.0,0.0,0.0,0.0,0.0,0.0,0.0,0.0,0.0,0.0,0.0,0.0,0.0,0.0,0.0,0.0,0.0,0.0,0.0,0.0,0.0,0.0,0.0,0.0,0.0,0.0,0.0,0.0,0.0,0.0,0.0,0.0,0.0,0.0,0.0,0.0,0.0,0.0,0.0,0.0,0.0,0.0,0.0,0.0,0.0,0.0,0.0,0.0,0.0,0.0,0.0,0.0,0.0,0.0,0.0,0.0,0.0,0.0,0.0,0.0,0.0,0.0,0.0,0.0,0.0,0.0,0.0,0.0,0.0,0.0,0.0,0.0,0.0,0.0,0.0,0.0,0.0,0.0,0.0,0.0,0.0,0.0,0.0,0.0,0.0,0.0,0.0,0.0,0.0,0.0,0.0,0.0,0.0,0.0,0.0,0.0,0.0,0.0,0.0,0.0,0.0,0.0,0.0,0.0,0.0,0.0,0.0,0.0,0.0,0.0,0.0,0.0,0.0,0.0,0.0,0.0,0.0,0.0,0.0,0.0,0.0,0.0,0.0,0.0,0.0,0.0,0.0,0.0,0.0,0.0,0.0,0.0,0.0,0.0,0.0,0.0,0.0,0.0,0.0,0.0,0.0,0.0,0.0,0.0,0.0,0.0,0.0,0.0,0.0,0.0,0.0,0.0,0.0,0.0,0.0,0.0,0.0,0.0,0.0,0.0,0.0,0.0,0.0,0.0,0.0,0.0,0.0,0.0,0.0,0.0,0.0,0.0,0.0,0.0,0.0,0.0,0.0,0.0,0.0,0.0,0.0,0.0,0.0,0.0,0.0,0.0,0.0,0.0,0.0,0.0,0.0,0.0,0.0,0.0,0.0,0.0,0.0,0.0,0.0,0.0,0.0,0.0,0.0,0.0,0.0,0.0,0.0,0.0,0.0,0.0,0.0,0.0,0.0,0.0,0.0,0.0,0.0,0.0,0.0,0.0,0.0,0.0,0.0,0.0,0.0,0.0,0.0,0.0,0.0,0.0,0.0,0.0,0.0,0.0,0.0,0.0,0.0,0.0,0.0,0.0,0.0,0.0,0.0,0.0,0.0,0.0,0.0,0.0,0.0,0.0,0.0,0.0,0.0,0.0,0.0,0.0,0.0,0.0,0.0,0.0,0.0,0.0,0.0,0.0,0.0,0.0,0.0,0.0,0.0,0.0,0.0,0.0,0.0,0.0,0.0,0.0,0.0,0.0,0.0,0.0,0.0,0.0,0.0,0.0,0.0,0.0,0.0,0.0,0.0,0.0,0.0,0.0,0.0,0.0,0.0,0.0,0.0,0.0,0.0,0.0,0.0,0.0,0.0,0.0,0.0,0.0,0.0,0.0,0.0,0.0,0.0,0.0,0.0,0.0,0.0,0.0,0.0,0.0,0.0,0.0,0.0,0.0,0.0,0.0,0.0,0.0,0.0,0.0,0.0,0.0,0.0,0.0,0.0,0.0,0.0,0.0,0.0,0.0,0.0,0.0,0.0,0.0,0.0,0.0,0.0,0.0,0.0,0.0,0.0,0.0,0.0,0.0,0.0,0.0,0.0,0.0,0.0,0.0,0.0,0.0,0.0,0.0,0.0,0.0,0.0,0.0,0.0,0.0,0.0,0.0,0.0,0.0,0.0,0.0,0.0,0.0,0.0,0.0,0.0,0.0,0.0,0.0,0.0,0.0,0.0,0.0,0.0,0.0,0.0,0.0,0.0,0.0,0.0,0.0,0.0,0.0,0.0,0.0,0.0,0.0,0.0,0.0,0.0,0.0,0.0,0.0,0.0,0.0,0.0,0.0,0.0,0.0,0.0,0.0,0.0,0.0,0.0,0.0,0.0,0.0,0.0,0.0,0.0,0.0,0.0,0.0,0.0,0.0,0.0,0.0,0.0,0.0,0.0,0.0,0.0,0.0,0.0,0.0,0.0,0.0,0.0,0.0,0.0,0.0,0.0,0.0,0.0,0.0,0.0,0.0,0.0,0.0,0.0,0.0,0.0,0.0,0.0,0.0,0.0,0.0,0.0,0.0,0.0,0.0,0.0,0.0,0.0,0.0,0.0,0.0,0.0,0.0,0.0,0.0,0.0,0.0,0.0,0.0,0.0,0.0,0.0,0.0,0.0,0.0,0.0,0.0,0.0,0.0,0.0,0.0,0.0,0.0,0.0,0.0,0.0,0.0,0.0,0.0,0.0,0.0,0.0,0.0,0.0,0.0,0.0,0.0,0.0,0.0,0.0,0.0,0.0,0.0,0.0,0.0,0.0,0.0,0.0,0.0,0.0,0.0,0.0,0.0,0.0,0.0,0.0,0.0,0.0,0.0,0.0,0.0,0.0,0.0,0.0,0.0,0.0,0.0,0.0,0.0,0.0,0.0,0.0,0.0,0.0,0.0,0.0,0.0,0.0,0.0,0.0,0.0,0.0,0.0,0.0,0.0,0.0,0.0,0.0,0.0,0.0,0.0,0.0,0.0,0.0,0.0,0.0,0.0,0.0,0.0,0.0,0.0,0.0,0.0,0.0,0.0,0.0,0.0,0.0,0.0,0.0,0.0,0.0,0.0,0.0,0.0,0.0,0.0,0.0,0.0,0.0,0.0,0.0,0.0,0.0,0.0,0.0,0.0,0.0,0.0,0.0,0.0,0.0,0.0,0.0,0.0,0.0,0.0,0.0,0.0,0.0,0.0,0.0,0.0,0.0,0.0,0.0,0.0,0.0,0.0,0.0,0.0,0.0,0.0,0.0,0.0,0.0,0.0,0.0,0.0,0.0,0.0,0.0,0.0,0.0,0.0,0.0,0.0,0.0,0.0,0.0,0.0,0.0,0.0,0.0,0.0,0.0,0.0,0.0,0.0,0.0,0.0,0.0,0.0,0.0,0.0,0.0,0.0,0.0,0.0,0.0,0.0,0.0,0.0,0.0,0.0,0.0,0.0,0.0,0.0,0.0,0.0,0.0,0.0,0.0,0.0,0.0,0.0,0.0,0.0,0.0,0.0,0.0,0.0,0.0,0.0,0.0,0.0,0.0,0.0,0.0,0.0,0.0,0.0,0.0,0.0,0.0,0.0,0.0,0.0,0.0,0.0,0.0,0.0,0.0,0.0,0.0,0.0,0.0,0.0,0.0,0.0,0.0,0.0,0.0,0.0,0.0,0.0,0.0,0.0,0.0,0.0,0.0,0.0,0.0,0.0,0.0,0.0,0.0,0.0,0.0,0.0,0.0,0.0,0.0,0.0,0.0,0.0,0.0,0.0,0.0,0.0,0.0,0.0,0.0,0.0,0.0,0.0,0.0,0.0,0.0,0.0,0.0,0.0,0.0,0.0,0.0,0.0,0.0,0.0,0.0,0.0,0.0,0.0,0.0,0.0,0.0,0.0,0.0,0.0,0.0,0.0,0.0,0.0,0.0,0.0,0.0,0.0,0.0,0.0,0.0,0.0,0.0,0.0,0.0,0.0,0.0,0.0,0.0,0.0,0.0,0.0,0.0,0.0,0.0,0.0,0.0,0.0,0.0,0.0,0.0,0.0,0.0,0.0,0.0,0.0,0.0,0.0,0.0,0.0,0.0,0.0,0.0,0.0,0.0,0.0,0.0,0.0,0.0,0.0,0.0,0.0,0.0,0.0,0.0,0.0,0.0,0.0,0.0,0.0,0.0,0.0,0.0,0.0,0.0,0.0448,0.0,0.0,0.0,0.0,0.0,0.0,0.0,0.0,0.0,0.0,0.0,0.0,0.0,0.0,0.0,0.0,0.0,0.0,0.0,0.0,0.0,0.0,0.0,0.0,0.0,0.0,0.0,0.0,0.0,0.0,0.0,0.0,0.0,0.0,0.0,0.0,0.0,0.0,0.0,0.0,0.0,0.0,0.0,0.0,0.0,0.0,0.0,0.0,0.0,0.0,0.0,0.0,0.0,0.0,0.0,0.0,0.0,0.0,0.0,0.0,0.0,0.0,0.0,0.0,0.0,0.0,0.0,0.0,0.0,0.0,0.0,0.0,0.0,0.0,0.0,0.0,0.0,0.0,0.0,0.0,0.0,0.0,0.0,0.0,0.0,0.0,0.0,0.0,0.0,0.0,0.0,0.0,0.0,0.0,0.0,0.0,0.0,0.0,0.0,0.0,0.0,0.0,0.0,0.0,0.0,0.0,0.0,0.0,0.0,0.0,-0.0425,-0.009,0.0264,0.0296,-0.002,0.0,0.0,0.0,0.0,0.0,0.0,0.0,0.0,0.0,0.0,0.0,0.0,0.0,0.0,0.0,0.0,0.0,0.0,0.0,0.0,0.0,0.0,0.0,0.0,0.0,0.0,0.0,0.0,0.0,0.0,0.0,0.0,0.0,0.0,0.0,0.0,0.0,0.0,0.0,0.0,0.0,0.0,0.0,0.0,0.0,0.0,0.0,0.0,0.0,0.0,0.0,0.0,0.0,0.0,0.0,0.0,0.0,0.0,0.0,0.0,0.0,0.0,0.0,0.0,0.0,0.0,0.0,0.0,0.0,0.0,0.0,0.0,0.0,0.0,0.0,0.0,0.0,0.0,0.0,0.0,0.0,0.0,0.0,0.0,0.0,0.0,0.0,0.0,0.0,0.0,0.0,0.0,0.0,0.0,0.0,0.0,0.0,0.0,0.0,0.0,0.0,0.0,0.0,0.0,0.0,0.0,0.0,0.0,0.0,0.0,0.0,0.0,-0.009,-0.0108,-0.053,0.0,0.0,0.0,0.0,0.0,0.0,0.0,0.0,0.0,0.0,0.0,0.0,0.0,0.0,0.0,0.0,0.0,0.0,0.0,0.0,0.0,0.0,0.0,0.0,0.0,0.0,0.0,0.0,0.0,0.0,0.0,0.0,0.0,0.0,0.0,0.0,0.0,0.0,0.0,0.0,0.0,0.0,0.0,0.0,0.0,0.0,0.0,0.0,0.0,0.0,0.0,0.0,0.0,0.0,0.0,0.0,0.0,0.0,0.0,0.0,0.0,0.0,0.0,0.0,0.0,0.0,0.0,0.0,0.0,0.0,0.0,0.0,0.0,0.0,0.0,0.0,0.0,0.0,0.0,0.0,0.0,0.0,0.0,0.0,0.0,0.0,0.0,0.0,0.0,0.0,0.0,0.0,0.0,0.0,0.0,0.0,0.0,0.0,0.0,0.0,0.0,0.0,0.0,0.0,0.0,0.0,0.0,0.0,0.0,0.0,-0.1297,-0.0427,-0.065,0.0,-0.1007,0.0,0.0,0.0,0.0,0.0,0.0,0.0,0.0,0.0,0.0,0.0,0.0,0.0,0.0,0.0,0.0,0.0,0.0,0.0,0.0,0.0,0.0,0.0,0.0,0.0,0.0,0.0,0.0,0.0,0.0,0.0,0.0,0.0,0.0,0.0,0.0,0.0,0.0,0.0,0.0,0.0,0.0,0.0,0.0,0.0,0.0,0.0,0.0,0.0,0.0,0.0,0.0,0.0,0.0,0.0,0.0,0.0,0.0,0.0,0.0,0.0,0.0,0.0,0.0,0.0,0.0,0.0,0.0,0.0,0.0,0.0,0.0,0.0,0.0,0.0,0.0,0.0,0.0,0.0,0.0,0.0,0.0,0.0,0.0,0.0,0.0,0.0,0.0,0.0,0.0,0.0,0.0,0.0,0.0,0.0,0.0,0.0,0.0,0.0,0.0,0.0,0.0,0.0,0.0,0.0,0.0,0.0,0.0,0.0,0.0,-0.223,-0.177,-0.1745,-0.1707,0.0,0.0,0.0,0.0,0.0,0.0,0.0,0.0,0.0,0.0,0.0,0.0,0.0,0.0,0.0,0.0,0.0,0.0,0.0,0.0,0.0,0.0,0.0,0.0,0.0,0.0,0.0,0.0,0.0,0.0,0.0,0.0,0.0,0.0,0.0,0.0,0.0,0.0,0.0,0.0,0.0,0.0,0.0,0.0,0.0,0.0,0.0,0.0,0.0,0.0,0.0,0.0,0.0,0.0,0.0,0.0,0.0,0.0,0.0,0.0,0.0,0.0,0.0,0.0,0.0,0.0,0.0,0.0,0.0,0.0,0.0,0.0,0.0,0.0,0.0,0.0,0.0,0.0,0.0,0.0,0.0,0.0,0.0,0.0,0.0,0.0,0.0,0.0,0.0,0.0,0.0,0.0,0.0,0.0,0.0,0.0,0.0,0.0,0.0,0.0,0.0,0.0,0.0,0.0,0.0,0.0,0.0,0.0,0.0,0.0,-0.2943,-0.2857,-0.2763,-0.2524,-0.2369,-0.2287,0.0,0.0,0.0,0.0,0.0,0.0,0.0,0.0,0.0,0.0,0.0,0.0,0.0,0.0,0.0,0.0,0.0,0.0,0.0,0.0,0.0,0.0,0.0,0.0,0.0,0.0,0.0,0.0,0.0,0.0,0.0,0.0,0.0,0.0,0.0,0.0,0.0,0.0,0.0,0.0,0.0,0.0,0.0,0.0,0.0,0.0,0.0,0.0,0.0,0.0,0.0,0.0,0.0,0.0,0.0,0.0,0.0,0.0,0.0,0.0,0.0,0.0,0.0,0.0,0.0,0.0,0.0,0.0,0.0,0.0,0.0,0.0,0.0,0.0,0.0,0.0,0.0,0.0,0.0,0.0,0.0,0.0,0.0,0.0,0.0,0.0,0.0,0.0,0.0,0.0,0.0,0.0,0.0,0.0,0.0,0.0,0.0,0.0,0.0,0.0,0.0,0.0,0.0,0.0,0.0,0.0,0.0,0.0,-0.3034,-0.3009,-0.2987,-0.2898,-0.276,-0.2764,0.0,0.0,0.0,0.0,0.0,0.0,0.0,0.0,0.0,0.0,0.0,0.0,0.0,0.0,0.0,0.0,0.0,0.0,0.0,0.0,0.0,0.0,0.0,0.0,0.0,0.0,0.0,0.0,0.0,0.0,0.0,0.0,0.0,0.0,0.0,0.0,0.0,0.0,0.0,0.0,0.0,0.0,0.0,0.0,0.0,0.0,0.0,0.0,0.0,0.0,0.0,0.0,0.0,0.0,0.0,0.0,0.0,0.0,0.0,0.0,0.0,0.0,0.0,0.0,0.0,0.0,0.0,0.0,0.0,0.0,0.0,0.0,0.0,0.0,0.0,0.0,0.0,0.0,0.0,0.0,0.0,0.0,0.0,0.0,0.0,0.0,0.0,0.0,0.0,0.0,0.0,0.0,0.0,0.0,0.0,0.0,0.0,0.0,0.0,0.0,0.0,0.0,0.0,0.0,0.0,0.0,0.0,0.0,0.0,-0.3704,-0.3612,-0.3524,-0.3404,-0.3196,-0.3075,0.0,0.0,0.0,0.0,0.0,0.0,0.0,0.0,0.0,0.0,0.0,0.0,0.0,0.0,0.0,0.0,0.0,0.0,0.0,0.0,0.0,0.0,0.0,0.0,0.0,0.0,0.0,0.0,0.0,0.0,0.0,0.0,0.0,0.0,0.0,0.0,0.0,0.0,0.0,0.0,0.0,0.0,0.0,0.0,0.0,0.0,0.0,0.0,0.0,0.0,0.0,0.0,0.0,0.0,0.0,0.0,0.0,0.0,0.0,0.0,0.0,0.0,0.0,0.0,0.0,0.0,0.0,0.0,0.0,0.0,0.0,0.0,0.0,0.0,0.0,0.0,0.0,0.0,0.0,0.0,0.0,0.0,0.0,0.0,0.0,0.0,0.0,0.0,0.0,0.0,0.0,0.0,0.0,0.0,0.0,0.0,0.0,0.0,0.0,0.0,0.0,0.0,0.0,0.0,0.0,0.0,0.0,0.0,0.0,-0.4204,0.0,-0.3906,0.0,-0.3637,-0.3405,0.0,0.0,0.0,0.0,0.0,0.0,0.0,0.0,0.0,0.0,0.0,0.0,0.0,0.0,0.0,0.0,0.0,0.0,0.0,0.0,0.0,0.0,0.0,0.0,0.0,0.0,0.0,0.0,0.0,0.0,0.0,0.0,0.0,0.0,0.0,0.0,0.0,0.0,0.0,0.0,0.0,0.0,0.0,0.0,0.0,0.0,0.0,0.0,0.0,0.0,0.0,0.0,0.0,0.0,0.0,0.0,0.0,0.0,0.0,0.0,0.0,0.0,0.0,0.0,0.0,0.0,0.0,0.0,0.0,0.0,0.0,0.0,0.0,0.0,0.0,0.0,0.0,0.0,0.0,0.0,0.0,0.0,0.0,0.0,0.0,0.0,0.0,0.0,0.0,0.0,0.0,0.0,0.0,0.0,0.0,0.0,0.0,0.0,0.0,0.0,0.0,0.0,0.0,0.0,0.0,0.0,0.0,0.0,-0.4339,-0.4384,-0.4081,-0.4017,-0.4194,-0.3999,-0.3743,0.0,0.0,0.0,0.0,0.0,0.0,0.0,0.0,0.0,0.0,0.0,0.0,0.0,0.0,0.0,0.0,0.0,0.0,0.0,0.0,0.0,0.0,0.0,0.0,0.0,0.0,0.0,0.0,0.0,0.0,0.0,0.0,0.0,0.0,0.0,0.0,0.0,0.0,0.0,0.0,0.0,0.0,0.0,0.0,0.0,0.0,0.0,0.0,0.0,0.0,0.0,0.0,0.0,0.0,0.0,0.0,0.0,0.0,0.0,0.0,0.0,0.0,0.0,0.0,0.0,0.0,0.0,0.0,0.0,0.0,0.0,0.0,0.0,0.0,0.0,0.0,0.0,0.0,0.0,0.0,0.0,0.0,0.0,0.0,0.0,0.0,0.0,0.0,0.0,0.0,0.0,0.0,0.0,0.0,0.0,0.0,0.0,0.0,0.0,0.0,0.0,0.0,0.0,0.0,0.0,0.0,0.0,0.0,0.0,-0.447,-0.4357,-0.4361,-0.4468,-0.4095,-0.387,0.0,0.0,0.0,0.0,0.0,0.0,0.0,0.0,0.0,0.0,0.0,0.0,0.0,0.0,0.0,0.0,0.0,0.0,0.0,0.0,0.0,0.0,0.0,0.0,0.0,0.0,0.0,0.0,0.0,0.0,0.0,0.0,0.0,0.0,0.0,0.0,0.0,0.0,0.0,0.0,0.0,0.0,0.0,0.0,0.0,0.0,0.0,0.0,0.0,0.0,0.0,0.0,0.0,0.0,0.0,0.0,0.0,0.0,0.0,0.0,0.0,0.0,0.0,0.0,0.0,0.0,0.0,0.0,0.0,0.0,0.0,0.0,0.0,0.0,0.0,0.0,0.0,0.0,0.0,0.0,0.0,0.0,0.0,0.0,0.0,0.0,0.0,0.0,0.0,0.0,0.0,0.0,0.0,0.0,0.0,0.0,0.0,0.0,0.0,0.0,0.0,0.0,0.0,0.0,0.0,0.0,0.0,0.0,0.0,-0.4723,-0.4723,-0.4758,-0.4853,-0.4463,-0.4186,-0.4096,0.0,0.0,0.0,0.0,0.0,0.0,0.0,0.0,0.0,0.0,0.0,0.0,0.0,0.0,0.0,0.0,0.0,0.0,0.0,0.0,0.0,0.0,0.0,0.0,0.0,0.0,0.0,0.0,0.0,0.0,0.0,0.0,0.0,0.0,0.0,0.0,0.0,0.0,0.0,0.0,0.0,0.0,0.0,0.0,0.0,0.0,0.0,0.0,0.0,0.0,0.0,0.0,0.0,0.0,0.0,0.0,0.0,0.0,0.0,0.0,0.0,0.0,0.0,0.0,0.0,0.0,0.0,0.0,0.0,0.0,0.0,0.0,0.0,0.0,0.0,0.0,0.0,0.0,0.0,0.0,0.0,0.0,0.0,0.0,0.0,0.0,0.0,0.0,0.0,0.0,0.0,0.0,0.0,0.0,0.0,0.0,0.0,0.0,0.0,0.0,0.0,0.0,0.0,0.0,0.0,0.0,0.0,0.0,-0.5151,-0.5171,-0.5234,-0.5321,-0.4977,-0.4654,0.0,0.0,0.0,0.0,0.0,0.0,0.0,0.0,0.0,0.0,0.0,0.0,0.0,0.0,0.0,0.0,0.0,0.0,0.0,0.0,0.0,0.0,0.0,0.0,0.0,0.0,0.0,0.0,0.0,0.0,0.0,0.0,0.0,0.0,0.0,0.0,0.0,0.0,0.0,0.0,0.0,0.0,0.0,0.0,0.0,0.0,0.0,0.0,0.0,0.0,0.0,0.0,0.0,0.0,0.0,0.0,0.0,0.0,0.0,0.0,0.0,0.0,0.0,0.0,0.0,0.0,0.0,0.0,0.0,0.0,0.0,0.0,0.0,0.0,0.0,0.0,0.0,0.0,0.0,0.0,0.0,0.0,0.0,0.0,0.0,0.0,0.0,0.0,0.0,0.0,0.0,0.0,0.0,0.0,0.0,0.0,0.0,0.0,0.0,0.0,0.0,0.0,0.0,0.0,0.0,0.0,0.0,0.0,0.0,-0.5694,-0.5933,-0.5965,-0.5746,-0.5111,-0.4828,0.0,0.0,0.0,0.0,0.0,0.0,0.0,0.0,0.0,0.0,0.0,0.0,0.0,0.0,0.0,0.0,0.0,0.0,0.0,0.0,0.0,0.0,0.0,0.0,0.0,0.0,0.0,0.0,0.0,0.0,0.0,0.0,0.0,0.0,0.0,0.0,0.0,0.0,0.0,0.0,0.0,0.0,0.0,0.0,0.0,0.0,0.0,0.0,0.0,0.0,0.0,0.0,0.0,0.0,0.0,0.0,0.0,0.0,0.0,0.0,0.0,0.0,0.0,0.0,0.0,0.0,0.0,0.0,0.0,0.0,0.0,0.0,0.0,0.0,0.0,0.0,0.0,0.0,0.0,0.0,0.0,0.0,0.0,0.0,0.0,0.0,0.0,0.0,0.0,0.0,0.0,0.0,0.0,0.0,0.0,0.0,0.0,0.0,0.0,0.0,0.0,0.0,0.0,0.0,0.0,0.0,0.0,0.0,-0.5686,-0.5863,-0.6302,-0.6432,-0.6233,-0.5702,-0.5339,0.0,0.0,0.0,0.0,0.0,0.0,0.0,0.0,0.0,0.0,0.0,0.0,0.0,0.0,0.0,0.0,0.0,0.0,0.0,0.0,0.0,0.0,0.0,0.0,0.0,0.0,0.0,0.0,0.0,0.0,0.0,0.0,0.0,0.0,0.0,0.0,0.0,0.0,0.0,0.0,0.0,0.0,0.0,0.0,0.0,0.0,0.0,0.0,0.0,0.0,0.0,0.0,0.0,0.0,0.0,0.0,0.0,0.0,0.0,0.0,0.0,0.0,0.0,0.0,0.0,0.0,0.0,0.0,0.0,0.0,0.0,0.0,0.0,0.0,0.0,0.0,0.0,0.0,0.0,0.0,0.0,0.0,0.0,0.0,0.0,0.0,0.0,0.0,0.0,0.0,0.0,0.0,0.0,0.0,0.0,0.0,0.0,0.0,0.0,0.0,0.0,0.0,0.0,0.0,0.0,0.0,0.0,0.0,-0.5988,-0.586,-0.6416,-0.6747,-0.6708,-0.6347,-0.5898,0.0,0.0,0.0,0.0,0.0,0.0,0.0,0.0,0.0,0.0,0.0,0.0,0.0,0.0,0.0,0.0,0.0,0.0,0.0,0.0,0.0,0.0,0.0,0.0,0.0,0.0,0.0,0.0,0.0,0.0,0.0,0.0,0.0,0.0,0.0,0.0,0.0,0.0,0.0,0.0,0.0,0.0,0.0,0.0,0.0,0.0,0.0,0.0,0.0,0.0,0.0,0.0,0.0,0.0,0.0,0.0,0.0,0.0,0.0,0.0,0.0,0.0,0.0,0.0,0.0,0.0,0.0,0.0,0.0,0.0,0.0,0.0,0.0,0.0,0.0,0.0,0.0,0.0,0.0,0.0,0.0,0.0,0.0,0.0,0.0,0.0,0.0,0.0,0.0,0.0,0.0,0.0,0.0,0.0,0.0,0.0,0.0,0.0,0.0,0.0,0.0,0.0,0.0,0.0,0.0,0.0,0.0,0.0,-0.6339,-0.614,-0.6666,-0.6931,-0.6931,-0.6136,-0.5673,0.0,0.0,0.0,0.0,0.0,0.0,0.0,0.0,0.0,0.0,0.0,0.0,0.0,0.0,0.0,0.0,0.0,0.0,0.0,0.0,0.0,0.0,0.0,0.0,0.0,0.0,0.0,0.0,0.0,0.0,0.0,0.0,0.0,0.0,0.0,0.0,0.0,0.0,0.0,0.0,0.0,0.0,0.0,0.0,0.0,0.0,0.0,0.0,-0.039,0.0,0.0,0.0,0.0,0.0,0.0,0.0,0.0,0.0,0.0,0.0,0.0,0.0,0.0,0.0,0.0,0.0,0.0,0.0,0.0,0.0,0.0,0.0,0.0,0.0,0.0,0.0,0.0,0.0,0.0,0.0,0.0,0.0,0.0,0.0,0.0,0.0,0.0,0.0,0.0,0.0,0.0,0.0,0.0,0.0,0.0,0.0,0.0,0.0,0.0,0.0,0.0,0.0,0.0,0.0,0.0,0.0,0.0,0.0,-0.6601,-0.654,-0.6733,-0.6939,-0.7041,-0.629,-0.5823,0.0,0.0,0.0,0.0,0.0,0.0,0.0,0.0,0.0,0.0,0.0,0.0,0.0,0.0,0.0,0.0,0.0,0.0,0.0,0.0,0.0,0.0,0.0,0.0,0.0,0.0,0.0,0.0,0.0,0.0,0.0,0.0,0.0,0.0,0.0,0.0,0.0,0.0,0.0,0.0,0.0,0.0,0.0,0.0,0.0,0.0,0.0,0.0,0.0,0.0,0.0,0.0,0.0,0.0,0.0,0.0,0.0,0.0,0.0,0.0,0.0,0.0,0.0,0.0,0.0,0.0,0.0,0.0,0.0,0.0,0.0,0.0,0.0,0.0,0.0,0.0,0.0,0.0,0.0,0.0,0.0,0.0,0.0,0.0,0.0,0.0,0.0,0.0,0.0,0.0,0.0,0.0,0.0,0.0,0.0,0.0,0.0,0.0,0.0,0.0,0.0,0.0,0.0,0.0,0.0,0.0,0.0,-0.647,-0.6767,-0.693,-0.6843,-0.6899,-0.7163,-0.6596,-0.6139,-0.5882,0.0,0.0,0.0,0.0,0.0,0.0,0.0,0.0,0.0,0.0,0.0,0.0,0.0,0.0,0.0,0.0,0.0,0.0,0.0,0.0,0.0,0.0,0.0,0.0,0.0,0.0,0.0,0.0,0.0,0.0,0.0,0.0,0.0,0.0,0.0,0.0,0.0,0.0,-0.0679,-0.0893,0.0,0.0,0.0,0.0,0.0,0.0,0.0,0.0,-0.1094,0.0,0.0,0.0,0.0,0.0,0.0,0.0,0.0,0.0,0.0,0.0,0.0,0.0,0.0,0.0,0.0,0.0,0.0,0.0,0.0,0.0,0.0,0.0,0.0,0.0,0.0,0.0,0.0,0.0,0.0,0.0,0.0,0.0,0.0,0.0,0.0,0.0,0.0,0.0,0.0,0.0,0.0,0.0,0.0,0.0,0.0,0.0,0.0,0.0,0.0,0.0,0.0,0.0,0.0,0.0,0.0,-0.6737,-0.6967,-0.7159,-0.7245,-0.715,-0.709,-0.7033,-0.6775,-0.6306,-0.5689,0.0,0.0,0.0,0.0,0.0,0.0,0.0,0.0,0.0,0.0,0.0,0.0,0.0,0.0,0.0,0.0,0.0,0.0,0.0,0.0,0.0,0.0,0.0,0.0,0.0,0.0,0.0,0.0,0.0,0.0,0.0,0.0,0.0,0.0,0.0,0.0,0.0,0.0,0.0,-0.1972,-0.2116,0.0,0.0,0.0,0.0,0.0,0.0,0.0,0.0,-0.2722,0.0,0.0,0.0,0.0,0.0,0.0,0.0,0.0,0.0,0.0,0.0,0.0,0.0,0.0,0.0,0.0,0.0,0.0,0.0,0.0,0.0,0.0,0.0,0.0,0.0,0.0,0.0,0.0,0.0,0.0,0.0,0.0,0.0,0.0,0.0,0.0,0.0,0.0,0.0,0.0,0.0,0.0,0.0,0.0,0.0,0.0,0.0,0.0,0.0,0.0,0.0,0.0,0.0,0.0,0.0,-0.6687,-0.7027,-0.7294,-0.7541,-0.7168,-0.6993,-0.7078,-0.6686,-0.6237,0.0,0.0,0.0,0.0,0.0,0.0,0.0,0.0,0.0,0.0,0.0,0.0,0.0,0.0,0.0,0.0,0.0,0.0,0.0,0.0,0.0,0.0,0.0,0.0,0.0,0.0,0.0,0.0,0.0,0.0,0.0,0.0,0.0,0.0,0.0,0.0,0.0,0.0,0.0,0.0,-0.2526,-0.2704,-0.2542,0.0,0.0,0.0,0.0,0.0,0.0,-0.2971,-0.3192,0.0,0.0,0.0,0.0,0.0,0.0,0.0,0.0,0.0,0.0,0.0,0.0,0.0,0.0,0.0,0.0,0.0,0.0,0.0,0.0,0.0,0.0,0.0,0.0,0.0,0.0,0.0,0.0,0.0,0.0,0.0,0.0,0.0,0.0,0.0,0.0,0.0,0.0,0.0,0.0,0.0,0.0,0.0,0.0,0.0,0.0,0.0,0.0,0.0,0.0,0.0,0.0,0.0,0.0,0.0,-0.6643,-0.7071,-0.7434,-0.7788,-0.7202,-0.6999,-0.72,-0.6592,-0.6135,0.0,0.0,0.0,0.0,0.0,0.0,0.0,0.0,0.0,0.0,0.0,0.0,0.0,0.0,0.0,0.0,0.0,0.0,0.0,0.0,0.0,0.0,0.0,0.0,0.0,0.0,0.0,0.0,0.0,0.0,0.0,0.0,0.0,0.0,0.0,0.0,0.0,0.0,0.0,0.0,0.0,-0.347,-0.3482,-0.3546,0.0,0.0,0.0,0.0,-0.3493,-0.3754,0.0,0.0,0.0,0.0,0.0,0.0,0.0,0.0,0.0,0.0,0.0,0.0,0.0,0.0,0.0,0.0,0.0,0.0,0.0,0.0,0.0,0.0,0.0,0.0,0.0,0.0,0.0,0.0,0.0,0.0,0.0,0.0,0.0,0.0,0.0,0.0,0.0,0.0,0.0,0.0,0.0,0.0,0.0,0.0,0.0,0.0,0.0,0.0,0.0,0.0,0.0,0.0,0.0,0.0,0.0,0.0,-0.71,-0.7348,-0.7646,-0.8023,-0.7629,-0.7327,-0.7179,-0.668,-0.6229,0.0,0.0,0.0,0.0,0.0,0.0,0.0,0.0,0.0,0.0,0.0,0.0,0.0,0.0,0.0,0.0,0.0,0.0,0.0,0.0,0.0,0.0,0.0,0.0,0.0,0.0,0.0,0.0,0.0,0.0,0.0,0.0,0.0,0.0,0.0,0.0,0.0,0.0,0.0,0.0,0.0,-0.5087,-0.431,-0.4307,-0.4186,0.0,0.0,-0.479,-0.479,-0.5538,0.0,0.0,0.0,0.0,0.0,0.0,0.0,0.0,0.0,0.0,0.0,0.0,0.0,0.0,0.0,0.0,0.0,0.0,0.0,0.0,0.0,0.0,0.0,0.0,0.0,0.0,0.0,0.0,0.0,0.0,0.0,0.0,0.0,0.0,0.0,0.0,0.0,0.0,0.0,0.0,0.0,0.0,0.0,0.0,0.0,0.0,0.0,0.0,0.0,0.0,0.0,0.0,0.0,0.0,0.0,-0.6791,-0.7456,-0.7405,-0.7478,-0.7718,-0.7301,-0.704,-0.707,-0.6453,-0.6091,0.0,0.0,0.0,0.0,0.0,0.0,0.0,0.0,0.0,0.0,0.0,0.0,0.0,0.0,0.0,0.0,0.0,0.0,0.0,0.0,0.0,0.0,0.0,0.0,0.0,0.0,0.0,0.0,0.0,0.0,0.0,0.0,0.0,0.0,0.0,0.0,0.0,0.0,0.0,0.0,0.0,0.0,-0.5525,-0.5486,0.0,0.0,0.0,-0.5682,-0.5686,0.0,0.0,0.0,0.0,0.0,0.0,0.0,0.0,0.0,0.0,0.0,0.0,0.0,0.0,0.0,0.0,0.0,0.0,0.0,0.0,0.0,0.0,0.0,0.0,0.0,0.0,0.0,0.0,0.0,0.0,0.0,0.0,0.0,0.0,0.0,0.0,0.0,0.0,0.0,0.0,0.0,0.0,0.0,0.0,0.0,0.0,0.0,0.0,0.0,0.0,0.0,0.0,0.0,0.0,0.0,0.0,0.0,-0.776,-0.7647,-0.7693,-0.7861,-0.722,-0.6958,-0.7174,-0.6388,0.0,0.0,0.0,0.0,0.0,0.0,0.0,0.0,0.0,0.0,0.0,0.0,0.0,0.0,0.0,0.0,0.0,0.0,0.0,0.0,0.0,0.0,0.0,0.0,0.0,0.0,0.0,-0.3182,0.0,0.0,0.0,0.0,0.0,0.0,0.0,0.0,0.0,0.0,0.0,0.0,0.0,0.0,-0.6085,-0.6444,-0.64,-0.638,0.0,0.0,-0.6331,-0.6371,-0.6571,-0.6522,0.0,0.0,0.0,0.0,0.0,0.0,0.0,0.0,0.0,0.0,0.0,0.0,0.0,0.0,0.0,0.0,0.0,0.0,0.0,0.0,0.0,0.0,0.0,0.0,0.0,0.0,0.0,0.0,0.0,0.0,0.0,0.0,0.0,0.0,0.0,0.0,0.0,0.0,0.0,0.0,0.0,0.0,0.0,0.0,0.0,0.0,0.0,0.0,0.0,0.0,0.0,0.0,0.0,0.0,-0.7832,-0.7903,-0.8425,-0.8755,-0.8943,-0.7836,-0.7429,-0.7728,-0.673,-0.6245,0.0,0.0,0.0,0.0,0.0,0.0,0.0,0.0,0.0,0.0,0.0,0.0,0.0,0.0,0.0,0.0,0.0,0.0,0.0,0.0,0.0,0.0,0.0,0.0,0.0,0.0,0.0,0.0,0.0,0.0,0.0,0.0,0.0,0.0,0.0,0.0,0.0,0.0,0.0,0.0,0.0,-0.6643,-0.6694,-0.666,-0.6721,0.0,-0.6808,-0.6712,-0.691,-0.722,-0.7155,-0.6298,0.0,0.0,0.0,0.0,0.0,0.0,0.0,0.0,0.0,0.0,0.0,0.0,0.0,0.0,0.0,0.0,0.0,0.0,0.0,0.0,0.0,0.0,0.0,0.0,0.0,0.0,0.0,0.0,0.0,0.0,0.0,0.0,0.0,0.0,0.0,0.0,0.0,0.0,0.0,0.0,0.0,0.0,0.0,0.0,0.0,0.0,0.0,0.0,0.0,0.0,0.0,0.0,0.0,-0.8273,-0.8198,-0.8808,-0.8783,-0.8129,-0.7719,-0.7468,-0.7298,-0.6568,-0.6212,0.0,0.0,0.0,0.0,0.0,0.0,0.0,0.0,0.0,0.0,0.0,0.0,0.0,0.0,0.0,0.0,0.0,0.0,0.0,0.0,0.0,0.0,0.0,0.0,0.0,0.0,0.0,0.0,-0.4249,-0.4447,-0.4738,0.0,0.0,0.0,0.0,0.0,0.0,0.0,0.0,0.0,0.0,-0.6967,-0.718,-0.7175,0.0,0.0,-0.7297,-0.7204,-0.7306,-0.7245,-0.7037,-0.658,-0.6262,0.0,0.0,0.0,0.0,0.0,0.0,0.0,0.0,0.0,0.0,0.0,0.0,0.0,0.0,0.0,0.0,0.0,0.0,0.0,0.0,0.0,0.0,0.0,0.0,0.0,0.0,0.0,0.0,0.0,0.0,0.0,0.0,0.0,0.0,0.0,0.0,0.0,0.0,0.0,0.0,0.0,0.0,0.0,0.0,0.0,0.0,0.0,0.0,0.0,0.0,0.0,0.0,-0.8927,-0.8734,-0.9623,-0.957,-0.845,-0.8255,-0.797,-0.7646,-0.6844,-0.6497,0.0,0.0,0.0,0.0,0.0,0.0,0.0,0.0,0.0,0.0,0.0,0.0,0.0,0.0,0.0,0.0,0.0,0.0,0.0,0.0,0.0,0.0,0.0,0.0,0.0,0.0,0.0,0.0,-0.4812,-0.5051,-0.537,0.0,0.0,0.0,0.0,0.0,0.0,0.0,0.0,0.0,0.0,-0.7638,-0.7829,-0.7863,-0.7799,-0.7737,-0.7748,-0.7702,-0.7445,-0.7459,-0.7425,-0.7207,0.0,0.0,0.0,0.0,0.0,0.0,0.0,0.0,0.0,0.0,0.0,0.0,0.0,0.0,0.0,0.0,0.0,0.0,0.0,0.0,0.0,0.0,0.0,0.0,0.0,0.0,0.0,-0.7653,0.0,0.0,-0.6974,0.0,0.0,0.0,0.0,0.0,0.0,0.0,0.0,0.0,0.0,0.0,0.0,0.0,0.0,0.0,0.0,0.0,0.0,0.0,0.0,0.0,0.0,-0.9838,-0.9411,-1.1034,-1.1462,-1.0527,-0.9638,-0.915,-0.9005,-0.7735,-0.7173,-0.7627,0.0,0.0,0.0,0.0,0.0,0.0,0.0,0.0,0.0,0.0,0.0,0.0,0.0,0.0,0.0,0.0,0.0,0.0,0.0,0.0,0.0,0.0,0.0,0.0,0.0,0.0,-0.5065,-0.5515,-0.5876,0.0,0.0,0.0,0.0,0.0,0.0,0.0,0.0,0.0,-0.8564,-0.8766,-0.8794,-0.8703,-0.867,-0.843,-0.7705,-0.8069,-0.8153,-0.7447,-0.8041,-0.8585,0.0,0.0,0.0,0.0,0.0,0.0,0.0,0.0,0.0,0.0,0.0,0.0,0.0,0.0,0.0,0.0,0.0,0.0,0.0,0.0,0.0,0.0,0.0,0.0,0.0,0.0,0.0,-0.9417,-0.8985,0.0,0.0,0.0,0.0,0.0,0.0,0.0,0.0,0.0,0.0,0.0,-0.9977,-1.0155,0.0,0.0,0.0,0.0,0.0,0.0,0.0,0.0,0.0,0.0,0.0,0.0,-1.0314,-1.0164,-1.1794,-1.2146,-1.1089,-1.0955,-1.0182,-0.8735,-0.8111,-0.7674,-0.7363,0.0,0.0,0.0,0.0,0.0,0.0,0.0,0.0,0.0,0.0,0.0,0.0,0.0,0.0,0.0,0.0,0.0,0.0,0.0,0.0,0.0,0.0,0.0,0.0,0.0,-0.5862,0.0,0.0,0.0,0.0,0.0,0.0,0.0,0.0,0.0,0.0,-0.8415,-0.9128,-0.9386,-0.9526,-0.958,-0.9697,-0.998,-1.005,0.0,0.0,0.0,0.0,0.0,0.0,0.0,0.0,0.0,0.0,0.0,0.0,0.0,0.0,-0.9972,-0.76,-0.7097,-0.6908,-0.6436,0.0,0.0,0.0,0.0,0.0,0.0,0.0,0.0,0.0,0.0,0.0,0.0,0.0,0.0,-1.1562,-1.1226,-1.0885,0.0,0.0,0.0,0.0,0.0,0.0,0.0,0.0,-1.0699,-1.0938,-1.1099,-1.1319,-1.148,-1.1567,-1.1472,-1.0777,0.0,0.0,0.0,0.0,0.0,0.0,0.0,0.0,-1.1052,-1.1042,-1.2727,-1.3102,-1.2034,-1.2085,-1.1412,-0.9867,-0.9348,-0.8586,-0.7512,-0.6894,-0.6729,0.0,0.0,0.0,0.0,0.0,0.0,0.0,0.0,0.0,0.0,0.0,0.0,0.0,0.0,0.0,0.0,0.0,0.0,0.0,0.0,0.0,0.0,0.0,-0.6316,0.0,0.0,0.0,0.0,0.0,0.0,0.0,0.0,0.0,-0.9253,-0.9981,-1.0748,-1.1058,-1.0915,-1.0869,-1.0959,0.0,0.0,0.0,0.0,0.0,0.0,0.0,-1.0726,-1.1129,-1.1097,-1.1188,-1.1772,-1.2584,-1.2952,-1.2439,0.0,0.0,-0.9504,-0.8865,-0.8599,-0.8107,-0.8221,-0.8268,-0.7829,-0.7895,-0.7901,0.0,0.0,0.0,0.0,-1.2473,0.0,0.0,0.0,-1.4382,-1.4336,0.0,-1.3356,0.0,0.0,0.0,0.0,-1.2118,-1.25,0.0,0.0,-1.3565,-1.3336,-1.22,-1.2785,-1.289,-1.2543,-1.2848,-1.265,-1.1908,-1.0442,0.0,0.0,0.0,0.0,0.0,0.0,-1.2018,-1.212,-1.3878,-1.4337,-1.3331,-1.3153,-1.2795,-1.2254,-1.1271,-0.9883,-0.8213,-0.7451,-0.7131,-0.7255,-0.558,0.0,0.0,0.0,0.0,0.0,0.0,0.0,0.0,0.0,0.0,0.0,0.0,0.0,0.0,0.0,0.0,0.0,0.0,0.0,0.0,-0.685,0.0,0.0,0.0,0.0,0.0,0.0,0.0,0.0,0.0,-1.1884,-1.1143,-1.2005,-1.2941,-1.3447,0.0,0.0,0.0,0.0,-1.2257,-1.1133,-1.1583,-1.1764,-1.0852,-1.1664,-1.2471,-1.2632,0.0,0.0,-1.4175,-1.4142,-1.4168,-1.4148,-1.4339,-1.3838,-1.1758,-1.0933,-1.06,-1.0522,-1.0708,-1.0573,-0.9562,-0.9489,-0.9359,-1.6296,0.0,0.0,0.0,0.0,-1.5365,-1.5535,-1.5825,-1.6438,-1.6131,-1.5133,-1.4876,0.0,0.0,0.0,0.0,0.0,0.0,-1.4763,-1.4983,-1.5057,-1.4712,-1.4084,-1.4597,-1.4312,-1.3228,-1.3309,-1.3023,-1.2346,-1.1919,-1.118,-1.0234,0.0,0.0,0.0,0.0,-1.2346,-1.3082,-1.3857,-1.4094,-1.3815,-1.3991,-1.3477,-1.2268,-1.079,-1.0119,-1.0284,-0.9744,-0.9432,-0.9331,-0.8745,0.0,0.0,0.0,0.0,0.0,0.0,0.0,0.0,0.0,0.0,0.0,0.0,0.0,0.0,0.0,0.0,0.0,0.0,0.0,-0.7589,-0.8041,-0.8425,0.0,0.0,0.0,0.0,0.0,0.0,0.0,0.0,0.0,-1.3625,-1.3631,-1.3834,0.0,0.0,-1.3701,-1.3736,-1.3862,-1.3923,-1.374,-1.3959,0.0,-1.3769,-1.3636,-1.3756,-1.4248,-1.4807,-1.5117,-1.5037,-1.519,-1.5331,-1.5324,-1.5231,-1.4896,-1.4328,-1.339,-1.2537,-1.192,-1.18,-1.1783,-1.1416,-1.1404,-1.1375,-1.9148,-1.7911,-1.6724,-1.6498,-1.6922,-1.7108,-1.7408,-1.7792,-1.8309,-1.8132,-1.7441,-1.7091,-1.6352,-1.5362,-1.528,0.0,0.0,0.0,-1.683,-1.7369,-1.6934,-1.6536,-1.6221,-1.6478,-1.5917,-1.4698,-1.469,-1.4336,-1.3638,-1.3638,-1.3221,-1.2314,0.0,-1.1648,-1.1663,-1.2292,-1.2906,-1.3484,-1.3983,-1.4172,-1.4218,-1.437,-1.3856,-1.2551,-1.167,-1.1246,-1.1305,-1.0914,-1.0686,-1.0724,-0.9946,-0.9439,0.0,0.0,0.0,0.0,0.0,0.0,0.0,0.0,0.0,0.0,0.0,-0.7393,-0.6905,0.0,0.0,0.0,-0.8017,-0.8315,-0.8823,-0.9119,0.0,0.0,0.0,0.0,0.0,0.0,0.0,-1.2807,-1.4008,-1.4907,-1.5161,-1.4979,-1.4998,-1.5403,-1.4912,-1.4653,-1.4957,0.0,-1.5041,-1.521,-1.5236,-1.527,-1.527,-1.4984,-1.4909,-1.5231,-1.5451,-1.5565,-1.5571,-1.5718,-1.5825,-1.5805,-1.5685,-1.5571,-1.5571,-1.4948,-1.4237,-1.3498,-1.3397,-1.3336,-1.2877,-1.2843,-1.2791,-2.1176,-2.0959,-1.8442,-1.7626,-1.7998,-1.8433,-1.9088,-1.9834,-1.9886,-2.0058,-2.0271,-1.9533,-1.8833,-1.8271,-1.7451,0.0,-1.9207,-1.869,-1.8829,-1.961,-1.9056,-1.8581,-1.8165,-1.8174,-1.7622,-1.6458,-1.6482,-1.6124,-1.535,-1.5352,-1.5221,-1.4863,-1.3419,-1.266,-1.2716,-1.3243,-1.3543,-1.3579,-1.4136,-1.4482,-1.4504,-1.4482,-1.4034,-1.3126,-1.3323,-1.2862,-1.1679,-1.1276,-1.1216,-1.1458,-0.9857,-0.9467,-1.0494,0.0,0.0,0.0,0.0,0.0,0.0,0.0,0.0,0.0,0.0,0.0,0.0,0.0,0.0,0.0,-0.8908,0.0,-1.0416,-1.0166,0.0,0.0,0.0,-1.1791,-1.2593,-1.3376,-1.4046,-1.4612,0.0,0.0,-1.6027,-1.6147,-1.6246,-1.6497,-1.5805,-1.5466,-1.6043,-1.5941,-1.5786,-1.5756,-1.5749,-1.5742,-1.5722,-1.5707,-1.5703,-1.5725,-1.5825,-1.5812,-1.5812,-1.5771,-1.5825,-1.5825,-1.5825,-1.5818,-1.5825,-1.5744,-1.5671,-1.5105,-1.5212,-1.5022,-1.407,-1.3998,-1.3851,-2.1642,-2.159,-2.0938,-2.0498,-2.0317,-2.042,-2.04,-2.0307,-2.0638,-2.0462,-1.9948,-1.972,-1.9575,-1.9414,-1.9503,-1.9951,-2.0602,-2.0477,-2.052,-2.0687,-2.0564,-1.9907,-1.8833,-1.9136,-1.8219,-1.6319,-1.6408,-1.5999,-1.5072,-1.5265,-1.5221,-1.49,-1.4513,-1.4253,-1.4011,-1.3916,-1.3989,-1.4276,-1.4181,-1.4254,-1.4489,-1.4262,-1.4027,-1.3792,-1.3345,-1.2983,-1.2643,-1.2078,-1.18,-1.1869,-1.1245,-1.0936,-1.096,-0.9278,0.0,0.0,0.0,0.0,0.0,0.0,0.0,0.0,0.0,-0.895,-0.7986,0.0,-0.9551,0.0,-1.0403,-1.1073,-1.1283,-1.176,0.0,0.0,-1.3039,-1.3414,-1.4144,-1.4309,-1.4601,-1.5262,-1.5708,-1.6157,-1.6597,-1.688,-1.699,-1.6865,-1.6364,-1.6107,-1.6352,-1.6419,-1.6411,-1.635,-1.639,-1.6325,-1.6085,-1.5913,-1.5792,-1.5818,-1.5825,-1.5825,-1.5825,-1.5825,-1.5825,-1.5825,-1.5825,-1.5825,-1.5825,-1.5825,-1.5738,-1.5651,-1.5678,-1.5611,-1.535,-1.5289,-1.5267,-2.2418,-2.2418,-2.2418,-2.2149,-2.1714,-2.1518,-2.1242,-2.1062,-2.1311,-2.1145,-2.0705,-2.0669,-2.0829,-2.1016,-2.1238,-2.1563,-2.2025,-2.2035,-2.2035,-2.2035,-2.1828,-2.1418,-2.0851,-2.0911,-2.011,-1.8554,-1.8155,-1.7401,-1.6407,-1.6156,-1.5972,-1.5796,-1.59,-1.5774,-1.534,-1.4614,-1.4328,-1.4504,-1.4328,-1.4254,-1.4253,-1.4355,-1.4136,-1.3572,-1.3484,-1.3236,-1.2811,-1.2273,-1.1996,-1.1989,-1.1597,-1.1298,-1.1092,-0.9784,-0.9123,0.0,0.0,0.0,0.0,0.0,0.0,0.0,0.0,0.0,0.0,0.0,-1.03,-1.0768,-1.1721,-1.2423,-1.2742,-1.3205,-1.3753,-1.4372,-1.4517,-1.4791,-1.5496,-1.5458,-1.5622,-1.6156,-1.6264,-1.6422,-1.6707,-1.6897,-1.6958,-1.6831,-1.6643,-1.6586,-1.6679,-1.6678,-1.6676,-1.6864,-1.6824,-1.6643,-1.6272,-1.6076,-1.5933,-1.5832,-1.5825,-1.5825,-1.5825,-1.5825,-1.5825,-1.5825,-1.5825,-1.5825,-1.5825,-1.5825,-1.5825,-1.5825,-1.5825,-1.5825,-1.5825,-1.5825,-1.5825,-2.3194,-2.3194,-2.3194,-2.2956,-2.2553,-2.2149,-2.1911,-2.1807,-2.1807,-2.1838,-2.1901,-2.1952,-2.2211,-2.2584,-2.2584,-2.2801,-2.3184,-2.3194,-2.3194,-2.3163,-2.278,-2.2801,-2.3174,-2.278,-2.2161,-2.1352,-2.0343,-1.9204,-1.8028,-1.7281,-1.6939,-1.6917,-1.7128,-1.696,-1.6389,-1.5303,-1.4709,-1.4596,-1.4589,-1.4474,-1.4121,-1.4572,-1.4265,-1.3162,-1.3579,-1.344,-1.2529,-1.2171,-1.1996,-1.1981,-1.1494,-1.1224,-1.118,-1.0353,-0.9848,0.0,-0.9292,0.0,0.0,0.0,0.0,0.0,0.0,0.0,0.0,-1.098,-1.126,-1.221,-1.3042,-1.3767,-1.4367,-1.4577,-1.4956,-1.5605,-1.577,-1.5964,-1.6433,-1.6518,-1.6625,-1.6951,-1.6777,-1.6636,-1.6716,-1.6676,-1.6676,-1.6636,-1.6777,-1.6831,-1.6871,-1.673,-1.6777,-1.7145,-1.7059,-1.6737,-1.6359,-1.6265,-1.617,-1.5974,-1.5879,-1.5879,-1.5879,-1.5832,-1.5825,-1.5825,-1.5825,-1.5825,-1.5825,-1.5825,-1.5825,-1.5825,-1.5825,-1.5825,-1.5825,-1.5825,-1.5825,-2.3194,-2.3194,-2.3194,-2.3132,-2.3049,-2.2956,-2.249,-2.1807,-2.1807,-2.2025,-2.2387,-2.277,-2.2977,-2.306,-2.306,-2.3091,-2.3194,-2.3194,-2.3194,-2.3174,-2.3101,-2.3101,-2.3174,-2.3101,-2.2035,-2.0223,-2.0187,-1.9125,-1.7161,-1.7215,-1.7106,-1.691,-1.6961,-1.68,-1.6419,0.0,0.0,0.0,-1.5255,-1.5053,-1.4732,-1.4626,-1.4187,-1.3433,-1.3265,0.0,-1.2507,-1.2171,-1.1996,-1.1996,-1.1886,0.0,0.0,0.0,0.0,0.0,0.0,0.0,0.0,0.0,0.0,0.0,-1.1719,-1.148,-1.1533,-1.2614,-1.3601,-1.4263,-1.4961,-1.5427,-1.5586,-1.5835,-1.6126,-1.6316,-1.6546,-1.6646,-1.6589,-1.6591,-1.6673,-1.6965,-1.6777,-1.677,-1.7052,-1.7192,-1.7005,-1.6676,-1.6636,-1.6595,-1.6414,-1.6697,-1.6791,-1.6501,-1.6643,-1.6643,-1.6548,-1.6494,-1.6447,-1.64,-1.6265,-1.6123,-1.6076,-1.5927,-1.5825,-1.5825,-1.5825,-1.5825,-1.5825,-1.5825,-1.5825,-1.5825,-1.5825,-1.5825,-1.5825,-1.5825,-1.5825,-2.3857,-2.3867,-2.3857,-2.3732,0.0,-2.3567,-2.3132,-2.249,-2.249,-2.2615,-2.2863,-2.337,-2.3536,-2.3567,-2.3567,-2.3525,-2.3515,-2.3287,-2.3308,-2.3505,-2.3287,-2.3432,-2.3805,-2.3018,-2.2172,-2.1182,-2.0201,-1.9134,-1.804,-1.7517,-1.7245,-1.7091,-1.7084,-1.7004,-1.685,-1.6843,-1.6528,-1.5899,-1.5891,-1.5665,-1.5163,-1.5189,-1.4648,-1.3558,-1.3653,0.0,0.0,0.0,0.0,0.0,0.0,0.0,0.0,0.0,0.0,-1.2248,-1.2116,-1.2102,-1.2288,-1.2262,-1.2655,-1.3418,-1.3777,-1.3572,-1.286,-1.4092,-1.5072,-1.5401,-1.6001,-1.6426,-1.6389,-1.666,-1.687,-1.6892,-1.6992,-1.7065,-1.6976,-1.6958,-1.7005,-1.7106,-1.6824,-1.6676,-1.6918,-1.6824,-1.673,-1.6636,-1.6588,-1.6602,-1.6602,-1.669,-1.669,-1.6602,-1.6697,-1.6737,-1.6629,-1.6447,-1.64,-1.6359,-1.617,-1.6028,-1.6028,-1.5879,-1.5825,-1.5825,-1.5825,-1.5825,-1.5825,-1.5825,-1.5825,-1.5825,-1.5825,-1.5825,-1.5825,-1.5825,-1.5825,-2.4507,-2.4507,-2.4507,-2.429,-2.4002,-2.3991,-2.3774,-2.3432,-2.335,0.0,0.0,-2.3784,-2.4002,-2.3991,-2.3991,-2.4002,-2.3971,-2.3598,-2.3629,-2.3971,-2.3608,-2.3826,-2.4413,-2.314,-2.2582,-2.2595,-2.0477,-1.9314,-1.9047,-1.787,-1.7286,-1.7286,-1.7286,-1.7286,-1.7286,-1.7286,-1.7069,-1.6609,-1.6529,-1.6177,-1.5621,-1.5745,-1.5167,-1.3784,-1.4157,-1.4012,-1.3133,-1.3097,-1.2943,-1.2594,-1.2572,-1.2606,-1.2572,-1.2572,-1.2848,-1.3345,-1.3214,-1.3287,-1.3711,-1.3748,-1.4055,-1.4797,-1.5592,-1.5635,-1.456,-1.5467,-1.6104,-1.6162,-1.6638,-1.6976,-1.6983,-1.7165,-1.7286,-1.7239,-1.7412,-1.7552,-1.7466,-1.7652,-1.7861,-1.7813,-1.7428,-1.7065,-1.7279,-1.6927,-1.6614,-1.6804,-1.6901,-1.6845,-1.698,-1.6774,-1.6588,-1.6697,-1.6744,-1.6737,-1.6541,-1.6454,-1.6265,-1.6312,-1.6076,-1.5879,-1.5879,-1.5825,-1.5825,-1.5825,-1.5825,-1.5825,-1.5825,-1.5825,-1.5825,-1.5825,-1.5825,-1.5825,-1.5825,-1.5825,-1.5825,-2.4507,-2.4507,-2.4507,-2.4456,-2.4414,-2.4404,-2.4363,-2.428,-2.3939,-2.3784,-2.3815,-2.425,-2.4404,-2.4404,-2.4414,-2.4404,-2.4404,-2.4332,-2.4352,-2.4404,-2.4342,-2.4373,-2.4497,-2.4253,-2.3664,-2.2639,-2.1302,-2.0124,-1.9093,-1.7863,-1.7286,-1.7286,-1.7286,-1.7286,-1.7286,-1.7286,-1.7235,-1.714,-1.6923,-1.6653,-1.6287,-1.576,-1.5221,-1.4718,-1.4296,-1.3865,-1.3448,-1.344,-1.3279,-1.2958,-1.2943,-1.2943,-1.2943,-1.298,-1.2987,-1.3082,-1.3294,-1.3814,-1.463,-1.4696,-1.5131,-1.6059,-1.6529,-1.6683,-1.6521,-1.6661,-1.6835,-1.7091,-1.7147,-1.726,-1.726,-1.725,-1.7239,-1.7153,-1.7978,-1.838,-1.7963,-1.8758,-1.9431,-1.9709,-1.9193,-1.8701,-1.89,-1.8394,-1.7717,-1.7717,-1.7534,-1.7605,-1.7295,-1.6732,-1.6306,-1.6319,-1.6319,-1.6319,-1.634,-1.6454,-1.6501,-1.6541,-1.6312,-1.6076,-1.6076,-1.5927,-1.5825,-1.5825,-1.5825,-1.5825,-1.5825,-1.5825,-1.5825,-1.5825,-1.5825,-1.5825,-1.5825,-1.5825,-1.5825,-2.4507,-2.4507,-2.4507,-2.4507,-2.4507,-2.4507,-2.4507,-2.4487,-2.428,-2.424,-2.426,-2.4414,-2.4507,-2.4476,-2.4291,-2.4178,-2.4167,-2.3929,-2.395,-2.4178,-2.4178,-2.4312,-2.4444,-2.381,-2.3226,-2.2595,-2.08,-1.9633,-1.9039,-1.787,-1.7286,-1.7286,-1.7286,-1.7286,-1.7286,-1.7286,-1.7286,-1.7326,-1.7186,-1.6952,-1.6683,-1.6389,-1.5965,-1.5447,-1.5167,-1.4874,-1.456,-1.4714,-1.4655,-1.4333,-1.4648,-1.4757,-1.4596,-1.4743,-1.4831,-1.4838,-1.501,-1.5248,-1.5687,-1.5884,-1.6089,-1.636,-1.6828,-1.7113,-1.7113,-1.7106,-1.7172,-1.7271,-1.7286,-1.7286,-1.7286,-1.7286,-1.7286,-1.72,-1.7699,-1.7946,-1.797,-1.8189,-1.8705,-1.8966,-1.8405,-1.8032,-1.8311,-1.7839,-1.7456,-1.747,-1.7569,-1.7569,-1.732,-1.6951,-1.6759,-1.6891,-1.676,-1.6656,-1.6587,-1.6449,-1.6421,-1.6359,-1.617,-1.6028,-1.5981,-1.5832,-1.5825,-1.5825,-1.5825,-1.5825,-1.5825,-1.5825,-1.5825,-1.5825,-1.5825,-1.5825,-1.5825,-1.5825,-1.5825,-2.4652,-2.4652,-2.4652,-2.4652,-2.4642,-2.4549,-2.4507,-2.4507,-2.4497,-2.4507,-2.4507,-2.4507,-2.4507,-2.4466,-2.4178,-2.4033,-2.3981,-2.365,-2.3691,-2.4002,-2.4033,-2.4219,-2.438,-2.3507,-2.2955,-2.2507,-2.0531,-1.936,-1.8993,-1.7917,-1.7286,-1.7286,-1.7286,-1.7286,-1.7286,-1.7286,-1.7286,-1.7286,-1.7286,-1.7208,-1.6974,-1.6939,-1.6616,-1.6177,-1.6045,-1.587,-1.5535,-1.5782,-1.576,-1.544,-1.5899,-1.6052,-1.5833,-1.6023,-1.6155,-1.6155,-1.6155,-1.6221,-1.6419,-1.6785,-1.6903,-1.6623,-1.704,-1.7286,-1.7286,-1.7286,-1.7286,-1.7286,-1.7286,-1.7286,-1.7286,-1.7286,-1.7372,-1.7606,-1.7907,-1.8418,-1.8657,-1.8772,-1.8812,-1.892,-1.8443,-1.8124,-1.7738,-1.7413,-1.7339,-1.7505,-1.7514,-1.7514,-1.7369,-1.7275,-1.7312,-1.7388,-1.7196,-1.6918,-1.6884,-1.6587,-1.6341,-1.6259,-1.6089,-1.5966,-1.5879,-1.5825,-1.5825,-1.5825,-1.5825,-1.5825,-1.5825,-1.5825,-1.5825,-1.5825,-1.5825,-1.5825,-1.5825,-1.5825,-1.5825,-2.5117,-2.5127,-2.5117,-2.5117,-2.5086,-2.4704,-2.4538,-2.4528,-2.4507,-2.4507,-2.4528,-2.4507,-2.4507,-2.4497,-2.4445,-2.4414,-2.4414,-2.4394,-2.4383,-2.4414,-2.4435,-2.4466,-2.4497,-2.4368,-2.3777,-2.2639,-2.1311,-2.0096,-1.9085,-1.787,-1.7286,-1.7286,-1.7286,-1.7286,-1.7286,-1.7286,-1.7286,-1.7286,-1.7286,-1.7264,-1.7274,-1.7049,-1.6873,-1.6815,-1.6521,-1.6191,-1.5906,-1.5856,-1.5732,-1.5425,-1.5484,-1.5491,-1.5476,-1.5484,-1.5498,-1.5562,-1.5555,-1.5752,-1.6389,-1.6938,-1.7206,-1.7245,-1.7228,-1.7286,-1.7286,-1.7286,-1.7286,-1.7286,-1.7286,-1.7286,-1.7286,-1.7293,-1.7636,-1.8388,-1.9315,-2.053,-2.1107,-2.25,-2.2892,-2.2329,-2.09,-2.0708,-1.9462,-1.8824,-1.8459,-1.8085,-1.7915,-1.7825,-1.7787,-1.7624,-1.7519,-1.7466,-1.7143,-1.682,-1.676,-1.6697,-1.6516,-1.6328,-1.6281,-1.6146,-1.6005,-1.5892,-1.5832,-1.5919,-1.5832,-1.5832,-1.5825,-1.5825,-1.5825,-1.5825,-1.5825,-1.5825,-1.5825,-1.5825,-1.5825,-2.5616,-2.5616,-2.5606,-2.5606,-2.5585,-2.5409,-2.5326,-2.5316,-2.5003,-2.491,-2.4869,-2.4621,-2.4507,-2.4507,-2.4507,-2.4507,-2.4507,-2.4507,-2.4507,-2.4507,-2.4507,-2.4507,-2.4507,-2.4507,-2.3864,-2.2721,-2.1662,-2.0483,-1.9117,-1.787,-1.7286,-1.7286,-1.7286,-1.7286,-1.7286,-1.7286,-1.7286,-1.7286,-1.7286,-1.7286,-1.7318,-1.7201,-1.7135,-1.7106,-1.6873,-1.6646,-1.6484,-1.6469,-1.6404,-1.6294,-1.6455,-1.655,-1.655,-1.6505,-1.6513,-1.6505,-1.6505,-1.6615,-1.6923,-1.7186,-1.7286,-1.7286,-1.7286,-1.7286,-1.7286,-1.7286,-1.7286,-1.7286,-1.7286,-1.7286,-1.7347,-1.7494,-1.7761,-1.8218,-1.8803,-1.946,-2.0013,-2.041,-2.0438,-2.0144,-1.9696,-1.9331,-1.8894,-1.8586,-1.8338,-1.8174,-1.7964,-1.7806,-1.7753,-1.7694,-1.7641,-1.7555,-1.7355,-1.7168,-1.7007,-1.68,-1.6673,-1.6573,-1.6533,-1.6446,-1.6359,-1.6172,-1.6092,-1.6092,-1.5959,-1.5858,-1.5825,-1.5825,-1.5825,-1.5825,-1.5825,-1.5825,-1.5825,-1.5825,-1.5825,-2.6117,-2.6096,-2.5982,-2.5993,-2.6096,-2.5972,-2.593,-2.5844,-2.5544,-2.5409,-2.5368,-2.5057,-2.4859,-2.4848,-2.4745,-2.4631,-2.4528,-2.4631,-2.4611,-2.4538,-2.4621,-2.4683,-2.4693,-2.4817,-2.427,-2.3086,-2.2053,-2.0657,-1.8988,-1.8055,-1.7552,-1.7432,-1.7417,-1.7366,-1.7293,-1.7286,-1.7286,-1.7286,-1.7286,-1.7286,-1.7286,-1.7286,-1.7286,-1.7311,-1.7106,-1.7035,-1.6982,-1.6982,-1.7027,-1.7042,-1.7208,-1.7286,-1.7286,-1.7286,-1.7286,-1.7286,-1.7286,-1.7286,-1.7286,-1.7286,-1.7286,-1.7286,-1.7286,-1.7286,-1.7286,-1.7239,-1.7243,-1.733,-1.7269,-1.7236,-1.7352,-1.7709,-1.7981,-1.8204,-1.852,-1.9024,-1.9964,-1.9643,-1.9505,-1.9258,-1.9361,-1.8482,-1.8227,-1.8069,-1.8023,-1.7911,-1.7747,-1.7589,-1.7589,-1.7589,-1.7589,-1.7589,-1.7575,-1.7495,-1.7347,-1.7141,-1.6947,-1.6834,-1.6827,-1.6794,-1.6734,-1.6493,-1.6393,-1.6366,-1.6119,-1.5972,-1.5985,-1.5952,-1.5858,-1.5838,-1.5838,-1.5845,-1.5825,-1.5825,-1.5825,-2.6584,-2.6521,-2.6072,-2.621,-2.6553,-2.6159,-2.5916,-2.6013,-2.5875,-2.5899,-2.5854,-2.5792,-2.5802,-2.5751,-2.5388,-2.4931,-2.4621,-2.4983,-2.4952,-2.4652,-2.4972,-2.5158,-2.5189,-2.5616,-2.5184,-2.3898,-2.2795,-2.092,-1.8618,-1.8275,-1.8101,-1.7801,-1.7794,-1.764,-1.7359,-1.7344,-1.7293,-1.7293,-1.7308,-1.7293,-1.7286,-1.7286,-1.7286,-1.7279,-1.7311,-1.7235,-1.7296,-1.7257,-1.7296,-1.7296,-1.7264,-1.7286,-1.7286,-1.7286,-1.7286,-1.7286,-1.7286,-1.7286,-1.7286,-1.7286,-1.7286,-1.7286,-1.7286,-1.7286,-1.7286,-1.7182,-1.7217,-1.738,-1.7278,-1.7203,-1.7432,-1.8003,-1.8557,-1.9112,-1.9636,-2.0727,-2.2442,-2.1461,-2.1558,-2.1132,-2.0372,-1.945,-1.8475,-1.8122,-1.7911,-1.7747,-1.7635,-1.7589,-1.7589,-1.7589,-1.7589,-1.7589,-1.7589,-1.7575,-1.7608,-1.7435,-1.7335,-1.728,-1.7159,-1.7112,-1.6847,-1.6687,-1.6687,-1.6627,-1.6413,-1.6266,-1.6206,-1.6106,-1.5979,-1.5925,-1.5919,-1.5905,-1.5939,-1.5858,-1.5832,-2.705,-2.704,-2.6884,-2.6915,-2.7029,-2.6874,-2.6812,-2.6781,-2.6444,-2.6366,-2.6304,-2.6055,-2.593,-2.593,-2.603,-2.5844,-2.543,-2.5575,-2.5554,-2.542,-2.5575,-2.5647,-2.5668,-2.5813,-2.5275,-2.4183,-2.3805,-2.239,-1.999,-1.884,-1.8247,-1.816,-1.8123,-1.7962,-1.7728,-1.7852,-1.7757,-1.7399,-1.7476,-1.7498,-1.7323,-1.7286,-1.7286,-1.7286,-1.7286,-1.7286,-1.7286,-1.7286,-1.7286,-1.7286,-1.7286,-1.7286,-1.7286,-1.7286,-1.7286,-1.7286,-1.7286,-1.7286,-1.7286,-1.7286,-1.7286,-1.7286,-1.7286,-1.7293,-1.7323,-1.7421,-1.7507,-1.748,-1.7754,-1.7782,-1.7703,-1.844,-1.92,-1.9579,-2.0438,-2.0998,-2.1073,-2.0872,-2.0336,-1.9554,-1.9042,-1.8684,-1.8377,-1.8069,-1.7964,-1.7859,-1.7694,-1.7635,-1.7589,-1.7589,-1.7589,-1.7589,-1.7589,-1.7589,-1.7589,-1.7582,-1.7535,-1.7482,-1.7415,-1.7447,-1.7255,-1.7048,-1.7001,-1.6947,-1.674,-1.6547,-1.648,-1.6433,-1.6279,-1.6279,-1.6253,-1.6119,-1.6112,-1.6059,-1.5939,-2.7081,-2.7071,-2.6915,-2.6946,-2.7081,-2.7092,-2.7164,-2.7258,-2.6978,-2.6832,-2.677,-2.6501,-2.6366,-2.6418,-2.6698,-2.6687,-2.6366,-2.6221,-2.602,-2.5951,-2.6041,-2.6148,-2.6134,-2.6258,-2.5941,-2.5172,-2.4888,-2.3335,-2.0604,-1.9606,-1.9005,-1.8517,-1.846,-1.8291,-1.8064,-1.8203,-1.8064,-1.7757,-1.7867,-1.7852,-1.7614,-1.7647,-1.764,-1.764,-1.7592,-1.7483,-1.7301,-1.7286,-1.7286,-1.7286,-1.7286,-1.7286,-1.7286,-1.7286,-1.7286,-1.7293,-1.7428,-1.7381,-1.7315,-1.7374,-1.7395,-1.7301,-1.7381,-1.7439,-1.7461,-1.769,-1.7755,-1.7817,-1.7895,-1.7951,-1.8093,-1.8818,-1.9372,-1.9249,-2.0043,-2.0534,-2.0115,-1.9753,-1.9153,-1.8482,-1.8272,-1.8167,-1.8016,-1.8016,-1.7957,-1.7905,-1.7694,-1.7641,-1.7589,-1.7589,-1.7589,-1.7589,-1.7589,-1.7589,-1.7589,-1.7589,-1.7589,-1.7549,-1.7528,-1.7569,-1.7555,-1.7427,-1.732,-1.7273,-1.7088,-1.6874,-1.676,-1.6727,-1.6714,-1.6714,-1.658,-1.6413,-1.6359,-1.6279,-1.6172,-2.6656,-2.6635,-2.6103,-2.6345,-2.6718,-2.675,-2.6926,-2.7258,-2.7237,-2.7154,-2.7102,-2.7164,-2.6998,-2.7154,-2.7019,-2.7175,-2.6988,-2.662,-2.633,-2.6117,-2.6392,-2.6625,-2.6646,-2.6998,-2.7117,-2.688,-2.5809,-2.3231,-1.9973,-2.0432,-2.0089,-1.9036,-1.8796,-1.8628,-1.8306,-1.8364,-1.8343,-1.8247,-1.8262,-1.8284,-1.8291,-1.8225,-1.8203,-1.8233,-1.8225,-1.7962,-1.7366,-1.7323,-1.7315,-1.7286,-1.7286,-1.7286,-1.7369,-1.7406,-1.7377,-1.7465,-1.7662,-1.7647,-1.7381,-1.7647,-1.7629,-1.7486,-1.764,-1.7816,-1.7811,-1.792,-1.8067,-1.8189,-1.8025,-1.785,-1.8338,-1.8783,-1.8932,-1.8265,-1.8826,-1.9391,-1.9583,-1.9027,-1.8422,-1.8325,-1.8265,-1.8265,-1.8062,-1.7957,-1.7852,-1.7687,-1.7635,-1.7589,-1.7589,-1.7589,-1.7589,-1.7589,-1.7589,-1.7589,-1.7589,-1.7589,-1.7589,-1.7582,-1.7575,-1.7589,-1.7589,-1.7475,-1.7462,-1.7415,-1.7321,-1.7121,-1.7021,-1.6981,-1.6934,-1.6907,-1.678,-1.672,-1.666,-1.6587,-1.646,-2.7092,-2.7081,-2.6936,-2.6957,-2.7081,-2.7092,-2.7185,-2.7258,-2.6988,-2.6832,-2.677,-2.6501,-2.6356,-2.6366,-2.6356,-2.632,-2.633,-2.6336,-2.6522,-2.6796,-2.7009,-2.7071,-2.7112,-2.7237,-2.732,-2.6907,-2.4963,-2.3326,-2.1937,-2.0637,-1.9561,-1.9243,-1.9118,-1.895,-1.8664,-1.8833,-1.8789,-1.8372,-1.8525,-1.8533,-1.8328,-1.8306,-1.8306,-1.8299,-1.8299,-1.8189,-1.8006,-1.7786,-1.756,-1.7315,-1.7286,-1.7374,-1.7647,-1.7874,-1.7991,-1.8013,-1.8086,-1.8006,-1.7757,-1.7947,-1.8006,-1.7801,-1.7969,-1.813,-1.8182,-1.8402,-1.8477,-1.8476,-1.8428,-1.8509,-1.8401,-1.8377,-1.8586,-1.9101,-1.9709,-1.9702,-1.9332,-1.8506,-1.795,-1.7845,-1.7845,-1.7793,-1.774,-1.774,-1.7694,-1.7635,-1.7589,-1.7589,-1.7589,-1.7589,-1.7589,-1.7589,-1.7589,-1.7589,-1.7589,-1.7589,-1.7589,-1.7589,-1.7589,-1.7589,-1.7589,-1.7589,-1.7589,-1.7562,-1.7468,-1.7388,-1.7295,-1.7241,-1.7194,-1.7174,-1.7134,-1.7074,-1.7007,-1.6901,-1.678,-2.705,-2.704,-2.6864,-2.6895,-2.704,-2.705,-2.7154,-2.7247,-2.7009,-2.6874,-2.6791,-2.6397,-2.6134,-2.6103,-2.5888,-2.5805,-2.5791,-2.5906,-2.6228,-2.6676,-2.7084,-2.7204,-2.7272,-2.732,-2.662,-2.5819,-2.462,-2.3226,-2.1794,-2.068,-1.9828,-1.9376,-1.9272,-1.9177,-1.8994,-1.9155,-1.9038,-1.8738,-1.8869,-1.8869,-1.8708,-1.8664,-1.8664,-1.8664,-1.8664,-1.8606,-1.8482,-1.8277,-1.8028,-1.7757,-1.7684,-1.7794,-1.7999,-1.8182,-1.8299,-1.8321,-1.8394,-1.8335,-1.8079,-1.8299,-1.8343,-1.813,-1.8291,-1.8474,-1.854,-1.8782,-1.8862,-1.8817,-1.8792,-1.8869,-1.8691,-1.837,-1.8586,-1.9272,-1.9406,-1.9391,-1.861,-1.8042,-1.7613,-1.7527,-1.7561,-1.7515,-1.7455,-1.7542,-1.7575,-1.7589,-1.7589,-1.7589,-1.7589,-1.7589,-1.7589,-1.7589,-1.7589,-1.7589,-1.7589,-1.7589,-1.7589,-1.7589,-1.7589,-1.7589,-1.7589,-1.7589,-1.7589,-1.7589,-1.7522,-1.7515,-1.7435,-1.7475,-1.7462,-1.7514,-1.7467,-1.7427,-1.7288,-1.7228,-1.7114,-2.6656,-2.6548,-2.62,-2.632,-2.6708,-2.6739,-2.6967,-2.7258,-2.7216,-2.7117,-2.7044,-2.6481,-2.6315,-2.6249,-2.5603,-2.5329,-2.5482,-2.5447,-2.5488,-2.5834,-2.6355,-2.688,-2.7241,-2.732,-2.6264,-2.462,-2.4709,-2.3167,-2.0585,-2.0629,-2.0534,-1.9376,-1.9272,-1.9272,-1.9235,-1.9272,-1.9257,-1.9191,-1.9235,-1.922,-1.9213,-1.9228,-1.9228,-1.9213,-1.9199,-1.9074,-1.8847,-1.8774,-1.8613,-1.8343,-1.8255,-1.8291,-1.8328,-1.8343,-1.8423,-1.846,-1.8664,-1.8606,-1.8482,-1.8635,-1.8672,-1.8408,-1.8621,-1.8811,-1.8855,-1.9052,-1.9213,-1.9169,-1.9056,-1.9026,-1.9071,-1.8795,-1.8639,-1.866,-1.8429,-1.795,-1.7687,-1.7635,-1.7548,-1.7393,-1.7408,-1.7554,-1.7347,-1.7462,-1.7555,-1.7589,-1.7589,-1.7589,-1.7589,-1.7589,-1.7589,-1.7589,-1.7589,-1.7589,-1.7589,-1.7589,-1.7589,-1.7589,-1.7589,-1.7589,-1.7589,-1.7589,-1.7589,-1.7589,-1.7589,-1.7589,-1.7589,-1.7589,-1.7589,-1.7594,-1.7594,-1.7582,-1.7535,-1.7435,-1.7368,-2.7123,-2.7112,-2.6988,-2.7009,-2.7112,-2.7123,-2.7185,-2.7258,-2.6946,-2.6686,-2.6398,-2.5655,-2.5319,-2.4986,-2.4567,-2.428,-2.4357,-2.4456,-2.473,-2.51,-2.5442,-2.6298,-2.7101,-2.7299,-2.6839,-2.5886,-2.4377,-2.3276,-2.2139,-2.0585,-1.9732,-1.9324,-1.9272,-1.9272,-1.9272,-1.9272,-1.9272,-1.9272,-1.9272,-1.9272,-1.9272,-1.9272,-1.9272,-1.9272,-1.9272,-1.9228,-1.9147,-1.9147,-1.8869,-1.8379,-1.854,-1.8664,-1.8679,-1.8855,-1.8957,-1.8986,-1.9052,-1.9001,-1.8796,-1.895,-1.8972,-1.8738,-1.8942,-1.9147,-1.9147,-1.922,-1.9272,-1.9272,-1.9227,-1.9227,-1.922,-1.8952,-1.8646,-1.8279,-1.7996,-1.7779,-1.7635,-1.7582,-1.7549,-1.7548,-1.7522,-1.7515,-1.7475,-1.7508,-1.7582,-1.7589,-1.7589,-1.7589,-1.7589,-1.7589,-1.7589,-1.7589,-1.7589,-1.7589,-1.7589,-1.7589,-1.7589,-1.7589,-1.7589,-1.7589,-1.7589,-1.7589,-1.7589,-1.7589,-1.7589,-1.7589,-1.7589,-1.7589,-1.7589,-1.7589,-1.7589,-1.7589,-1.7589,-1.7528,-1.7515,-2.732,-2.732,-2.732,-2.732,-2.7262,-2.7167,-2.7129,-2.7078,-2.6709,-2.6482,-2.6188,-2.5584,-2.5103,-2.4766,-2.4201,-2.3837,-2.3727,-2.3795,-2.4003,-2.4357,-2.485,-2.5691,-2.6388,-2.6298,-2.5757,-2.5141,-2.3292,-2.2088,-2.1355,-1.9983,-1.9376,-1.9272,-1.9272,-1.9272,-1.9272,-1.9272,-1.9272,-1.9272,-1.9272,-1.9272,-1.9272,-1.9272,-1.9272,-1.9272,-1.9272,-1.9272,-1.9272,-1.9272,-1.9074,-1.8825,-1.8891,-1.8994,-1.906,-1.9162,-1.9272,-1.9272,-1.9272,-1.9228,-1.9074,-1.9236,-1.9177,-1.906,-1.9199,-1.925,-1.9264,-1.9272,-1.9272,-1.9272,-1.9272,-1.9272,-1.925,-1.8962,-1.8584,-1.8283,-1.7959,-1.7782,-1.7615,-1.7521,-1.7415,-1.7422,-1.7495,-1.7522,-1.7494,-1.7554,-1.7569,-1.7589,-1.7589,-1.7589,-1.7589,-1.7589,-1.7589,-1.7589,-1.7589,-1.7589,-1.7589,-1.7589,-1.7589,-1.7589,-1.7589,-1.7589,-1.7589,-1.7589,-1.7589,-1.7589,-1.7589,-1.7589,-1.7589,-1.7589,-1.7589,-1.7589,-1.7589,-1.7589,-1.7589,-1.7589,-1.7589,-2.7262,-2.7262,-2.7262,-2.7251,-2.7167,-2.6938,-2.6853,-2.6794,-2.661,-2.6456,-2.6297,-2.5956,-2.5388,-2.5067,-2.4257,-2.3856,-2.346,-2.3456,-2.3533,-2.3881,-2.4371,-2.5088,-2.5193,-2.4815,-2.4107,-2.3247,-2.1599,-2.0636,-2.0087,-1.9583,-1.9279,-1.9272,-1.9272,-1.9272,-1.9272,-1.9272,-1.9272,-1.9272,-1.9272,-1.9272,-1.9272,-1.9272,-1.9272,-1.9272,-1.9272,-1.9272,-1.9272,-1.9272,-1.9235,-1.9264,-1.9272,-1.925,-1.9257,-1.9272,-1.9272,-1.9272,-1.9272,-1.9264,-1.9309,-1.925,-1.9272,-1.9242,-1.925,-1.9272,-1.9272,-1.9272,-1.9272,-1.9272,-1.9272,-1.9242,-1.9051,-1.8657,-1.8341,-1.8151,-1.7819,-1.7633,-1.7566,-1.7407,-1.7246,-1.7253,-1.7501,-1.7422,-1.742,-1.7454,-1.7589,-1.7589,-1.7589,-1.7589,-1.7589,-1.7589,-1.7589,-1.7589,-1.7589,-1.7589,-1.7589,-1.7589,-1.7589,-1.7589,-1.7589,-1.7589,-1.7589,-1.7589,-1.7589,-1.7589,-1.7589,-1.7589,-1.7589,-1.7589,-1.7589,-1.7589,-1.7589,-1.7589,-1.7589,-1.7589,-1.7589,-2.7167,-2.6996,-2.6986,-2.6842,-2.6688,-2.6592,-2.6592,-2.6592,-2.6506,-2.6352,-2.6146,-2.5739,-2.5228,-2.4598,-2.4179,-2.3589,-2.333,-2.3291,-2.3363,-2.3774,-2.4105,-2.3914,-2.3777,-2.3767,-2.3876,-2.3108,-2.1635,-2.0676,-2.026,-1.9574,-1.9272,-1.9257,-1.9264,-1.9272,-1.9272,-1.9272,-1.9272,-1.9272,-1.9272,-1.9272,-1.9272,-1.9272,-1.9272,-1.9272,-1.9272,-1.9272,-1.9272,-1.9272,-1.9272,-1.9272,-1.9272,-1.9272,-1.9272,-1.9272,-1.9272,-1.9272,-1.9272,-1.9272,-1.9272,-1.9272,-1.9272,-1.9272,-1.9272,-1.9272,-1.9272,-1.9257,-1.9264,-1.9272,-1.9272,-1.9066,-1.8708,-1.8337,-1.8044,-1.7829,-1.7551,-1.7371,-1.7548,-1.7568,-1.7494,-1.7534,-1.7574,-1.7608,-1.7548,-1.7554,-1.7589,-1.7589,-1.7589,-1.7589,-1.7589,-1.7589,-1.7589,-1.7589,-1.7589,-1.7589,-1.7589,-1.7589,-1.7589,-1.7589,-1.7589,-1.7589,-1.7589,-1.7589,-1.7589,-1.7589,-1.7589,-1.7589,-1.7589,-1.7589,-1.7589,-1.7589,-1.7589,-1.7589,-1.7589,-1.7589,-1.7589,-2.6938,-2.6699,-2.6699,-2.6651,-2.6506,-2.6342,-2.6294,-2.6304,-2.6169,-2.6062,-2.5877,-2.5661,-2.5232,-2.4727,-2.4482,-2.416,-2.376,-2.3525,-2.3624,-2.3893,-2.3948,-2.3624,-2.3242,-2.2945,-2.2804,-2.1924,-2.0223,-1.954,-1.9426,-1.9312,-1.903,-1.9074,-1.9236,-1.9272,-1.9272,-1.9257,-1.9272,-1.9272,-1.9272,-1.9272,-1.9272,-1.9272,-1.9272,-1.9272,-1.9272,-1.9272,-1.9272,-1.9272,-1.9272,-1.9272,-1.9272,-1.9272,-1.9272,-1.9272,-1.9272,-1.9272,-1.9272,-1.9272,-1.9272,-1.9272,-1.9272,-1.9272,-1.9272,-1.9272,-1.922,-1.9155,-1.9052,-1.9008,-1.8913,-1.8673,-1.8375,-1.7806,-1.7608,-1.7709,-1.7441,-1.734,-1.7541,-1.7521,-1.7501,-1.7528,-1.7575,-1.7582,-1.7582,-1.7589,-1.7589,-1.7589,-1.7589,-1.7589,-1.7589,-1.7589,-1.7589,-1.7589,-1.7589,-1.7589,-1.7589,-1.7589,-1.7589,-1.7589,-1.7589,-1.7589,-1.7589,-1.7589,-1.7589,-1.7589,-1.7589,-1.7589,-1.7589,-1.7589,-1.7589,-1.7589,-1.7589,-1.7589,-1.7589,-1.7589,-1.7589,-2.6709,-2.6448,-2.6448,-2.64,-2.6352,-2.6159,-2.6062,-2.6014,-2.5781,-2.5732,-2.5684,-2.5684,-2.543,-2.5165,-2.5067,-2.4805,-2.4394,-2.4173,-2.4112,-2.4197,-2.3875,-2.3594,-2.3301,-2.2485,-2.1283,-1.953,-1.8844,-1.8443,-1.8452,-1.8533,-1.8708,-1.876,-1.8957,-1.9008,-1.9081,-1.9118,-1.9045,-1.9023,-1.9016,-1.9096,-1.9147,-1.9169,-1.9184,-1.9272,-1.9272,-1.9272,-1.9272,-1.9272,-1.9272,-1.9272,-1.9272,-1.9272,-1.9272,-1.9272,-1.9272,-1.9272,-1.9272,-1.9272,-1.9272,-1.9272,-1.9272,-1.9272,-1.9206,-1.9191,-1.9125,-1.8979,-1.8877,-1.876,-1.8621,-1.8347,-1.8231,-1.7726,-1.7503,-1.7646,-1.7457,-1.7407,-1.7462,-1.7407,-1.7467,-1.7574,-1.7589,-1.7589,-1.7589,-1.7589,-1.7589,-1.7589,-1.7589,-1.7589,-1.7589,-1.7589,-1.7589,-1.7589,-1.7589,-1.7589,-1.7589,-1.7589,-1.7589,-1.7589,-1.7589,-1.7589,-1.7589,-1.7589,-1.7589,-1.7589,-1.7589,-1.7589,-1.7589,-1.7589,-1.7589,-1.7589,-1.7589,-1.7589,-1.7589,-1.7589,-1.7589,-2.6602,-2.6197,-2.6149,-2.6062,-2.5878,-2.5781,-2.5771,-2.5781,-2.5732,-2.5684,-2.5684,-2.5674,-2.5498,-2.5185,-2.5125,-2.4834,-2.4617,-2.4523,-2.4601,-2.4568,-2.4167,-2.3761,-2.3066,-2.2499,-2.0968,-1.944,-1.8934,-1.8803,-1.81,-1.8211,-1.8364,-1.8394,-1.8482,-1.8525,-1.854,-1.8474,-1.8562,-1.8591,-1.8584,-1.8672,-1.8818,-1.8884,-1.8972,-1.914,-1.9155,-1.9199,-1.925,-1.9264,-1.9272,-1.9272,-1.9272,-1.9272,-1.9242,-1.9242,-1.925,-1.9272,-1.9272,-1.9272,-1.9228,-1.9242,-1.9264,-1.9213,-1.9052,-1.8906,-1.8877,-1.8833,-1.8774,-1.868,-1.8463,-1.8216,-1.777,-1.7483,-1.7415,-1.7416,-1.7513,-1.7554,-1.7549,-1.7528,-1.7534,-1.7575,-1.7589,-1.7589,-1.7589,-1.7589,-1.7589,-1.7589,-1.7589,-1.7589,-1.7589,-1.7589,-1.7589,-1.7589,-1.7589,-1.7589,-1.7589,-1.7589,-1.7589,-1.7589,-1.7589,-1.7589,-1.7589,-1.7589,-1.7589,-1.7589,-1.7589,-1.7589,-1.7589,-1.7589,-1.7589,-1.7589,-1.7589,-1.7589,-1.7589,-1.7589,-1.7589,-2.6255,-2.5927,-2.5927,-2.583,-2.5732,-2.5684,-2.5684,-2.5684,-2.5684,-2.5684,-2.5684,-2.5674,-2.5625,-2.5449,-2.542,-2.5273,-2.5145,-2.4975,-2.4962,-2.4854,-2.4474,-2.4056,-2.358,-2.3159,-2.177,-2.0564,-2.0149,-1.9257,-1.7761,-1.7896,-1.8035,-1.8094,-1.8196,-1.8299,-1.8299,-1.8328,-1.8284,-1.8284,-1.8291,-1.8357,-1.8518,-1.854,-1.8657,-1.873,-1.8803,-1.8855,-1.9008,-1.9023,-1.9111,-1.9235,-1.9272,-1.9177,-1.9074,-1.9038,-1.9103,-1.922,-1.925,-1.9177,-1.906,-1.9016,-1.8942,-1.8789,-1.8752,-1.8789,-1.8789,-1.8789,-1.873,-1.8498,-1.8146,-1.7915,-1.78,-1.7521,-1.7376,-1.742,-1.7502,-1.7569,-1.7589,-1.7589,-1.7589,-1.7589,-1.7589,-1.7589,-1.7589,-1.7589,-1.7589,-1.7589,-1.7589,-1.7589,-1.7589,-1.7589,-1.7589,-1.7589,-1.7589,-1.7589,-1.7589,-1.7589,-1.7589,-1.7589,-1.7589,-1.7589,-1.7589,-1.7589,-1.7589,-1.7589,-1.7589,-1.7589,-1.7589,-1.7589,-1.7589,-1.7589,-1.7589,-1.7589,-1.7589,-1.7589,-1.7589,-2.5965,-2.5684,-2.5684,-2.5684,-2.5684,-2.5684,-2.5684,-2.5684,-2.5684,-2.5684,-2.5684,-2.5684,-2.5684,-2.5674,-2.5664,-2.5654,-2.5654,-2.5322,-2.5272,-2.5165,-2.4756,-2.4551,-2.4485,-2.3932,-2.2824,-2.1079,-2.0618,-1.9741,-1.7854,-1.7699,-1.7772,-1.7779,-1.7999,-1.8101,-1.805,-1.7999,-1.8108,-1.8108,-1.8101,-1.8116,-1.8196,-1.8269,-1.8299,-1.8299,-1.8299,-1.846,-1.8664,-1.8694,-1.8796,-1.8942,-1.9001,-1.8942,-1.8745,-1.8694,-1.8847,-1.9096,-1.9118,-1.8928,-1.8796,-1.8803,-1.8752,-1.8599,-1.8679,-1.876,-1.8789,-1.8782,-1.8672,-1.8325,-1.8046,-1.7754,-1.7822,-1.7506,-1.7452,-1.7534,-1.7562,-1.7589,-1.7589,-1.7589,-1.7589,-1.7589,-1.7589,-1.7589,-1.7589,-1.7589,-1.7589,-1.7589,-1.7589,-1.7589,-1.7589,-1.7589,-1.7589,-1.7589,-1.7589,-1.7589,-1.7589,-1.7589,-1.7589,-1.7589,-1.7589,-1.7589,-1.7589,-1.7589,-1.7589,-1.7589,-1.7589,-1.7589,-1.7589,-1.7589,-1.7589,-1.7589,-1.7589,-1.7589,-1.7589,-1.7589,-1.7589,-2.6169,-2.5684,-2.5684,-2.5684,-2.5684,-2.5684,-2.5684,-2.5684,-2.5684,-2.5684,-2.5684,-2.5684,-2.5684,-2.5684,-2.5684,-2.5684,-2.5654,-2.5615,-2.5528,-2.545,-2.5185,-2.4933,-2.4733,-2.3505,-2.2591,-2.1249,-2.0442,-1.9002,-1.7856,-1.7743,-1.7699,-1.7541,-1.7604,-1.7501,-1.7721,-1.775,-1.745,-1.7486,-1.7454,-1.7578,-1.7882,-1.8123,-1.8211,-1.824,-1.824,-1.8269,-1.8335,-1.8364,-1.8423,-1.846,-1.846,-1.8416,-1.8364,-1.8357,-1.854,-1.865,-1.8606,-1.8408,-1.8467,-1.865,-1.8738,-1.8635,-1.8738,-1.8782,-1.884,-1.8862,-1.8709,-1.8435,-1.8282,-1.8099,-1.7821,-1.7607,-1.7549,-1.7562,-1.7589,-1.7589,-1.7589,-1.7589,-1.7589,-1.7589,-1.7589,-1.7589,-1.7589,-1.7589,-1.7589,-1.7589,-1.7589,-1.7589,-1.7589,-1.7589,-1.7589,-1.7589,-1.7589,-1.7589,-1.7589,-1.7589,-1.7589,-1.7589,-1.7589,-1.7589,-1.7589,-1.7589,-1.7589,-1.7589,-1.7589,-1.7589,-1.7589,-1.7589,-1.7589,-1.7589,-1.7589,-1.7589,-1.7589,-1.7589,-1.7589,-2.6062,-2.5684,-2.5684,-2.5684,-2.5684,-2.5684,-2.5684,-2.5684,-2.5684,-2.5684,-2.5684,-2.5684,-2.5684,-2.5684,-2.5684,-2.5684,-2.5684,-2.5684,-2.5684,-2.5684,-2.5431,-2.5121,-2.4503,-2.3745,-2.2766,-2.1121,-2.0448,-1.9605,-1.8472,-1.7984,-1.7991,-1.7889,-1.786,-1.794,-1.7808,-1.786,-1.7896,-1.7819,-1.7702,-1.7691,-1.7772,-1.7786,-1.7772,-1.7772,-1.7794,-1.7896,-1.8021,-1.8021,-1.8138,-1.8233,-1.8299,-1.8299,-1.8306,-1.8313,-1.8394,-1.846,-1.8401,-1.8408,-1.8577,-1.8716,-1.8686,-1.8628,-1.8686,-1.8877,-1.8994,-1.906,-1.9037,-1.8923,-1.8572,-1.8258,-1.8003,-1.7793,-1.7635,-1.7589,-1.7589,-1.7589,-1.7589,-1.7589,-1.7589,-1.7589,-1.7589,-1.7589,-1.7589,-1.7589,-1.7589,-1.7589,-1.7589,-1.7589,-1.7589,-1.7589,-1.7589,-1.7589,-1.7589,-1.7589,-1.7589,-1.7589,-1.7589,-1.7589,-1.7589,-1.7589,-1.7589,-1.7589,-1.7589,-1.7589,-1.7589,-1.7589,-1.7589,-1.7589,-1.7589,-1.7589,-1.7589,-1.7589,-1.7589,-1.7589,-1.7589,-2.5965,-2.5684,-2.5684,-2.5684,-2.5684,-2.5684,-2.5684,-2.5684,-2.5684,-2.5684,-2.5684,-2.5684,-2.5684,-2.5684,-2.5684,-2.5684,-2.5684,-2.5684,-2.5684,-2.5635,-2.5333,-2.4786,-2.4082,-2.3561,-2.2204,-2.0496,-2.0272,-1.9633,-1.8996,-1.854,-1.8496,-1.8321,-1.8196,-1.824,-1.8277,-1.824,-1.8211,-1.8196,-1.8028,-1.7955,-1.7933,-1.775,-1.7669,-1.7625,-1.7604,-1.7684,-1.7889,-1.7969,-1.8123,-1.8233,-1.8299,-1.8299,-1.8299,-1.8306,-1.8386,-1.8474,-1.8474,-1.8621,-1.8767,-1.8847,-1.8664,-1.8613,-1.8701,-1.9038,-1.9191,-1.9272,-1.9116,-1.8952,-1.8632,-1.8363,-1.8153,-1.7793,-1.7694,-1.7589,-1.7589,-1.7589,-1.7589,-1.7589,-1.7589,-1.7589,-1.7589,-1.7589,-1.7589,-1.7589,-1.7589,-1.7589,-1.7589,-1.7589,-1.7589,-1.7589,-1.7589,-1.7589,-1.7589,-1.7589,-1.7589,-1.7589,-1.7589,-1.7589,-1.7589,-1.7589,-1.7589,-1.7589,-1.7589,-1.7589,-1.7589,-1.7589,-1.7589,-1.7589,-1.7589,-1.7589,-1.7589,-1.7589,-1.7589,-1.7589,-1.7589,-2.5965,-2.5684,-2.5684,-2.5684,-2.5684,-2.5684,-2.5684,-2.5684,-2.5684,-2.5684,-2.5684,-2.5684,-2.5684,-2.5684,-2.5684,-2.5684,-2.5684,-2.5684,-2.5577,-2.5216,-2.4707,-2.4097,-2.3343,-2.2223,-2.1159,-2.0617,-2.0071,-1.9531,-1.9228,-1.903,-1.8774,-1.8394,-1.8482,-1.8372,-1.8379,-1.8474,-1.846,-1.8438,-1.8313,-1.8269,-1.8255,-1.8182,-1.8152,-1.8167,-1.8196,-1.8247,-1.8262,-1.8225,-1.8225,-1.8299,-1.8299,-1.8364,-1.8379,-1.8379,-1.8496,-1.8701,-1.8752,-1.8899,-1.906,-1.8986,-1.8818,-1.8855,-1.9001,-1.9191,-1.9264,-1.9272,-1.9063,-1.8691,-1.8534,-1.8213,-1.7891,-1.7628,-1.7589,-1.7589,-1.7589,-1.7589,-1.7589,-1.7589,-1.7589,-1.7589,-1.7589,-1.7589,-1.7589,-1.7589,-1.7589,-1.7589,-1.7589,-1.7589,-1.7589,-1.7589,-1.7589,-1.7589,-1.7589,-1.7589,-1.7589,-1.7589,-1.7589,-1.7589,-1.7589,-1.7589,-1.7589,-1.7589,-1.7589,-1.7589,-1.7589,-1.7589,-1.7589,-1.7589,-1.7589,-1.7589,-1.7589,-1.7589,-1.7589,-1.7589,-1.7589,-2.5781,-2.5684,-2.5684,-2.5684,-2.5684,-2.5684,-2.5684,-2.5684,-2.5684,-2.5684,-2.5684,-2.5684,-2.5684,-2.5684,-2.5684,-2.5684,-2.5577,-2.4913,-2.4815,-2.4353,-2.3692,-2.2844,-2.1988,-2.1387,-2.0629,-2.0034,-1.9428,-1.9272,-1.9257,-1.9272,-1.9243,-1.9001,-1.8847,-1.8906,-1.8906,-1.884,-1.8855,-1.8811,-1.8701,-1.8599,-1.8562,-1.8379,-1.8299,-1.8299,-1.8299,-1.8299,-1.8291,-1.8299,-1.8299,-1.8321,-1.8335,-1.8445,-1.8577,-1.8599,-1.876,-1.9008,-1.9045,-1.9133,-1.9272,-1.9155,-1.9096,-1.9148,-1.9199,-1.9272,-1.9272,-1.9272,-1.9123,-1.8803,-1.8482,-1.816,-1.7957,-1.7694,-1.7589,-1.7589,-1.7589,-1.7589,-1.7589,-1.7589,-1.7589,-1.7589,-1.7589,-1.7589,-1.7589,-1.7589,-1.7589,-1.7589,-1.7589,-1.7589,-1.7589,-1.7589,-1.7589,-1.7589,-1.7589,-1.7589,-1.7589,-1.7589,-1.7589,-1.7589,-1.7589,-1.7589,-1.7589,-1.7589,-1.7589,-1.7589,-1.7589,-1.7589,-1.7589,-1.7589,-1.7589,-1.7589,-1.7589,-1.7589,-1.7589,-1.7589,-1.7589,-2.5684,-2.5684,-2.5684,-2.5684,-2.5684,-2.5684,-2.5684,-2.5684,-2.5684,-2.5684,-2.5684,-2.5684,-2.5684,-2.5684,-2.5684,-2.5372,-2.5069,-2.451,-2.3998,-2.3343,-2.2492,-2.1641,-2.1038,-2.0483,-1.9983,-1.9376,-1.9272,-1.9272,-1.9272,-1.9272,-1.9235,-1.9228,-1.9272,-1.9235,-1.9235,-1.9272,-1.9272,-1.9206,-1.9089,-1.8928,-1.8891,-1.8752,-1.8628,-1.8642,-1.8657,-1.8657,-1.8672,-1.8686,-1.8672,-1.8664,-1.8672,-1.8745,-1.8855,-1.8972,-1.906,-1.9184,-1.9272,-1.9272,-1.9272,-1.9272,-1.9272,-1.9242,-1.925,-1.9272,-1.9272,-1.9227,-1.8966,-1.8705,-1.8436,-1.8167,-1.7911,-1.7694,-1.7589,-1.7589,-1.7589,-1.7589,-1.7589,-1.7589,-1.7589,-1.7589,-1.7589,-1.7589,-1.7589,-1.7589,-1.7589,-1.7589,-1.7589,-1.7589,-1.7589,-1.7589,-1.7589,-1.7589,-1.7589,-1.7589,-1.7589,-1.7589,-1.7589,-1.7589,-1.7589,-1.7589,-1.7589,-1.7589,-1.7589,-1.7589,-1.7589,-1.7589,-1.7589,-1.7589,-1.7589,-1.7589,-1.7589,-1.7589,-1.7589,-1.7589,-1.7589,-2.5684,-2.5684,-2.5684,-2.5684,-2.5684,-2.5684,-2.5684,-2.5684,-2.5684,-2.5684,-2.5684,-2.5684,-2.5684,-2.5684,-2.5577,-2.506,-2.4353,-2.3949,-2.3343,-2.2391,-2.1438,-2.0936,-2.0534,-1.9983,-1.9524,-1.9376,-1.9272,-1.9272,-1.9272,-1.9272,-1.9272,-1.9272,-1.9272,-1.9272,-1.9272,-1.9272,-1.9272,-1.9272,-1.9287,-1.9213,-1.9191,-1.9133,-1.9103,-1.9089,-1.9081,-1.906,-1.906,-1.906,-1.9052,-1.906,-1.9074,-1.9125,-1.9169,-1.9191,-1.9228,-1.9257,-1.9272,-1.9272,-1.9272,-1.9272,-1.9272,-1.9272,-1.9272,-1.9272,-1.9227,-1.9071,-1.881,-1.8593,-1.8227,-1.7957,-1.7747,-1.7589,-1.7589,-1.7589,-1.7589,-1.7589,-1.7589,-1.7589,-1.7589,-1.7589,-1.7589,-1.7589,-1.7589,-1.7589,-1.7589,-1.7589,-1.7589,-1.7589,-1.7589,-1.7589,-1.7589,-1.7589,-1.7589,-1.7589,-1.7589,-1.7589,-1.7589,-1.7589,-1.7589,-1.7589,-1.7589,-1.7589,-1.7589,-1.7589,-1.7589,-1.7589,-1.7589,-1.7589,-1.7424,-1.7265,-1.7536,-1.7589,-1.7589,-1.7589,-1.7589,-2.5684,-2.5684,-2.5684,-2.5684,-2.5684,-2.5684,-2.5684,-2.5684,-2.5684,-2.5684,-2.5684,-2.5684,-2.5684,-2.5528,-2.502,-2.4501,-2.3939,-2.224,-2.1582,-2.1387,-2.0431,-1.9983,-1.968,-1.9576,-1.9272,-1.9272,-1.9272,-1.9272,-1.9272,-1.9272,-1.9272,-1.9272,-1.9272,-1.9272,-1.9272,-1.9272,-1.9272,-1.9272,-1.9272,-1.9272,-1.9272,-1.9272,-1.9272,-1.9272,-1.9272,-1.9272,-1.9272,-1.9272,-1.9272,-1.9272,-1.9272,-1.9272,-1.9272,-1.9272,-1.9272,-1.9272,-1.9272,-1.9272,-1.9272,-1.9272,-1.9272,-1.9272,-1.9272,-1.9272,-1.9272,-1.9071,-1.875,-1.8429,-1.8115,-1.7852,-1.7694,-1.7641,-1.7589,-1.7589,-1.7589,-1.7589,-1.7589,-1.7589,-1.7589,-1.7589,-1.7589,-1.7589,-1.7589,-1.7589,-1.7589,-1.7589,-1.7589,-1.7589,-1.7589,-1.7589,-1.7589,-1.7589,-1.7589,-1.7589,-1.7589,-1.7589,-1.7589,-1.7589,-1.7589,-1.7589,-1.7589,-1.7589,-1.7589,-1.7589,-1.7589,-1.7589,-1.7589,-1.7529,-1.7047,-1.6935,-1.7265,-1.7424,-1.7318,-1.7424,-1.7589,-2.5684,-2.5684,-2.5684,-2.5684,-2.5684,-2.5684,-2.5684,-2.5684,-2.5684,-2.5684,-2.5684,-2.5684,-2.5684,-2.5479,-2.502,-2.3949,-2.3543,-2.2685,-2.0731,-2.0637,-2.0181,-1.9776,-1.9524,-1.9324,-1.9272,-1.9272,-1.9272,-1.9272,-1.9272,-1.9272,-1.9272,-1.9272,-1.9272,-1.9272,-1.9272,-1.9272,-1.9272,-1.9272,-1.9272,-1.9272,-1.9272,-1.9272,-1.9272,-1.9272,-1.9272,-1.9272,-1.9272,-1.9272,-1.9272,-1.9272,-1.9272,-1.9272,-1.9272,-1.9272,-1.9272,-1.9272,-1.9272,-1.9272,-1.9272,-1.9272,-1.9272,-1.9272,-1.9272,-1.9272,-1.922,-1.8907,-1.8639,-1.837,-1.8062,-1.7852,-1.7635,-1.7589,-1.7589,-1.7589,-1.7589,-1.7589,-1.7589,-1.7589,-1.7589,-1.7589,-1.7589,-1.7589,-1.7589,-1.7589,-1.7589,-1.7589,-1.7589,-1.7589,-1.7589,-1.7589,-1.7589,-1.7589,-1.7589,-1.7589,-1.7589,-1.7589,-1.7589,-1.7589,-1.7589,-1.7589,-1.7589,-1.7589,-1.7589,-1.7589,-1.7589,-1.7589,-1.7589,-1.7424,-1.7047,-1.6935,-1.71,-1.7153,-1.7047,-1.7312,-1.7589,-2.5684,-2.5684,-2.5684,-2.5684,-2.5684,-2.5684,-2.5684,-2.5684,-2.5684,-2.5684,-2.5684,-2.5684,-2.5684,-2.5684,-2.5586,-2.451,-2.3144,-2.3443,-2.2038,-2.0637,-2.0483,-2.0078,-1.968,-1.9376,-1.9324,-1.9272,-1.9272,-1.9272,-1.9272,-1.9272,-1.9272,-1.9272,-1.9272,-1.9272,-1.9272,-1.9272,-1.9272,-1.9272,-1.9272,-1.9272,-1.9272,-1.9272,-1.9272,-1.9272,-1.9272,-1.9272,-1.9272,-1.9272,-1.9272,-1.9272,-1.9272,-1.9272,-1.9272,-1.9272,-1.9272,-1.9272,-1.9272,-1.9272,-1.9272,-1.9272,-1.9272,-1.9272,-1.9279,-1.9279,-1.9116,-1.8795,-1.8475,-1.8213,-1.795,-1.7799,-1.7589,-1.7589,-1.7589,-1.7589,-1.7589,-1.7589,-1.7589,-1.7589,-1.7589,-1.7589,-1.7589,-1.7589,-1.7589,-1.7589,-1.7589,-1.7589,-1.7589,-1.7589,-1.7589,-1.7589,-1.7589,-1.7589,-1.7589,-1.7589,-1.7589,-1.7589,-1.7589,-1.7589,-1.7589,-1.7589,-1.7589,-1.7589,-1.7589,-1.7589,-1.7589,-1.7589,-1.7589,-1.7424,-1.7094,-1.7041,-1.6942,-1.6829,-1.6717,-1.7312,-1.7589,-2.5684,-2.5684,-2.5684,-2.5684,-2.5684,-2.5684,-2.5684,-2.5684,-2.5684,-2.5684,-2.5684,-2.5684,-2.5684,-2.5635,-2.4913,-2.4254,-2.3692,-2.3144,-2.2542,-2.1743,-2.1089,-2.0739,-2.0233,-1.968,-1.9428,-1.9272,-1.9272,-1.9272,-1.9272,-1.9272,-1.9272,-1.9272,-1.9272,-1.9272,-1.9272,-1.9272,-1.9272,-1.9272,-1.9272,-1.9272,-1.9272,-1.9272,-1.9272,-1.9272,-1.9272,-1.9272,-1.9272,-1.9272,-1.9272,-1.9272,-1.9272,-1.9272,-1.9272,-1.9272,-1.9272,-1.9272,-1.9272,-1.9272,-1.9272,-1.9272,-1.9272,-1.9227,-1.9182,-1.9026,-1.8914,-1.8639,-1.8318,-1.8062,-1.7845,-1.7694,-1.7589,-1.7589,-1.7589,-1.7589,-1.7589,-1.7589,-1.7589,-1.7589,-1.7589,-1.7589,-1.7589,-1.7589,-1.7589,-1.7589,-1.7589,-1.7589,-1.7589,-1.7589,-1.7589,-1.7589,-1.7589,-1.7589,-1.7589,-1.7589,-1.7589,-1.7589,-1.7589,-1.7589,-1.7589,-1.7589,-1.7589,-1.7589,-1.7589,-1.7589,-1.7589,-1.7589,-1.7589,-1.7371,-1.7206,-1.6829,-1.667,-1.6505,-1.6505,-1.7094,-1.7529,-2.5684,-2.5684,-2.5684,-2.5684,-2.5684,-2.5684,-2.5684,-2.5684,-2.5684,-2.5684,-2.5684,-2.5684,-2.5684,-2.5635,-2.5069,-2.455,-2.4088,-2.4057,-2.3253,-2.1591,-2.1641,-2.0885,-2.0328,-1.9732,-1.9376,-1.9272,-1.9272,-1.9272,-1.9272,-1.9272,-1.9272,-1.9272,-1.9272,-1.9272,-1.9272,-1.9272,-1.9272,-1.9272,-1.9272,-1.9272,-1.9272,-1.9272,-1.9272,-1.9272,-1.9272,-1.9272,-1.9272,-1.9272,-1.9272,-1.9272,-1.9272,-1.9272,-1.9272,-1.9272,-1.9272,-1.9272,-1.9272,-1.9272,-1.9272,-1.9272,-1.9272,-1.9227,-1.9026,-1.8869,-1.8653,-1.8384,-1.8174,-1.8016,-1.7799,-1.7589,-1.7589,-1.7589,-1.7589,-1.7589,-1.7589,-1.7589,-1.7589,-1.7589,-1.7589,-1.7589,-1.7589,-1.7589,-1.7589,-1.7589,-1.7589,-1.7589,-1.7589,-1.7589,-1.7589,-1.7589,-1.7589,-1.7589,-1.7589,-1.7589,-1.7589,-1.7589,-1.7589,-1.7589,-1.7589,-1.7589,-1.7589,-1.7589,-1.7589,-1.7589,-1.7589,-1.7589,-1.7589,-1.7529,-1.7371,-1.6942,-1.6346,-1.5968,-1.6121,-1.677,-1.7206,-2.5684,-2.5684,-2.5684,-2.5684,-2.5684,-2.5684,-2.5684,-2.5684,-2.5684,-2.5684,-2.5684,-2.5684,-2.5684,-2.5684,-2.5479,-2.506,-2.4854,-2.4873,-2.4115,-2.1344,-2.1937,-2.1532,-2.0483,-1.9428,-1.9324,-1.9272,-1.9272,-1.9272,-1.9272,-1.9272,-1.9272,-1.9272,-1.9272,-1.9272,-1.9272,-1.9272,-1.9272,-1.9272,-1.9272,-1.9272,-1.9272,-1.9272,-1.9272,-1.9272,-1.9272,-1.9272,-1.9272,-1.9272,-1.9272,-1.9272,-1.9272,-1.9272,-1.9272,-1.9272,-1.9272,-1.9272,-1.9272,-1.9272,-1.9272,-1.9272,-1.9227,-1.9175,-1.9018,-1.8705,-1.8384,-1.8227,-1.8069,-1.7911,-1.7694,-1.7641,-1.7589,-1.7589,-1.7589,-1.7589,-1.7589,-1.7589,-1.7589,-1.7589,-1.7589,-1.7589,-1.7589,-1.7589,-1.7589,-1.7589,-1.7589,-1.7589,-1.7589,-1.7589,-1.7589,-1.7589,-1.7589,-1.7589,-1.7589,-1.7589,-1.7589,-1.7589,-1.7589,-1.7589,-1.7589,-1.7589,-1.7589,-1.7589,-1.7589,-1.7589,-1.7589,-1.7589,-1.7589,-1.7529,-1.7371,-1.6829,-1.624,-1.5482,-1.5689,-1.6287,-1.6611,-2.5684,-2.5684,-2.5684,-2.5684,-2.5684,-2.5684,-2.5684,-2.5684,-2.5684,-2.5684,-2.5684,-2.5684,-2.5684,-2.5684,-2.5684,-2.5421,-2.5479,-2.5382,-2.5177,-2.3759,-2.3194,-2.208,-2.1242,-1.9887,-1.9428,-1.9272,-1.9272,-1.9272,-1.9272,-1.9272,-1.9272,-1.9272,-1.9272,-1.9272,-1.9272,-1.9272,-1.9272,-1.9272,-1.9272,-1.9272,-1.9272,-1.9272,-1.9272,-1.9272,-1.9272,-1.9272,-1.9272,-1.9272,-1.9272,-1.9272,-1.9272,-1.9272,-1.9272,-1.9272,-1.9272,-1.9272,-1.9272,-1.9272,-1.9279,-1.9279,-1.9175,-1.8966,-1.8698,-1.8436,-1.8167,-1.8069,-1.7905,-1.7747,-1.7635,-1.7641,-1.7589,-1.7589,-1.7589,-1.7589,-1.7589,-1.7589,-1.7589,-1.7589,-1.7589,-1.7589,-1.7589,-1.7589,-1.7589,-1.7589,-1.7589,-1.7589,-1.7589,-1.7589,-1.7589,-1.7589,-1.7589,-1.7589,-1.7589,-1.7589,-1.7589,-1.7589,-1.7589,-1.7589,-1.7589,-1.7589,-1.7589,-1.7589,-1.7589,-1.7589,-1.7589,-1.7589,-1.7589,-1.7589,-1.7318,-1.6889,-1.6074,-1.5316,-1.5102,-1.5589,-1.5749,-2.5684,-2.5684,-2.5684,-2.5684,-2.5684,-2.5684,-2.5684,-2.5684,-2.5684,-2.5684,-2.5684,-2.5684,-2.5684,-2.5684,-2.5684,-2.5684,-2.5684,-2.5684,-2.5118,-2.4461,-2.3601,-2.2341,-2.1234,-2.0233,-1.9576,-1.9272,-1.9272,-1.9272,-1.9272,-1.9272,-1.9272,-1.9272,-1.9272,-1.9272,-1.9272,-1.9272,-1.9272,-1.9272,-1.9272,-1.9272,-1.9272,-1.9272,-1.9272,-1.9272,-1.9272,-1.9272,-1.9272,-1.9272,-1.9272,-1.9272,-1.9272,-1.9272,-1.9272,-1.9272,-1.9272,-1.9272,-1.9272,-1.9272,-1.9279,-1.9175,-1.9071,-1.881,-1.8436,-1.8122,-1.8069,-1.7911,-1.7799,-1.7641,-1.7641,-1.7589,-1.7589,-1.7589,-1.7589,-1.7589,-1.7589,-1.7589,-1.7589,-1.7589,-1.7589,-1.7589,-1.7589,-1.7589,-1.7589,-1.7589,-1.7589,-1.7589,-1.7589,-1.7589,-1.7589,-1.7589,-1.7589,-1.7589,-1.7589,-1.7589,-1.7589,-1.7589,-1.7589,-1.7589,-1.7589,-1.7589,-1.7589,-1.7589,-1.7589,-1.7589,-1.7589,-1.7589,-1.7589,-1.7589,-1.7589,-1.7318,-1.6234,-1.5102,-1.4995,-1.4942,-1.5102,-2.5684,-2.5684,-2.5684,-2.5684,-2.5684,-2.5684,-2.5684,-2.5684,-2.5684,-2.5684,-2.5684,-2.5684,-2.5684,-2.5684,-2.5684,-2.5684,-2.5684,-2.5684,-2.5118,-2.4461,-2.3393,-2.2534,-2.143,-2.0181,-1.9732,-1.9376,-1.9272,-1.9272,-1.9272,-1.9272,-1.9272,-1.9272,-1.9272,-1.9272,-1.9272,-1.9272,-1.9272,-1.9272,-1.9272,-1.9272,-1.9272,-1.9272,-1.9272,-1.9272,-1.9272,-1.9272,-1.9272,-1.9272,-1.9272,-1.9272,-1.9272,-1.9272,-1.9272,-1.9272,-1.9272,-1.9272,-1.9272,-1.9272,-1.9227,-1.9071,-1.8974,-1.8712,-1.8233,-1.7964,-1.7911,-1.7799,-1.7641,-1.7589,-1.7589,-1.7589,-1.7589,-1.7589,-1.7589,-1.7589,-1.7589,-1.7589,-1.7589,-1.7589,-1.7589,-1.7589,-1.7589,-1.7589,-1.7589,-1.7589,-1.7589,-1.7589,-1.7589,-1.7589,-1.7589,-1.7589,-1.7589,-1.7589,-1.7589,-1.7589,-1.7589,-1.7589,-1.7589,-1.7589,-1.7589,-1.7589,-1.7589,-1.7589,-1.7589,-1.7589,-1.7589,-1.7589,-1.7589,-1.7589,-1.7589,-1.7424,-1.5968,-1.4722,-1.4615,-1.4567,-1.4615,-2.5684,-2.5684,-2.5684,-2.5684,-2.5684,-2.5684,-2.5684,-2.5684,-2.5684,-2.5684,-2.5684,-2.5684,-2.5684,-2.5684,-2.5684,-2.5684,-2.5684,-2.5684,-2.5684,-2.5274,-2.4048,-2.3094,-2.2089,-2.0885,-2.013,-1.968,-1.9376,-1.9272,-1.9272,-1.9272,-1.9272,-1.9272,-1.9272,-1.9272,-1.9272,-1.9272,-1.9272,-1.9272,-1.9272,-1.9272,-1.9272,-1.9272,-1.9272,-1.9272,-1.9272,-1.9272,-1.9272,-1.9272,-1.9272,-1.9272,-1.9272,-1.9272,-1.9272,-1.9272,-1.9272,-1.9272,-1.9272,-1.9272,-1.9175,-1.8966,-1.881,-1.8489,-1.8115,-1.7852,-1.7799,-1.7694,-1.7589,-1.7589,-1.7589,-1.7589,-1.7589,-1.7589,-1.7589,-1.7589,-1.7589,-1.7589,-1.7589,-1.7589,-1.7589,-1.7589,-1.7589,-1.7589,-1.7589,-1.7589,-1.7589,-1.7589,-1.7589,-1.7589,-1.7589,-1.7589,-1.7589,-1.7589,-1.7589,-1.7589,-1.7589,-1.7589,-1.7589,-1.7589,-1.7589,-1.7589,-1.7589,-1.7589,-1.7589,-1.7589,-1.7589,-1.7589,-1.7589,-1.7589,-1.7047,-1.6611,-1.5263,-1.4245,-1.4239,-1.446,-1.4781]}]]